[[{"header":{"parameterUnit":"m.s-1","parameterCategory":1,"la1":31.0,"la2":29.5877,"lo1":-88.7671,"lo2":-86.6584,"dy":0.0162,"dx":0.0185,"nx":115,"ny":88,"refTime":"2023-04-29T12:00:00:Z","depth":0,"parameterNumber":2,"parameterNumberName":"U-component_of_WINDS"},"data":[0.0,0.0,0.0,0.0,0.0,0.0,0.0,0.0,0.0,0.0,0.0,0.0,0.0,0.0,0.0,0.0,0.0,0.0,0.0,0.0,0.0,0.0,0.0,0.0,0.0,0.0,0.0,0.0,0.0,0.0,0.0,0.0,0.0,0.0,0.0,0.0,0.0,0.0,0.0,0.0,0.0,0.0,0.0,0.0,0.0,0.0,0.0,0.0,0.0,0.0,0.0,0.0,0.0,0.0,0.0,0.0,0.0,0.0,0.0,0.0,0.0,0.0,0.0,0.0,0.0,0.0,0.0,0.0,0.0,0.0,0.0,0.0,0.0,0.0,0.0,0.0,0.0,0.0,0.0,0.0,0.0,0.0,0.0,0.0,0.0,0.0,0.0,0.0,0.0,0.0,0.0,0.0,0.0,0.0,0.0,0.0,0.0,0.0,0.0,0.0,0.0,0.0,0.0,0.0,0.0,0.0,0.0,0.0,0.0,0.0,0.0,0.0,0.0,0.0,0.0,0.0,0.0,0.0,0.0,0.0,0.0,0.0,0.0,0.0,0.0,0.0,0.0,0.0,0.0,0.0,0.0,0.0,0.0,0.0,0.0,0.0,0.0,0.0,0.0,0.0,0.0,0.0,0.0,0.0,0.0,0.0,0.0,0.0,0.0,0.0,0.0,0.0,0.0,0.0,0.0,0.0,0.0,0.0,0.0,0.0,0.0,0.0,0.0,0.0,0.0,0.0,0.0,0.0,0.0,0.0,0.0,0.0,0.0,0.0,0.0,0.0,0.0,0.0,0.0,0.0,0.0,0.0,0.0,0.0,0.0,0.0,0.0,0.0,0.0,0.0,0.0,0.0,0.0,0.0,0.0,0.0,0.0,0.0,0.0,0.0,0.0,0.0,0.0,0.0,0.0,0.0,0.0,0.0,0.0,0.0,0.0,0.0,0.0,0.0,0.0,0.0,0.0,0.0,0.0,0.0,0.0,0.0,0.0,0.0,0.0,0.0,0.0,0.0,0.0,0.0,0.0,0.0,0.0,0.0,0.0,0.0,0.0,0.0,0.0,0.0,0.0,0.0,0.0,0.0,0.0,0.0,0.0,0.0,0.0,0.0,0.0,0.0,0.0,0.0,0.0,0.0,0.0,0.0,0.0,0.0,0.0,0.0,0.0,0.0,0.0,0.0,0.0,0.0,0.0,0.0,0.0,0.0,0.0,0.0,0.0,0.0,0.0,0.0,0.0,0.0,0.0,0.0,0.0,0.0,0.0,0.0,0.0,0.0,0.0,0.0,0.0,0.0,0.0,0.0,0.0,0.0,0.0,0.0,0.0,0.0,0.0,0.0,0.0,0.0,0.0,0.0,0.0,0.0,0.0,0.0,0.0,0.0,0.0,0.0,0.0,0.0,0.0,0.0,0.0,0.0,0.0,0.0,0.0,0.0,0.0,0.0,0.0,0.0,0.0,0.0,0.0,0.0,0.0,0.0,0.0,0.0,0.0,0.0,0.0,0.0,0.0,0.0,0.0,0.0,0.0,0.0,0.0,0.0,0.0,0.0,0.0,0.0,0.0,0.0,0.0,0.0,0.0,0.0,0.0,0.0,0.0,0.0,0.0,0.0,0.0,0.0,0.0,0.0,0.0,0.0,0.0,0.0,0.0,0.0,0.0,0.0,0.0,0.0,0.0,0.0,0.0,0.0,0.0,0.0,0.0,0.0,0.0,0.0,0.0,0.0,0.0,0.0,0.0,0.0,0.0,0.0,0.0,0.0,0.0,0.0,0.0,0.0,0.0,0.0,0.0,0.0,0.0,0.0,0.0,0.0,0.0,0.0,0.0,0.0,0.0,0.0,0.0,0.0,0.0,0.0,0.0,0.0,0.0,0.0,0.0,0.0,0.0,0.0,0.0,0.0,0.0,0.0,0.0,0.0,0.0,0.0,0.0,0.0,0.0,0.0,0.0,0.0,0.0,0.0,0.0,0.0,0.0,0.0,0.0,0.0,0.0,0.0,0.0,0.0,0.0,0.0,0.0,0.0,0.0,0.0,0.0,0.0,0.0,0.0,0.0,0.0,0.0,0.0,0.0,0.0,0.0,0.0,0.0,0.0,0.0,0.0,0.0,0.0,0.0,0.0,0.0,0.0,0.0,0.0,0.0,0.0,0.0,0.0,0.0,0.0,0.0,0.0,0.0,0.0,0.0,0.0,0.0,0.0,0.0,0.0,0.0,0.0,0.0,0.0,0.0,0.0,0.0,0.0,0.0,0.0,0.0,0.0,0.0,0.0,0.0,0.0,0.0,0.0,0.0,0.0,0.0,0.0,0.0,0.0,0.0,0.0,0.0,0.0,0.0,0.0,0.0,0.0,0.0,0.0,0.0,0.0,0.0,0.0,0.0,0.0,0.0,0.0,0.0,0.0,0.0,0.0,0.0,0.0,0.0,0.0,0.0,0.0,0.0,0.0,0.0,0.0,0.0,0.0,0.0,0.0,0.0,0.0,0.0,0.0,0.0,0.0,0.0,0.0,0.0,0.0,0.0,0.0,0.0,0.0,0.0,0.0,0.0,0.0,0.0,0.0,0.0,0.0,0.0,0.0,0.0,0.0,0.0,0.0,0.0,0.0,0.0,0.0,0.0,0.0,0.0,0.0,0.0,0.0,0.0,0.0,0.0,0.0,0.0,0.0,0.0,0.0,0.0,0.0,0.0,0.0,0.0,0.0,0.0,0.0,0.0,0.0,0.0,0.0,0.0,0.0,0.0,0.0,0.0,0.0,0.0,0.0,0.0,0.0,0.0,0.0,0.0,0.0,0.0,0.0,0.0,0.0,0.0,0.0,0.0,0.0,0.0,0.0,0.0,0.0,0.0,0.0,0.0,0.0,0.0,0.0,0.0,0.0,0.0,0.0,0.0,0.0,0.0,0.0,0.0,0.0,0.0,0.0,0.0,0.0,0.0,0.0,0.0,0.0,0.0,0.0,0.0,0.0,0.0,0.0,0.0,0.0,0.0,0.0,0.0,0.0,0.0,0.0,0.0,0.0,0.0,0.0,0.0,0.0,0.0,0.0,0.0,0.0,0.0,0.0,0.0,0.0,0.0,0.0,0.0,0.0,0.0,0.0,0.0,0.0,0.0,0.0,0.0,0.0,0.0,0.0,0.0,0.0,0.0,0.0,0.0,0.0,0.0,0.0,0.0,0.0,0.0,0.0,0.0,0.0,0.0,0.0,0.0,0.0,0.0,0.0,0.0,0.0,0.0,0.0,0.0,0.0,0.0,0.0,0.0,0.0,0.0,0.0,0.0,0.0,0.0,0.0,0.0,0.0,0.0,0.0,0.0,0.0,0.0,0.0,0.0,0.0,0.0,0.0,0.0,0.0,0.0,0.0,0.0,0.0,0.0,0.0,0.0,0.0,0.0,0.0,0.0,0.0,0.0,0.0,0.0,0.0,0.0,0.0,0.0,0.0,0.0,0.0,0.0,0.0,0.0,0.0,0.0,0.0,0.0,0.0,0.0,0.0,0.0,0.0,0.0,0.0,0.0,0.0,0.0,0.0,0.0,0.0,0.0,0.0,0.0,0.0,0.0,0.0,0.0,0.0,0.0,0.0,0.0,0.0,0.0,0.0,0.0,0.0,0.0,0.0,0.0,0.0,0.0,0.0,0.0,0.0,0.0,0.0,0.0,0.0,0.0,0.0,0.0,0.0,0.0,0.0,0.0,0.0,0.0,0.0,0.0,0.0,0.0,0.0,0.0,0.0,0.0,0.0,0.0,0.0,0.0,0.0,0.0,0.0,0.0,0.0,0.0,0.0,0.0,0.0,0.0,0.0,0.0,0.0,0.0,0.0,0.0,0.0,0.0,0.0,0.0,0.0,0.0,0.0,0.0,0.0,0.0,0.0,0.0,0.0,0.0,0.0,0.0,0.0,0.0,0.0,0.0,0.0,0.0,0.0,0.0,0.0,0.0,0.0,0.0,0.0,0.0,0.0,0.0,0.0,0.0,0.0,0.0,0.0,0.0,0.0,0.0,0.0,0.0,0.0,0.0,0.0,0.0,0.0,0.0,0.0,0.0,0.0,0.0,0.0,0.0,0.0,0.0,0.0,0.0,0.0,0.0,0.0,0.0,0.0,0.0,0.0,0.0,0.0,0.0,0.0,0.0,0.0,0.0,0.0,0.0,0.0,0.0,0.0,0.0,0.0,0.0,0.0,0.0,0.0,0.0,0.0,0.0,0.0,0.0,0.0,0.0,0.0,0.0,0.0,0.0,0.0,0.0,0.0,0.0,0.0,-4.5419,0.0,0.0,0.0,0.0,0.0,0.0,0.0,0.0,0.0,0.0,0.0,0.0,0.0,0.0,0.0,0.0,0.0,0.0,0.0,0.0,0.0,0.0,0.0,0.0,0.0,0.0,0.0,0.0,0.0,0.0,0.0,0.0,0.0,0.0,0.0,0.0,0.0,0.0,0.0,0.0,0.0,0.0,0.0,0.0,0.0,0.0,0.0,0.0,0.0,0.0,0.0,0.0,0.0,0.0,0.0,0.0,0.0,0.0,0.0,0.0,0.0,0.0,0.0,0.0,0.0,0.0,0.0,0.0,0.0,0.0,0.0,0.0,0.0,0.0,0.0,0.0,0.0,0.0,0.0,0.0,0.0,0.0,0.0,0.0,0.0,0.0,0.0,0.0,0.0,0.0,0.0,0.0,0.0,0.0,0.0,0.0,0.0,0.0,0.0,0.0,0.0,0.0,0.0,0.0,0.0,0.0,0.0,0.0,0.0,0.0,-4.5594,-4.5594,-4.5522,-4.5476,-4.541,0.0,0.0,0.0,0.0,0.0,0.0,0.0,0.0,0.0,0.0,0.0,0.0,0.0,0.0,0.0,0.0,0.0,0.0,0.0,0.0,0.0,0.0,0.0,0.0,0.0,0.0,0.0,0.0,0.0,0.0,0.0,0.0,0.0,0.0,0.0,0.0,0.0,0.0,0.0,0.0,0.0,0.0,0.0,0.0,0.0,0.0,0.0,0.0,0.0,0.0,0.0,0.0,0.0,0.0,0.0,0.0,0.0,0.0,0.0,0.0,0.0,0.0,0.0,0.0,0.0,0.0,0.0,0.0,0.0,0.0,0.0,0.0,0.0,0.0,0.0,0.0,0.0,0.0,0.0,0.0,0.0,0.0,0.0,0.0,0.0,0.0,0.0,0.0,0.0,0.0,0.0,0.0,0.0,0.0,0.0,0.0,0.0,0.0,0.0,0.0,0.0,0.0,0.0,0.0,0.0,0.0,0.0,0.0,0.0,0.0,0.0,0.0,-4.554,-4.5466,-4.54,0.0,0.0,0.0,0.0,0.0,0.0,0.0,0.0,0.0,0.0,0.0,0.0,0.0,0.0,0.0,0.0,0.0,0.0,0.0,0.0,0.0,0.0,0.0,0.0,0.0,0.0,0.0,0.0,0.0,0.0,0.0,0.0,0.0,0.0,0.0,0.0,0.0,0.0,0.0,0.0,0.0,0.0,0.0,0.0,0.0,0.0,0.0,0.0,0.0,0.0,0.0,0.0,0.0,0.0,0.0,0.0,0.0,0.0,0.0,0.0,0.0,0.0,0.0,0.0,0.0,0.0,0.0,0.0,0.0,0.0,0.0,0.0,0.0,0.0,0.0,0.0,0.0,0.0,0.0,0.0,0.0,0.0,0.0,0.0,0.0,0.0,0.0,0.0,0.0,0.0,0.0,0.0,0.0,0.0,0.0,0.0,0.0,0.0,0.0,0.0,0.0,0.0,0.0,0.0,0.0,0.0,0.0,0.0,0.0,0.0,-4.5594,-4.5594,-4.5586,0.0,-4.541,0.0,0.0,0.0,0.0,0.0,0.0,0.0,0.0,0.0,0.0,0.0,0.0,0.0,0.0,0.0,0.0,0.0,0.0,0.0,0.0,0.0,0.0,0.0,0.0,0.0,0.0,0.0,0.0,0.0,0.0,0.0,0.0,0.0,0.0,0.0,0.0,0.0,0.0,0.0,0.0,0.0,0.0,0.0,0.0,0.0,0.0,0.0,0.0,0.0,0.0,0.0,0.0,0.0,0.0,0.0,0.0,0.0,0.0,0.0,0.0,0.0,0.0,0.0,0.0,0.0,0.0,0.0,0.0,0.0,0.0,0.0,0.0,0.0,0.0,0.0,0.0,0.0,0.0,0.0,0.0,0.0,0.0,0.0,0.0,0.0,0.0,0.0,0.0,0.0,0.0,0.0,0.0,0.0,0.0,0.0,0.0,0.0,0.0,0.0,0.0,0.0,0.0,0.0,0.0,0.0,0.0,0.0,0.0,0.0,0.0,-4.5594,-4.5594,-4.5568,-4.5504,0.0,0.0,0.0,0.0,0.0,0.0,0.0,0.0,0.0,0.0,0.0,0.0,0.0,0.0,0.0,0.0,0.0,0.0,0.0,0.0,0.0,0.0,0.0,0.0,0.0,0.0,0.0,0.0,0.0,0.0,0.0,0.0,0.0,0.0,0.0,0.0,0.0,0.0,0.0,0.0,0.0,0.0,0.0,0.0,0.0,0.0,0.0,0.0,0.0,0.0,0.0,0.0,0.0,0.0,0.0,0.0,0.0,0.0,0.0,0.0,0.0,0.0,0.0,0.0,0.0,0.0,0.0,0.0,0.0,0.0,0.0,0.0,0.0,0.0,0.0,0.0,0.0,0.0,0.0,0.0,0.0,0.0,0.0,0.0,0.0,0.0,0.0,0.0,0.0,0.0,0.0,0.0,0.0,0.0,0.0,0.0,0.0,0.0,0.0,0.0,0.0,0.0,0.0,0.0,0.0,0.0,0.0,0.0,0.0,0.0,-4.5594,-4.5594,-4.5594,-4.5559,-4.5495,-4.541,0.0,0.0,0.0,0.0,0.0,0.0,0.0,0.0,0.0,0.0,0.0,0.0,0.0,0.0,0.0,0.0,0.0,0.0,0.0,0.0,0.0,0.0,0.0,0.0,0.0,0.0,0.0,0.0,0.0,0.0,0.0,0.0,0.0,0.0,0.0,0.0,0.0,0.0,0.0,0.0,0.0,0.0,0.0,0.0,0.0,0.0,0.0,0.0,0.0,0.0,0.0,0.0,0.0,0.0,0.0,0.0,0.0,0.0,0.0,0.0,0.0,0.0,0.0,0.0,0.0,0.0,0.0,0.0,0.0,0.0,0.0,0.0,0.0,0.0,0.0,0.0,0.0,0.0,0.0,0.0,0.0,0.0,0.0,0.0,0.0,0.0,0.0,0.0,0.0,0.0,0.0,0.0,0.0,0.0,0.0,0.0,0.0,0.0,0.0,0.0,0.0,0.0,0.0,0.0,0.0,0.0,0.0,0.0,-4.5594,-4.5594,-4.5594,-4.5594,-4.5586,-4.5522,0.0,0.0,0.0,0.0,0.0,0.0,0.0,0.0,0.0,0.0,0.0,0.0,0.0,0.0,0.0,0.0,0.0,0.0,0.0,0.0,0.0,0.0,0.0,0.0,0.0,0.0,0.0,0.0,0.0,0.0,0.0,0.0,0.0,0.0,0.0,0.0,0.0,0.0,0.0,0.0,0.0,0.0,0.0,0.0,0.0,0.0,0.0,0.0,0.0,0.0,0.0,0.0,0.0,0.0,0.0,0.0,0.0,0.0,0.0,0.0,0.0,0.0,0.0,0.0,0.0,0.0,0.0,0.0,0.0,0.0,0.0,0.0,0.0,0.0,0.0,0.0,0.0,0.0,0.0,0.0,0.0,0.0,0.0,0.0,0.0,0.0,0.0,0.0,0.0,0.0,0.0,0.0,0.0,0.0,0.0,0.0,0.0,0.0,0.0,0.0,0.0,0.0,0.0,0.0,0.0,0.0,0.0,0.0,0.0,-4.5594,-4.5594,-4.5594,-4.5594,-4.5594,-4.5531,0.0,0.0,0.0,0.0,0.0,0.0,0.0,0.0,0.0,0.0,0.0,0.0,0.0,0.0,0.0,0.0,0.0,0.0,0.0,0.0,0.0,0.0,0.0,0.0,0.0,0.0,0.0,0.0,0.0,0.0,0.0,0.0,0.0,0.0,0.0,0.0,0.0,0.0,0.0,0.0,0.0,0.0,0.0,0.0,0.0,0.0,0.0,0.0,0.0,0.0,0.0,0.0,0.0,0.0,0.0,0.0,0.0,0.0,0.0,0.0,0.0,0.0,0.0,0.0,0.0,0.0,0.0,0.0,0.0,0.0,0.0,0.0,0.0,0.0,0.0,0.0,0.0,0.0,0.0,0.0,0.0,0.0,0.0,0.0,0.0,0.0,0.0,0.0,0.0,0.0,0.0,0.0,0.0,0.0,0.0,0.0,0.0,0.0,0.0,0.0,0.0,0.0,0.0,0.0,0.0,0.0,0.0,0.0,0.0,-4.5594,0.0,-4.5594,-4.5594,-4.5594,-4.5531,0.0,0.0,0.0,0.0,0.0,0.0,0.0,0.0,0.0,0.0,0.0,0.0,0.0,0.0,0.0,0.0,0.0,0.0,0.0,0.0,0.0,0.0,0.0,0.0,0.0,0.0,0.0,0.0,0.0,0.0,0.0,0.0,0.0,0.0,0.0,0.0,0.0,0.0,0.0,0.0,0.0,0.0,0.0,0.0,0.0,0.0,0.0,0.0,0.0,0.0,0.0,0.0,0.0,0.0,0.0,0.0,0.0,0.0,0.0,0.0,0.0,0.0,0.0,0.0,0.0,0.0,0.0,0.0,0.0,0.0,0.0,0.0,0.0,0.0,0.0,0.0,0.0,0.0,0.0,0.0,0.0,0.0,0.0,0.0,0.0,0.0,0.0,0.0,0.0,0.0,0.0,0.0,0.0,0.0,0.0,0.0,0.0,0.0,0.0,0.0,0.0,0.0,0.0,0.0,0.0,0.0,0.0,0.0,-4.5594,-4.5594,-4.5594,-4.5594,-4.5594,-4.5594,-4.5531,0.0,0.0,0.0,0.0,0.0,0.0,0.0,0.0,0.0,0.0,0.0,0.0,0.0,0.0,0.0,0.0,0.0,0.0,0.0,0.0,0.0,0.0,0.0,0.0,0.0,0.0,0.0,0.0,0.0,0.0,0.0,0.0,0.0,0.0,0.0,0.0,0.0,0.0,0.0,0.0,0.0,0.0,0.0,0.0,0.0,0.0,0.0,0.0,0.0,0.0,0.0,0.0,0.0,0.0,0.0,0.0,0.0,0.0,0.0,0.0,0.0,0.0,0.0,0.0,0.0,0.0,0.0,0.0,0.0,0.0,0.0,0.0,0.0,0.0,0.0,0.0,0.0,0.0,0.0,0.0,0.0,0.0,0.0,0.0,0.0,0.0,0.0,0.0,0.0,0.0,0.0,0.0,0.0,0.0,0.0,0.0,0.0,0.0,0.0,0.0,0.0,0.0,0.0,0.0,0.0,0.0,0.0,0.0,0.0,-4.5594,-4.5594,-4.5594,-4.5594,-4.5594,-4.5568,0.0,0.0,0.0,0.0,0.0,0.0,0.0,0.0,0.0,0.0,0.0,0.0,0.0,0.0,0.0,0.0,0.0,0.0,0.0,0.0,0.0,0.0,0.0,0.0,0.0,0.0,0.0,0.0,0.0,0.0,0.0,0.0,0.0,0.0,0.0,0.0,0.0,0.0,0.0,0.0,0.0,0.0,0.0,0.0,0.0,0.0,0.0,0.0,0.0,0.0,0.0,0.0,0.0,0.0,0.0,0.0,0.0,0.0,0.0,0.0,0.0,0.0,0.0,0.0,0.0,0.0,0.0,0.0,0.0,0.0,0.0,0.0,0.0,0.0,0.0,0.0,0.0,0.0,0.0,0.0,0.0,0.0,0.0,0.0,0.0,0.0,0.0,0.0,0.0,0.0,0.0,0.0,0.0,0.0,0.0,0.0,0.0,0.0,0.0,0.0,0.0,0.0,0.0,0.0,0.0,0.0,0.0,0.0,0.0,-4.5594,-4.5594,-4.5594,-4.5594,-4.5594,-4.5568,-4.5504,0.0,0.0,0.0,0.0,0.0,0.0,0.0,0.0,0.0,0.0,0.0,0.0,0.0,0.0,0.0,0.0,0.0,0.0,0.0,0.0,0.0,0.0,0.0,0.0,0.0,0.0,0.0,0.0,0.0,0.0,0.0,0.0,0.0,0.0,0.0,0.0,0.0,0.0,0.0,0.0,0.0,0.0,0.0,0.0,0.0,0.0,0.0,0.0,0.0,0.0,0.0,0.0,0.0,0.0,0.0,0.0,0.0,0.0,0.0,0.0,0.0,0.0,0.0,0.0,0.0,0.0,0.0,0.0,0.0,0.0,0.0,0.0,0.0,0.0,0.0,0.0,0.0,0.0,0.0,0.0,0.0,0.0,0.0,0.0,0.0,0.0,0.0,0.0,0.0,0.0,0.0,0.0,0.0,0.0,0.0,0.0,0.0,0.0,0.0,0.0,0.0,0.0,0.0,0.0,0.0,0.0,0.0,0.0,-4.5594,-4.5594,-4.5594,-4.5594,-4.5594,-4.5568,0.0,0.0,0.0,0.0,0.0,0.0,0.0,0.0,0.0,0.0,0.0,0.0,0.0,0.0,0.0,0.0,0.0,0.0,0.0,0.0,0.0,0.0,0.0,0.0,0.0,0.0,0.0,0.0,0.0,0.0,0.0,0.0,0.0,0.0,0.0,0.0,0.0,0.0,0.0,0.0,0.0,0.0,0.0,0.0,0.0,0.0,0.0,0.0,0.0,0.0,0.0,0.0,0.0,0.0,0.0,0.0,0.0,0.0,0.0,0.0,0.0,0.0,0.0,0.0,0.0,0.0,0.0,0.0,0.0,0.0,0.0,0.0,0.0,0.0,0.0,0.0,0.0,0.0,0.0,0.0,0.0,0.0,0.0,0.0,0.0,0.0,0.0,0.0,0.0,0.0,0.0,0.0,0.0,0.0,0.0,0.0,0.0,0.0,0.0,0.0,0.0,0.0,0.0,0.0,0.0,0.0,0.0,0.0,0.0,-4.5594,-4.5594,-4.5594,-4.5594,-4.5594,-4.5586,0.0,0.0,0.0,0.0,0.0,0.0,0.0,0.0,0.0,0.0,0.0,0.0,0.0,0.0,0.0,0.0,0.0,0.0,0.0,0.0,0.0,0.0,0.0,0.0,0.0,0.0,0.0,0.0,0.0,0.0,0.0,0.0,0.0,0.0,0.0,0.0,0.0,0.0,0.0,0.0,0.0,0.0,0.0,0.0,0.0,0.0,0.0,0.0,0.0,0.0,0.0,0.0,0.0,0.0,0.0,0.0,0.0,0.0,0.0,0.0,0.0,0.0,0.0,0.0,0.0,0.0,0.0,0.0,0.0,0.0,0.0,0.0,0.0,0.0,0.0,0.0,0.0,0.0,0.0,0.0,0.0,0.0,0.0,0.0,0.0,0.0,0.0,0.0,0.0,0.0,0.0,0.0,0.0,0.0,0.0,0.0,0.0,0.0,0.0,0.0,0.0,0.0,0.0,0.0,0.0,0.0,0.0,0.0,-4.5594,-4.5594,-4.5594,-4.5594,-4.5594,-4.5594,-4.5605,0.0,0.0,0.0,0.0,0.0,0.0,0.0,0.0,0.0,0.0,0.0,0.0,0.0,0.0,0.0,0.0,0.0,0.0,0.0,0.0,0.0,0.0,0.0,0.0,0.0,0.0,0.0,0.0,0.0,0.0,0.0,0.0,0.0,0.0,0.0,0.0,0.0,0.0,0.0,0.0,0.0,0.0,0.0,0.0,0.0,0.0,0.0,0.0,0.0,0.0,0.0,0.0,0.0,0.0,0.0,0.0,0.0,0.0,0.0,0.0,0.0,0.0,0.0,0.0,0.0,0.0,0.0,0.0,0.0,0.0,0.0,0.0,0.0,0.0,0.0,0.0,0.0,0.0,0.0,0.0,0.0,0.0,0.0,0.0,0.0,0.0,0.0,0.0,0.0,0.0,0.0,0.0,0.0,0.0,0.0,0.0,0.0,0.0,0.0,0.0,0.0,0.0,0.0,0.0,0.0,0.0,0.0,0.0,-4.5594,-4.5594,-4.5594,-4.5594,-4.5594,-4.5594,-4.5568,0.0,0.0,0.0,0.0,0.0,0.0,0.0,0.0,0.0,0.0,0.0,0.0,0.0,0.0,0.0,0.0,0.0,0.0,0.0,0.0,0.0,0.0,0.0,0.0,0.0,0.0,0.0,0.0,0.0,0.0,0.0,0.0,0.0,0.0,0.0,0.0,0.0,0.0,0.0,0.0,0.0,0.0,0.0,0.0,0.0,0.0,0.0,0.0,0.0,0.0,0.0,0.0,0.0,0.0,0.0,0.0,0.0,0.0,0.0,0.0,0.0,0.0,0.0,0.0,0.0,0.0,0.0,0.0,0.0,0.0,0.0,0.0,0.0,0.0,0.0,0.0,0.0,0.0,0.0,0.0,0.0,0.0,0.0,0.0,0.0,0.0,0.0,0.0,0.0,0.0,0.0,0.0,0.0,0.0,0.0,0.0,0.0,0.0,0.0,0.0,0.0,0.0,0.0,0.0,0.0,0.0,0.0,0.0,-4.5594,-4.5594,-4.5594,-4.5594,-4.5594,-4.5594,-4.5568,0.0,0.0,0.0,0.0,0.0,0.0,0.0,0.0,0.0,0.0,0.0,0.0,0.0,0.0,0.0,0.0,0.0,0.0,0.0,0.0,0.0,0.0,0.0,0.0,0.0,0.0,0.0,0.0,0.0,0.0,0.0,0.0,0.0,0.0,0.0,0.0,0.0,0.0,0.0,0.0,0.0,0.0,0.0,0.0,0.0,0.0,0.0,0.0,-3.8707,0.0,0.0,0.0,0.0,0.0,0.0,0.0,0.0,0.0,0.0,0.0,0.0,0.0,0.0,0.0,0.0,0.0,0.0,0.0,0.0,0.0,0.0,0.0,0.0,0.0,0.0,0.0,0.0,0.0,0.0,0.0,0.0,0.0,0.0,0.0,0.0,0.0,0.0,0.0,0.0,0.0,0.0,0.0,0.0,0.0,0.0,0.0,0.0,0.0,0.0,0.0,0.0,0.0,0.0,0.0,0.0,0.0,0.0,0.0,-4.5594,-4.5594,-4.5594,-4.5594,-4.5594,-4.5594,-4.5568,0.0,0.0,0.0,0.0,0.0,0.0,0.0,0.0,0.0,0.0,0.0,0.0,0.0,0.0,0.0,0.0,0.0,0.0,0.0,0.0,0.0,0.0,0.0,0.0,0.0,0.0,0.0,0.0,0.0,0.0,0.0,0.0,0.0,0.0,0.0,0.0,0.0,0.0,0.0,0.0,0.0,0.0,0.0,0.0,0.0,0.0,0.0,0.0,0.0,0.0,0.0,0.0,0.0,0.0,0.0,0.0,0.0,0.0,0.0,0.0,0.0,0.0,0.0,0.0,0.0,0.0,0.0,0.0,0.0,0.0,0.0,0.0,0.0,0.0,0.0,0.0,0.0,0.0,0.0,0.0,0.0,0.0,0.0,0.0,0.0,0.0,0.0,0.0,0.0,0.0,0.0,0.0,0.0,0.0,0.0,0.0,0.0,0.0,0.0,0.0,0.0,0.0,0.0,0.0,0.0,0.0,0.0,-4.5594,-4.5594,-4.5594,-4.5594,-4.5594,-4.5594,-4.5594,-4.5568,-4.5513,0.0,0.0,0.0,0.0,0.0,0.0,0.0,0.0,0.0,0.0,0.0,0.0,0.0,0.0,0.0,0.0,0.0,0.0,0.0,0.0,0.0,0.0,0.0,0.0,0.0,0.0,0.0,0.0,0.0,0.0,0.0,0.0,0.0,0.0,0.0,0.0,0.0,0.0,-3.9007,-3.9026,0.0,0.0,0.0,0.0,0.0,0.0,0.0,0.0,-3.8807,0.0,0.0,0.0,0.0,0.0,0.0,0.0,0.0,0.0,0.0,0.0,0.0,0.0,0.0,0.0,0.0,0.0,0.0,0.0,0.0,0.0,0.0,0.0,0.0,0.0,0.0,0.0,0.0,0.0,0.0,0.0,0.0,0.0,0.0,0.0,0.0,0.0,0.0,0.0,0.0,0.0,0.0,0.0,0.0,0.0,0.0,0.0,0.0,0.0,0.0,0.0,0.0,0.0,0.0,0.0,0.0,-4.5594,-4.5594,-4.5594,-4.5594,-4.5594,-4.5594,-4.5594,-4.5594,-4.5586,-4.5577,0.0,0.0,0.0,0.0,0.0,0.0,0.0,0.0,0.0,0.0,0.0,0.0,0.0,0.0,0.0,0.0,0.0,0.0,0.0,0.0,0.0,0.0,0.0,0.0,0.0,0.0,0.0,0.0,0.0,0.0,0.0,0.0,0.0,0.0,0.0,0.0,0.0,0.0,0.0,-3.9087,-3.9059,0.0,0.0,0.0,0.0,0.0,0.0,0.0,0.0,-3.8788,0.0,0.0,0.0,0.0,0.0,0.0,0.0,0.0,0.0,0.0,0.0,0.0,0.0,0.0,0.0,0.0,0.0,0.0,0.0,0.0,0.0,0.0,0.0,0.0,0.0,0.0,0.0,0.0,0.0,0.0,0.0,0.0,0.0,0.0,0.0,0.0,0.0,0.0,0.0,0.0,0.0,0.0,0.0,0.0,0.0,0.0,0.0,0.0,0.0,0.0,0.0,0.0,0.0,0.0,0.0,-4.5594,-4.5594,-4.5594,-4.5594,-4.5594,-4.5594,-4.5594,-4.5594,-4.5594,0.0,0.0,0.0,0.0,0.0,0.0,0.0,0.0,0.0,0.0,0.0,0.0,0.0,0.0,0.0,0.0,0.0,0.0,0.0,0.0,0.0,0.0,0.0,0.0,0.0,0.0,0.0,0.0,0.0,0.0,0.0,0.0,0.0,0.0,0.0,0.0,0.0,0.0,0.0,0.0,-3.9101,-3.9073,-3.9007,0.0,0.0,0.0,0.0,0.0,0.0,-3.891,-3.8866,0.0,0.0,0.0,0.0,0.0,0.0,0.0,0.0,0.0,0.0,0.0,0.0,0.0,0.0,0.0,0.0,0.0,0.0,0.0,0.0,0.0,0.0,0.0,0.0,0.0,0.0,0.0,0.0,0.0,0.0,0.0,0.0,0.0,0.0,0.0,0.0,0.0,0.0,0.0,0.0,0.0,0.0,0.0,0.0,0.0,0.0,0.0,0.0,0.0,0.0,0.0,0.0,0.0,0.0,0.0,-4.5594,-4.5594,-4.5594,-4.5594,-4.5594,-4.5594,-4.5594,-4.5594,-4.5594,0.0,0.0,0.0,0.0,0.0,0.0,0.0,0.0,0.0,0.0,0.0,0.0,0.0,0.0,0.0,0.0,0.0,0.0,0.0,0.0,0.0,0.0,0.0,0.0,0.0,0.0,0.0,0.0,0.0,0.0,0.0,0.0,0.0,0.0,0.0,0.0,0.0,0.0,0.0,0.0,0.0,-3.9092,-3.9036,-3.917,0.0,0.0,0.0,0.0,-3.9058,-3.8964,0.0,0.0,0.0,0.0,0.0,0.0,0.0,0.0,0.0,0.0,0.0,0.0,0.0,0.0,0.0,0.0,0.0,0.0,0.0,0.0,0.0,0.0,0.0,0.0,0.0,0.0,0.0,0.0,0.0,0.0,0.0,0.0,0.0,0.0,0.0,0.0,0.0,0.0,0.0,0.0,0.0,0.0,0.0,0.0,0.0,0.0,0.0,0.0,0.0,0.0,0.0,0.0,0.0,0.0,0.0,0.0,-4.5594,-4.5594,-4.5594,-4.5594,-4.5594,-4.5594,-4.5594,-4.5594,-4.5594,0.0,0.0,0.0,0.0,0.0,0.0,0.0,0.0,0.0,0.0,0.0,0.0,0.0,0.0,0.0,0.0,0.0,0.0,0.0,0.0,0.0,0.0,0.0,0.0,0.0,0.0,0.0,0.0,0.0,0.0,0.0,0.0,0.0,0.0,0.0,0.0,0.0,0.0,0.0,0.0,0.0,-3.9101,-3.9087,-3.9756,-3.996,0.0,0.0,-3.9974,-3.9217,-3.9017,0.0,0.0,0.0,0.0,0.0,0.0,0.0,0.0,0.0,0.0,0.0,0.0,0.0,0.0,0.0,0.0,0.0,0.0,0.0,0.0,0.0,0.0,0.0,0.0,0.0,0.0,0.0,0.0,0.0,0.0,0.0,0.0,0.0,0.0,0.0,0.0,0.0,0.0,0.0,0.0,0.0,0.0,0.0,0.0,0.0,0.0,0.0,0.0,0.0,0.0,0.0,0.0,0.0,0.0,0.0,-4.5594,-4.5594,-4.5594,-4.5594,-4.5594,-4.5594,-4.5594,-4.5594,-4.5594,-4.5594,0.0,0.0,0.0,0.0,0.0,0.0,0.0,0.0,0.0,0.0,0.0,0.0,0.0,0.0,0.0,0.0,0.0,0.0,0.0,0.0,0.0,0.0,0.0,0.0,0.0,0.0,0.0,0.0,0.0,0.0,0.0,0.0,0.0,0.0,0.0,0.0,0.0,0.0,0.0,0.0,0.0,0.0,-3.9101,-3.9825,0.0,0.0,0.0,-4.01,-3.9231,0.0,0.0,0.0,0.0,0.0,0.0,0.0,0.0,0.0,0.0,0.0,0.0,0.0,0.0,0.0,0.0,0.0,0.0,0.0,0.0,0.0,0.0,0.0,0.0,0.0,0.0,0.0,0.0,0.0,0.0,0.0,0.0,0.0,0.0,0.0,0.0,0.0,0.0,0.0,0.0,0.0,0.0,0.0,0.0,0.0,0.0,0.0,0.0,0.0,0.0,0.0,0.0,0.0,0.0,0.0,0.0,0.0,-4.5594,-4.5594,-4.5594,-4.5594,-4.5594,-4.5594,-4.5594,-4.5594,0.0,0.0,0.0,0.0,0.0,0.0,0.0,0.0,0.0,0.0,0.0,0.0,0.0,0.0,0.0,0.0,0.0,0.0,0.0,0.0,0.0,0.0,0.0,0.0,0.0,0.0,0.0,-3.905,0.0,0.0,0.0,0.0,0.0,0.0,0.0,0.0,0.0,0.0,0.0,0.0,0.0,0.0,-3.9101,-3.9101,-3.9844,-4.0085,0.0,0.0,-4.0118,-3.9231,-3.9064,-3.9021,0.0,0.0,0.0,0.0,0.0,0.0,0.0,0.0,0.0,0.0,0.0,0.0,0.0,0.0,0.0,0.0,0.0,0.0,0.0,0.0,0.0,0.0,0.0,0.0,0.0,0.0,0.0,0.0,0.0,0.0,0.0,0.0,0.0,0.0,0.0,0.0,0.0,0.0,0.0,0.0,0.0,0.0,0.0,0.0,0.0,0.0,0.0,0.0,0.0,0.0,0.0,0.0,0.0,0.0,0.0,-4.5594,-4.5594,-4.5594,-4.5594,-4.5594,-4.5594,-4.5594,-4.5594,-4.5594,0.0,0.0,0.0,0.0,0.0,0.0,0.0,0.0,0.0,0.0,0.0,0.0,0.0,0.0,0.0,0.0,0.0,0.0,0.0,0.0,0.0,0.0,0.0,0.0,0.0,0.0,0.0,0.0,0.0,0.0,0.0,0.0,0.0,0.0,0.0,0.0,0.0,0.0,0.0,0.0,0.0,-3.9101,-3.9101,-3.9844,-4.0085,0.0,0.0,-4.0085,-3.9231,-3.9101,-3.9087,-3.9087,0.0,0.0,0.0,0.0,0.0,0.0,0.0,0.0,0.0,0.0,0.0,0.0,0.0,0.0,0.0,0.0,0.0,0.0,0.0,0.0,0.0,0.0,0.0,0.0,0.0,0.0,0.0,0.0,0.0,0.0,0.0,0.0,0.0,0.0,0.0,0.0,0.0,0.0,0.0,0.0,0.0,0.0,0.0,0.0,0.0,0.0,0.0,0.0,0.0,0.0,0.0,0.0,0.0,-4.5594,-4.5594,-4.5594,-4.5594,-4.5594,-4.5594,-4.5594,-4.5594,-4.5594,-4.5344,0.0,0.0,0.0,0.0,0.0,0.0,0.0,0.0,0.0,0.0,0.0,0.0,0.0,0.0,0.0,0.0,0.0,0.0,0.0,0.0,0.0,0.0,0.0,0.0,0.0,0.0,0.0,0.0,-3.9101,-3.9101,-3.9101,0.0,0.0,0.0,0.0,0.0,0.0,0.0,0.0,0.0,0.0,-3.9101,-3.9101,-3.9844,0.0,0.0,-3.9844,-4.0085,-3.9231,-3.9101,-3.9101,-3.9101,-3.9092,0.0,0.0,0.0,0.0,0.0,0.0,0.0,0.0,0.0,0.0,0.0,0.0,0.0,0.0,0.0,0.0,0.0,0.0,0.0,0.0,0.0,0.0,0.0,0.0,0.0,0.0,0.0,0.0,0.0,0.0,0.0,0.0,0.0,0.0,0.0,0.0,0.0,0.0,0.0,0.0,0.0,0.0,0.0,0.0,0.0,0.0,0.0,0.0,0.0,0.0,0.0,0.0,-4.5603,-4.5631,-4.5622,-4.5622,-4.5631,-4.5622,-4.5594,-4.5594,-4.5344,-4.4932,0.0,0.0,0.0,0.0,0.0,0.0,0.0,0.0,0.0,0.0,0.0,0.0,0.0,0.0,0.0,0.0,0.0,0.0,0.0,0.0,0.0,0.0,0.0,0.0,0.0,0.0,0.0,0.0,-3.9101,-3.9101,-3.9101,0.0,0.0,0.0,0.0,0.0,0.0,0.0,0.0,0.0,0.0,-3.9101,-3.9101,-3.9825,-4.0178,-3.9565,-4.0197,-4.0531,-3.9937,-3.964,-3.9472,-3.9491,0.0,0.0,0.0,0.0,0.0,0.0,0.0,0.0,0.0,0.0,0.0,0.0,0.0,0.0,0.0,0.0,0.0,0.0,0.0,0.0,0.0,0.0,0.0,0.0,0.0,0.0,0.0,0.0,0.0,0.0,0.0,0.0,0.0,0.0,0.0,0.0,0.0,0.0,0.0,0.0,0.0,0.0,0.0,0.0,0.0,0.0,0.0,0.0,0.0,0.0,0.0,0.0,0.0,-4.5612,-4.5693,-4.562,-4.5631,-4.5693,-4.5631,-4.5594,-4.5575,-4.4778,-4.4297,-4.4259,0.0,0.0,0.0,0.0,0.0,0.0,0.0,0.0,0.0,0.0,0.0,0.0,0.0,0.0,0.0,0.0,0.0,0.0,0.0,0.0,0.0,0.0,0.0,0.0,0.0,0.0,-3.9101,-3.9101,-3.9101,0.0,0.0,0.0,0.0,0.0,0.0,0.0,0.0,0.0,0.0,-3.9101,-3.9101,-3.9101,-3.9844,-4.0378,-4.0327,-4.0996,-4.1516,-4.1441,-4.0843,-4.0378,0.0,0.0,0.0,0.0,0.0,0.0,0.0,0.0,0.0,0.0,0.0,0.0,0.0,0.0,0.0,0.0,0.0,0.0,0.0,0.0,0.0,0.0,0.0,0.0,0.0,0.0,0.0,0.0,-4.6289,0.0,0.0,0.0,0.0,0.0,0.0,0.0,0.0,0.0,0.0,0.0,-4.5807,-4.5807,0.0,0.0,0.0,0.0,0.0,0.0,0.0,0.0,0.0,0.0,0.0,0.0,-4.5631,-4.5693,-4.562,-4.564,-4.5682,-4.562,-4.5594,-4.5594,-4.4759,-4.3778,-4.2662,0.0,0.0,0.0,0.0,0.0,0.0,0.0,0.0,0.0,0.0,0.0,0.0,0.0,0.0,0.0,0.0,0.0,0.0,0.0,0.0,0.0,0.0,0.0,0.0,0.0,-3.9101,0.0,0.0,0.0,0.0,0.0,0.0,0.0,0.0,0.0,0.0,0.0,-3.9101,-3.9101,-3.9584,-3.9751,-3.9194,-3.9844,-4.0178,0.0,0.0,0.0,0.0,0.0,0.0,0.0,0.0,0.0,0.0,0.0,0.0,0.0,0.0,-3.6849,-3.6722,-3.6681,-3.6623,-3.6623,0.0,0.0,0.0,0.0,0.0,0.0,0.0,0.0,0.0,0.0,0.0,0.0,0.0,0.0,0.0,0.0,-4.6165,0.0,0.0,0.0,0.0,0.0,0.0,0.0,0.0,-4.5807,-4.5807,-4.5807,-4.5807,-4.5807,0.0,-4.5807,-4.5812,0.0,0.0,0.0,0.0,0.0,0.0,0.0,0.0,-4.5665,-4.5722,-4.5665,-4.5657,-4.5679,-4.5648,-4.5594,-4.5575,-4.4489,-4.3085,-4.1412,-4.0804,-4.0496,0.0,0.0,0.0,0.0,0.0,0.0,0.0,0.0,0.0,0.0,0.0,0.0,0.0,0.0,0.0,0.0,0.0,0.0,0.0,0.0,0.0,0.0,0.0,-3.9124,0.0,0.0,0.0,0.0,0.0,0.0,0.0,0.0,0.0,-3.9101,-3.9101,-3.9101,-3.9101,-3.9584,-3.9733,-3.9175,0.0,0.0,0.0,0.0,0.0,0.0,0.0,-4.0911,-4.0,-3.9949,-3.9597,-3.834,-3.7939,-3.7775,-3.7694,0.0,0.0,-3.6913,-3.6766,-3.6745,-3.6742,-3.7026,-3.7186,-3.6936,-3.7218,-3.7448,0.0,0.0,0.0,0.0,0.0,0.0,0.0,0.0,-4.6238,-4.6207,0.0,-4.6068,0.0,0.0,0.0,0.0,0.0,0.0,0.0,0.0,-4.5807,-4.5807,-4.5807,-4.5807,-4.5807,-4.5807,-4.5807,-4.5807,-4.58,-4.5803,0.0,0.0,0.0,0.0,0.0,0.0,-4.573,-4.58,-4.575,-4.5706,-4.57,-4.5646,-4.5575,-4.5498,-4.3951,-4.2335,-4.0669,-4.0535,-4.0496,-4.0496,-4.0496,0.0,0.0,0.0,0.0,0.0,0.0,0.0,0.0,0.0,0.0,0.0,0.0,0.0,0.0,0.0,0.0,0.0,0.0,0.0,0.0,-3.9178,0.0,0.0,0.0,0.0,0.0,0.0,0.0,0.0,0.0,0.0,-3.9115,-3.9101,-3.9101,-3.9138,0.0,0.0,0.0,0.0,-4.1627,-4.1571,-4.289,-4.3856,-4.3838,-4.3243,-4.2616,-4.2189,0.0,0.0,-3.9415,-3.9305,-3.9252,-3.9284,-3.9213,-3.8831,-3.7356,-3.7064,-3.6948,-3.6948,-3.6975,-3.7029,-3.7494,-3.7698,-3.7863,-5.0424,0.0,0.0,0.0,0.0,-4.6562,-4.6289,-4.6289,-4.6268,-4.6267,-4.6266,-4.6171,0.0,0.0,0.0,0.0,0.0,0.0,-4.5807,-4.5807,-4.5807,-4.5807,-4.5807,-4.5807,-4.5807,-4.5807,-4.5807,-4.5807,-4.5807,-4.5812,-4.5783,-4.5777,0.0,0.0,0.0,0.0,-4.5735,-4.5781,-4.5735,-4.5708,-4.5773,-4.57,-4.5382,-4.4771,-4.366,-4.2601,-4.1536,-4.0858,-4.0523,-4.0554,-4.0531,0.0,0.0,0.0,0.0,0.0,0.0,0.0,0.0,0.0,0.0,0.0,0.0,0.0,0.0,0.0,0.0,0.0,0.0,0.0,-3.9129,-3.917,-3.9178,0.0,0.0,0.0,0.0,0.0,0.0,0.0,0.0,0.0,-3.932,-3.9188,-3.9324,0.0,0.0,-4.0884,-4.0884,-4.1794,-4.224,-4.1698,0.0,0.0,0.0,-4.2575,-4.2486,-4.156,-4.0654,-3.986,-3.937,-3.9322,-3.9322,-3.9322,-3.9322,-3.9147,-3.8796,-3.8596,-3.8576,-3.8576,-3.8492,-3.844,-3.8581,-3.8525,-3.8486,-5.1118,-5.0542,-4.8824,-4.7908,-4.7519,-4.6679,-4.6289,-4.6289,-4.6267,-4.6265,-4.6263,-4.6158,-4.6098,-4.6048,-4.5961,0.0,0.0,0.0,-4.5807,-4.5807,-4.5807,-4.5807,-4.5807,-4.5807,-4.5807,-4.5807,-4.5807,-4.5807,-4.5807,-4.5807,-4.5812,-4.581,0.0,0.0,-4.575,-4.575,-4.5773,-4.581,-4.5754,-4.5746,-4.5807,-4.5731,-4.5287,-4.4453,-4.3582,-4.2745,-4.192,-4.1019,-4.0557,-4.0591,-4.0557,-4.0523,0.0,0.0,0.0,0.0,0.0,0.0,0.0,0.0,0.0,0.0,0.0,-3.9183,0.0,0.0,0.0,0.0,-3.9275,-3.9256,-3.9275,-3.9301,0.0,0.0,0.0,0.0,0.0,0.0,0.0,-4.0104,-3.9717,-3.953,-3.9874,-3.9786,-3.9891,-4.0384,-4.1128,-4.1634,-4.1605,0.0,-4.263,-4.2129,-4.2352,-4.2537,-4.2556,-4.2946,-4.2921,-4.1929,-4.125,-4.0686,-4.0303,-4.0217,-4.0217,-4.0217,-4.0217,-4.0196,-4.0217,-4.0196,-3.9989,-3.9424,-3.9242,-3.9227,-3.9473,-3.9395,-3.9349,-5.14,-5.1273,-4.9656,-4.8529,-4.7732,-4.6873,-4.6523,-4.6504,-4.6434,-4.6383,-4.6319,-4.6174,-4.6071,-4.6007,-4.5854,0.0,0.0,-4.5807,-4.5807,-4.5807,-4.5807,-4.5807,-4.5807,-4.5807,-4.5807,-4.5807,-4.5807,-4.5807,-4.5807,-4.5807,-4.5807,-4.5807,-4.581,-4.5815,-4.5807,-4.5815,-4.581,-4.58,-4.581,-4.5807,-4.5815,-4.5731,-4.5341,-4.4608,-4.3759,-4.2891,-4.2022,-4.1174,-4.0672,-4.0614,-4.0595,-4.0588,-4.0588,0.0,0.0,0.0,0.0,0.0,0.0,0.0,0.0,0.0,0.0,0.0,0.0,0.0,0.0,0.0,-3.9469,0.0,-3.9495,-3.9495,0.0,0.0,0.0,-3.9405,-3.9399,-3.9399,-3.9449,-3.9589,0.0,0.0,0.0,0.0,-4.0811,-4.0714,-4.1329,-4.1804,-4.1805,-4.2463,-4.289,-4.289,-4.3503,-4.3986,-4.3838,-4.3862,-4.3568,-4.2832,-4.2462,-4.1982,-4.1591,-4.1516,-4.1569,-4.1499,-4.1587,-4.1552,-4.1587,-4.1481,-4.1165,-3.9796,-3.9529,-3.9719,-4.0241,-4.0284,-4.0346,-5.1396,-5.1301,-5.0248,-4.969,-4.9447,-4.863,-4.828,-4.828,-4.8281,-4.7889,-4.7283,-4.7237,-4.6791,-4.6064,-4.5872,-4.5807,-4.5807,-4.5807,-4.5807,-4.5807,-4.5807,-4.5807,-4.5807,-4.5807,-4.5807,-4.5807,-4.5807,-4.5807,-4.5807,-4.5807,-4.5807,-4.5807,-4.5819,-4.5812,-4.5812,-4.5812,-4.5819,-4.5807,-4.5819,-4.5812,-4.5812,-4.5776,-4.5696,-4.5503,-4.4642,-4.3793,-4.2927,-4.2056,-4.1296,-4.0706,-4.0628,-4.0588,-4.0588,-4.0588,0.0,0.0,0.0,0.0,0.0,0.0,0.0,0.0,0.0,-3.9399,-3.9341,0.0,-3.9425,0.0,-3.9546,-3.9546,-3.9425,-3.9469,0.0,0.0,-3.9444,-3.9444,-3.9546,-3.9489,-3.972,-4.0402,-4.0477,-4.0777,-4.1597,-4.224,-4.2626,-4.2562,-4.258,-4.2861,-4.3461,-4.3642,-4.3726,-4.3708,-4.3856,-4.4005,-4.3989,-4.3744,-4.3388,-4.2867,-4.2462,-4.2071,-4.1675,-4.1604,-4.1604,-4.1604,-4.1604,-4.1604,-4.1604,-4.1604,-4.1499,-4.1148,-4.106,-4.1051,-4.1128,-4.1101,-4.108,-5.1746,-5.1355,-5.0887,-5.0678,-5.0589,-4.9365,-4.8863,-4.8885,-4.8886,-4.8633,-4.8183,-4.8093,-4.7711,-4.7187,-4.7023,-4.6941,-4.696,-4.6941,-4.696,-4.696,-4.696,-4.696,-4.696,-4.696,-4.696,-4.696,-4.6941,-4.6748,-4.6399,-4.638,-4.6187,-4.5807,-4.5807,-4.5807,-4.5807,-4.5807,-4.5807,-4.5807,-4.5807,-4.5807,-4.5807,-4.5805,-4.5817,-4.5791,-4.4977,-4.4312,-4.3831,-4.2619,-4.175,-4.13,-4.09,-4.0681,-4.07,-4.0681,-4.0674,0.0,0.0,0.0,0.0,0.0,0.0,0.0,0.0,0.0,0.0,0.0,-3.9495,0.0,-3.954,0.0,-3.9489,-3.952,-3.9546,-3.9546,-3.9502,-3.9664,-4.0084,-4.0115,-4.0402,-4.1235,-4.1329,-4.1648,-4.2474,-4.2994,-4.3412,-4.3713,-4.3666,-4.3729,-4.4114,-4.4177,-4.4131,-4.4131,-4.4116,-4.407,-4.4023,-4.366,-4.3265,-4.2866,-4.2462,-4.2071,-4.1692,-4.1604,-4.1604,-4.1604,-4.1604,-4.1604,-4.1604,-4.1604,-4.1604,-4.1604,-4.1604,-4.156,-4.1493,-4.1448,-4.1358,-5.2253,-5.157,-5.1453,-5.1394,-5.1277,-4.9763,-4.9169,-4.9216,-4.9216,-4.9159,-4.9043,-4.8738,-4.8584,-4.851,-4.8432,-4.8413,-4.8392,-4.8411,-4.8411,-4.8411,-4.8411,-4.8411,-4.8411,-4.8411,-4.8411,-4.8411,-4.8411,-4.8005,-4.727,-4.727,-4.6864,-4.6174,-4.6136,-4.6058,-4.5981,-4.5962,-4.5923,-4.5807,-4.5807,-4.5807,-4.5807,-4.5807,-4.5807,-4.5761,-4.5123,-4.471,-4.4581,-4.315,-4.2222,-4.199,-4.1332,-4.0913,-4.0797,-4.0797,-4.0784,0.0,-4.0345,0.0,0.0,0.0,0.0,0.0,0.0,0.0,0.0,-3.9527,-3.9527,-3.9508,-3.9552,-3.9608,-3.9608,-3.9608,-3.9627,-3.9758,-3.9758,-4.0059,-4.0854,-4.0947,-4.1254,-4.2061,-4.2155,-4.2474,-4.3313,-4.3444,-4.3745,-4.4313,-4.4383,-4.4327,-4.4344,-4.43,-4.4285,-4.4318,-4.4259,-4.4165,-4.4005,-4.3627,-4.3212,-4.2829,-4.2382,-4.2026,-4.1653,-4.1604,-4.1604,-4.1604,-4.1604,-4.1604,-4.1604,-4.1604,-4.1604,-4.1604,-4.1604,-4.1604,-4.1582,-4.1515,-4.1426,-5.2607,-5.2392,-5.1707,-5.1394,-5.1375,-5.1045,-5.0915,-5.0925,-5.093,-5.0563,-4.9902,-4.9124,-4.87,-4.8565,-4.851,-4.8471,-4.8392,-4.8411,-4.8411,-4.8411,-4.8411,-4.8411,-4.8411,-4.8411,-4.8411,-4.8411,-4.8411,-4.8314,-4.814,-4.814,-4.8063,-4.7908,-4.7908,-4.754,-4.6883,0.0,0.0,0.0,-4.5807,-4.5807,-4.5807,-4.5807,-4.5807,-4.5807,-4.5652,0.0,-4.4632,-4.4284,-4.346,-4.2086,-4.1854,0.0,0.0,0.0,0.0,0.0,0.0,0.0,0.0,0.0,0.0,0.0,-3.9668,-3.9583,-3.9583,-3.9596,-3.9583,-3.9596,-3.9589,-3.9608,-3.9608,-3.9608,-3.9871,-4.0478,-4.0572,-4.0891,-4.1648,-4.1779,-4.2098,-4.2956,-4.3069,-4.3369,-4.4083,-4.4275,-4.4313,-4.4444,-4.4501,-4.4487,-4.4473,-4.4373,-4.4318,-4.43,-4.4304,-4.424,-4.4184,-4.3507,-4.2978,-4.2735,-4.2195,-4.174,-4.1626,-4.1604,-4.1604,-4.1604,-4.1604,-4.1604,-4.1604,-4.1604,-4.1604,-4.1604,-4.1604,-4.1604,-4.1604,-4.1582,-4.1538,-5.3093,0.0,-5.1765,-5.1394,0.0,-5.1394,-5.1398,-5.1384,-5.1391,-5.1163,-5.0759,-5.0267,-4.9974,-4.9889,-4.981,-4.9737,-4.9649,-4.9641,-4.9629,-4.9649,-4.9649,-4.9649,-4.9629,-4.9629,-4.9641,-4.9629,-4.9629,-4.9417,-4.9049,-4.9049,-4.8817,-4.8411,-4.8411,-4.8179,-4.7734,-4.7308,-4.6677,-4.5807,-4.5807,-4.5807,-4.5807,-4.5807,-4.5807,-4.5807,0.0,0.0,0.0,0.0,0.0,0.0,0.0,0.0,0.0,0.0,0.0,-4.079,-4.0617,-4.0496,-4.0489,-4.0204,-4.0019,-3.9914,-3.9715,-3.9608,-3.9608,-3.9608,-3.9608,-3.9608,-3.9965,-4.0209,-4.0209,-4.0534,-4.0947,-4.1342,-4.1385,-4.1704,-4.2455,-4.2656,-4.2962,-4.3726,-4.3895,-4.4083,-4.4444,-4.4482,-4.4482,-4.4482,-4.4482,-4.4482,-4.4501,-4.4444,-4.4387,-4.4358,-4.4358,-4.4329,-4.4177,-4.349,-4.2886,-4.2755,-4.2157,-4.1675,-4.1604,-4.1604,-4.1604,-4.1604,-4.1604,-4.1604,-4.1604,-4.1604,-4.1604,-4.1604,-4.1604,-4.1604,-4.1604,-4.1604,-4.1582,-5.358,-5.2839,-5.1824,-5.1394,-5.1394,-5.1394,-5.1394,-5.1394,0.0,0.0,0.0,-5.1327,-5.1279,-5.1209,-5.1157,-5.1056,-5.0906,-5.0898,-5.0898,-5.0898,-5.0898,-5.0898,-5.0898,-5.0898,-5.0898,-5.0898,-5.0898,-5.055,-4.9939,-4.9919,-4.9552,-4.8894,-4.8856,-4.8759,-4.8585,-4.7773,-4.6902,-4.6078,-4.5884,-4.5807,-4.5807,-4.5807,-4.5807,-4.5807,-4.5807,-4.5807,-4.5807,-4.5162,-4.4748,-4.4581,-4.3227,-4.2376,-4.2222,-4.1609,-4.1184,-4.1023,-4.0858,-4.0715,-4.0573,-4.0518,-4.0444,-4.0361,-4.0148,-3.9965,-3.9833,-3.9815,-3.9871,-4.0002,-4.0628,-4.1022,-4.1022,-4.1573,-4.2061,-4.2192,-4.223,-4.2567,-4.3351,-4.3501,-4.3764,-4.4369,-4.4444,-4.4482,-4.4482,-4.4482,-4.4482,-4.4482,-4.4482,-4.4482,-4.4482,-4.4482,-4.4473,-4.4426,-4.4411,-4.4401,-4.4218,-4.3656,-4.3068,-4.2978,-4.2362,-4.1831,-4.1675,-4.1675,-4.1675,-4.1604,-4.1604,-4.1604,-4.1604,-4.1604,-4.1604,-4.1604,-4.1604,-4.1604,-4.1604,-4.1604,-4.1604,-5.3912,-5.3678,-5.2078,-5.1394,-5.1394,-5.1394,-5.1394,-5.1394,-5.1385,-5.139,-5.1391,-5.14,-5.1322,-5.1213,-5.1179,-5.1083,-5.0906,-5.0898,-5.0898,0.0,-5.0898,-5.0898,-5.0898,-5.0898,-5.0898,-5.0898,-5.0898,-5.084,-5.0743,-5.0724,-5.0674,-5.0531,-5.055,-5.019,-4.9513,-4.8643,-4.7773,-4.6922,-4.6167,-4.5807,-4.5807,-4.5807,-4.5807,-4.5807,-4.5807,-4.5807,-4.5807,-4.5691,-4.5297,-4.4632,-4.4362,-4.3904,-4.3169,-4.2995,-4.2628,-4.1912,-4.1803,-4.15,-4.0836,-4.1212,-4.1636,-4.1995,-4.1814,-4.1366,-4.0703,-4.0628,-4.091,-4.1573,-4.1742,-4.1835,-4.1835,-4.1986,-4.238,-4.2994,-4.3106,-4.3444,-4.4195,-4.4294,-4.4313,-4.4463,-4.4482,-4.4482,-4.4482,-4.4482,-4.4482,-4.4482,-4.4482,-4.4482,-4.4482,-4.4482,-4.4501,-4.4487,-4.4487,-4.4458,-4.4354,-4.4011,-4.3574,-4.3284,-4.2941,-4.2446,-4.2005,-4.205,-4.2026,-4.1692,-4.1653,-4.1626,-4.1604,-4.1604,-4.1604,-4.1604,-4.1604,-4.1604,-4.1604,-4.1604,-4.1604,-5.399,-5.3776,-5.2117,-5.1394,-5.1394,-5.1394,-5.1394,-5.1394,-5.14,-5.1402,-5.1384,-5.1391,-5.1348,-5.1254,-5.1216,-5.1152,-5.1004,-5.0937,-5.0898,-5.0898,-5.0898,-5.0898,-5.0898,-5.0898,-5.0898,-5.0898,-5.0898,-5.0898,-5.0898,-5.0898,-5.0898,-5.0898,-5.0898,-5.0705,-5.0318,-4.9533,-4.8914,-4.8488,-4.7192,-4.629,-4.5826,-4.5807,-4.5807,-4.5807,-4.5807,-4.5807,-4.5807,-4.5807,-4.5613,-4.5258,-4.4833,-4.442,-4.4014,-4.3556,-4.3111,-4.2744,-4.2705,-4.2531,-4.2183,-4.2209,-4.2336,-4.2527,-4.2208,-4.2061,-4.2149,-4.1717,-4.1591,-4.1967,-4.2399,-4.2712,-4.2718,-4.3093,-4.3525,-4.3914,-4.3938,-4.4088,-4.4407,-4.4482,-4.4482,-4.4482,-4.4482,-4.4482,-4.4482,-4.4482,-4.4482,-4.4482,-4.4482,-4.4482,-4.4482,-4.4482,-4.4482,-4.4482,-4.4482,-4.4487,-4.444,-4.4087,-4.377,-4.3592,-4.3265,-4.2923,-4.2599,-4.2638,-4.2482,-4.2077,-4.1987,-4.1878,-4.1675,-4.1604,-4.1604,-4.1604,-4.1604,-4.1604,-4.1604,-4.1604,-4.1604,-5.399,-5.3834,-5.2136,-5.1394,-5.1394,-5.1394,-5.1394,-5.1394,-5.1394,-5.1394,-5.1396,-5.1384,-5.1363,-5.1302,-5.124,-5.1172,-5.1092,-5.0969,-5.0914,-5.0898,-5.0898,-5.0898,-5.0898,-5.0898,-5.0898,-5.0898,-5.0898,-5.0898,-5.0898,-5.0898,-5.0898,-5.0898,-5.0898,-5.0898,-5.0879,-5.0279,-4.99,-4.9629,-4.8179,-4.696,-4.6136,-4.5904,-4.5807,-4.5807,-4.5807,-4.5807,-4.5807,-4.5807,-4.5807,-4.578,-4.52,-4.4871,-4.4852,-4.4233,-4.3788,-4.3634,-4.3595,-4.3588,-4.3575,-4.3201,-4.3051,-4.3232,-4.2817,-4.2849,-4.3407,-4.2943,-4.2549,-4.2643,-4.3206,-4.3576,-4.3632,-4.4069,-4.4482,-4.4482,-4.4482,-4.4463,-4.4482,-4.4482,-4.4482,-4.4482,-4.4482,-4.4482,-4.4482,-4.4482,-4.4482,-4.4482,-4.4482,-4.4482,-4.4482,-4.4482,-4.4482,-4.4482,-4.4482,-4.4482,-4.4468,-4.421,-4.398,-4.3899,-4.3621,-4.3369,-4.323,-4.3141,-4.2941,-4.2483,-4.2244,-4.2053,-4.1723,-4.1626,-4.1604,-4.1604,-4.1604,-4.1604,-4.1604,-4.1604,-4.1604,-5.399,-5.3737,-5.2117,-5.1394,-5.1394,-5.1394,-5.1394,-5.1394,-5.1394,-5.1394,-5.1394,-5.1396,-5.1358,-5.1286,-5.1222,-5.117,-5.1092,-5.103,-5.0963,-5.0906,-5.0898,-5.0898,-5.0898,-5.0898,-5.0898,-5.0898,-5.0898,-5.0898,-5.0898,-5.0898,-5.0898,-5.0898,-5.0898,-5.0898,-5.0879,-5.0801,-5.0434,-4.9707,-4.8759,-4.7869,-4.6999,-4.6213,-4.5807,-4.5807,-4.5807,-4.5807,-4.5807,-4.5807,-4.5807,-4.5807,-4.5729,-4.5671,-4.5652,-4.5587,-4.5239,-4.4536,-4.4478,-4.4485,-4.4445,-4.4045,-4.4131,-4.4826,-4.4468,-4.4233,-4.4346,-4.4289,-4.4257,-4.4219,-4.4294,-4.4313,-4.4369,-4.4444,-4.4482,-4.4482,-4.4482,-4.4482,-4.4482,-4.4482,-4.4482,-4.4482,-4.4482,-4.4482,-4.4482,-4.4482,-4.4482,-4.4482,-4.4482,-4.4482,-4.4482,-4.4482,-4.4482,-4.4482,-4.4482,-4.4482,-4.4482,-4.4468,-4.4306,-4.4121,-4.4181,-4.3965,-4.3625,-4.3371,-4.3142,-4.281,-4.232,-4.2068,-4.1895,-4.1758,-4.1626,-4.1648,-4.1626,-4.1604,-4.1604,-4.1604,-4.1604,-5.399,-5.3834,-5.2136,-5.1394,-5.1394,-5.1394,-5.1394,-5.1394,-5.1394,-5.1394,-5.1394,-5.1394,-5.1389,-5.1365,-5.1285,-5.1228,-5.116,-5.1086,-5.1024,-5.0963,-5.0933,-5.0898,-5.0898,-5.0898,-5.0898,-5.0898,-5.0898,-5.0898,-5.0898,-5.0898,-5.0898,-5.0898,-5.0898,-5.0898,-5.0898,-5.0898,-5.0724,-5.0403,-4.9591,-4.874,-4.7811,-4.6503,-4.5807,-4.5807,-4.5807,-4.5807,-4.5807,-4.5807,-4.5807,-4.5807,-4.5807,-4.5807,-4.5807,-4.5807,-4.5652,-4.5336,-4.5316,-4.5316,-4.5316,-4.5024,-4.493,-4.5192,-4.4868,-4.4635,-4.4528,-4.4482,-4.4482,-4.4482,-4.4482,-4.4482,-4.4482,-4.4482,-4.4482,-4.4482,-4.4482,-4.4482,-4.4482,-4.4482,-4.4482,-4.4482,-4.4482,-4.4482,-4.4482,-4.4482,-4.4482,-4.4482,-4.4482,-4.4482,-4.4482,-4.4482,-4.4482,-4.4482,-4.4482,-4.4482,-4.4482,-4.4482,-4.444,-4.4378,-4.4397,-4.4277,-4.4106,-4.3871,-4.3644,-4.3177,-4.2733,-4.2376,-4.2187,-4.1956,-4.1801,-4.1762,-4.167,-4.1604,-4.1604,-4.1604,-4.1604,-5.3854,-5.3444,-5.2019,-5.1394,-5.1394,-5.1394,-5.1394,-5.1394,-5.1394,-5.1394,-5.1394,-5.1394,-5.1398,-5.139,-5.1347,-5.1277,-5.1202,-5.1141,-5.1054,-5.0993,-5.0921,-5.0898,-5.0898,-5.0898,-5.0898,-5.0898,-5.0898,-5.0898,-5.0898,-5.0898,-5.0898,-5.0898,-5.0898,-5.0898,-5.0898,-5.0898,-5.0898,-5.0821,-5.0113,-4.9281,-4.8314,-4.6922,-4.6039,-4.5845,-4.5807,-4.5807,-4.5807,-4.5807,-4.5807,-4.5807,-4.5807,-4.5807,-4.5807,-4.5807,-4.5807,-4.5807,-4.5807,-4.5807,-4.58,-4.5618,-4.5409,-4.5222,-4.4943,-4.4695,-4.4551,-4.4482,-4.4482,-4.4482,-4.4482,-4.4482,-4.4482,-4.4482,-4.4482,-4.4482,-4.4482,-4.4482,-4.4482,-4.4482,-4.4482,-4.4482,-4.4482,-4.4482,-4.4482,-4.4482,-4.4482,-4.4482,-4.4482,-4.4482,-4.4482,-4.4482,-4.4482,-4.4482,-4.4482,-4.4482,-4.4482,-4.4482,-4.4482,-4.4482,-4.4501,-4.4501,-4.4454,-4.4233,-4.3968,-4.3407,-4.3142,-4.2826,-4.2452,-4.2187,-4.1956,-4.1874,-4.1762,-4.1626,-4.1604,-4.1604,-4.1604,-5.3522,-5.2685,-5.1785,-5.1394,-5.1394,-5.1394,-5.1394,-5.1394,-5.1394,-5.1394,-5.1394,-5.1394,-5.1394,-5.1398,-5.1384,-5.1322,-5.1201,-5.1133,-5.1064,-5.1015,-5.0929,-5.0898,-5.0898,-5.0898,-5.0898,-5.0898,-5.0898,-5.0898,-5.0898,-5.0898,-5.0898,-5.0898,-5.0898,-5.0898,-5.0898,-5.0898,-5.0898,-5.0821,-5.0171,-4.932,-4.845,-4.754,-4.6651,-4.5962,-4.5807,-4.5807,-4.5807,-4.5807,-4.5807,-4.5807,-4.5807,-4.5807,-4.5807,-4.5807,-4.5807,-4.5807,-4.5807,-4.5807,-4.5786,-4.5626,-4.5418,-4.5203,-4.4985,-4.4726,-4.4524,-4.4482,-4.4482,-4.4482,-4.4482,-4.4482,-4.4482,-4.4482,-4.4482,-4.4482,-4.4482,-4.4482,-4.4482,-4.4482,-4.4482,-4.4482,-4.4482,-4.4482,-4.4482,-4.4482,-4.4482,-4.4482,-4.4482,-4.4482,-4.4482,-4.4482,-4.4482,-4.4482,-4.4482,-4.4482,-4.4482,-4.4482,-4.4482,-4.4482,-4.4482,-4.4482,-4.4321,-4.4143,-4.3892,-4.3579,-4.3142,-4.2825,-4.2611,-4.2409,-4.2166,-4.198,-4.1784,-4.1653,-4.1626,-4.1604,-4.1604,-5.2663,-5.1843,-5.1531,-5.1394,-5.1394,-5.1394,-5.1394,-5.1394,-5.1394,-5.1394,-5.1394,-5.1394,-5.1394,-5.1396,-5.1389,-5.1365,-5.1301,-5.1216,-5.1124,-5.1053,-5.099,-5.0948,-5.0898,-5.0898,-5.0898,-5.0898,-5.0898,-5.0898,-5.0898,-5.0898,-5.0898,-5.0898,-5.0898,-5.0898,-5.0898,-5.0898,-5.0898,-5.0879,-5.0569,-5.0074,-4.9223,-4.8392,-4.7502,-4.667,-4.6097,-4.5807,-4.5807,-4.5807,-4.5807,-4.5807,-4.5807,-4.5807,-4.5807,-4.5807,-4.5807,-4.5807,-4.5807,-4.5807,-4.58,-4.5737,-4.5552,-4.5223,-4.5126,-4.4887,-4.4587,-4.4482,-4.4482,-4.4482,-4.4482,-4.4482,-4.4482,-4.4482,-4.4482,-4.4482,-4.4482,-4.4482,-4.4482,-4.4482,-4.4482,-4.4482,-4.4482,-4.4482,-4.4482,-4.4482,-4.4482,-4.4482,-4.4482,-4.4482,-4.4482,-4.4482,-4.4482,-4.4482,-4.4482,-4.4482,-4.4482,-4.4482,-4.4482,-4.4482,-4.4482,-4.4482,-4.4397,-4.4185,-4.3952,-4.3857,-4.3355,-4.3032,-4.2939,-4.2591,-4.2353,-4.2019,-4.1805,-4.1653,-4.1626,-4.1604,-4.1604,-5.1941,-5.1453,-5.1394,-5.1394,-5.1394,-5.1394,-5.1394,-5.1394,-5.1394,-5.1394,-5.1394,-5.1394,-5.1394,-5.1394,-5.1394,-5.1387,-5.1366,-5.1252,-5.1184,-5.1118,-5.105,-5.1005,-5.0948,-5.0941,-5.0933,-5.0898,-5.0898,-5.0898,-5.0898,-5.0898,-5.0898,-5.0898,-5.0898,-5.0898,-5.0898,-5.0898,-5.0898,-5.0898,-5.0898,-5.0492,-4.9707,-4.8836,-4.7985,-4.7115,-4.6252,-4.5807,-4.5807,-4.5807,-4.5807,-4.5807,-4.5807,-4.5807,-4.5807,-4.5807,-4.5807,-4.5807,-4.5807,-4.5807,-4.5807,-4.5807,-4.5669,-4.5323,-4.5232,-4.5026,-4.4648,-4.4551,-4.4496,-4.4482,-4.4482,-4.4482,-4.4482,-4.4482,-4.4482,-4.4482,-4.4482,-4.4482,-4.4482,-4.4482,-4.4482,-4.4482,-4.4482,-4.4482,-4.4482,-4.4482,-4.4482,-4.4482,-4.4482,-4.4482,-4.4482,-4.4482,-4.4482,-4.4482,-4.4482,-4.4482,-4.4482,-4.4482,-4.4482,-4.4482,-4.4482,-4.4482,-4.4454,-4.4262,-4.4124,-4.403,-4.3825,-4.3528,-4.3178,-4.2825,-4.2454,-4.2124,-4.1827,-4.167,-4.1626,-4.1604,-4.1604,-5.1433,-5.1394,-5.1394,-5.1394,-5.1394,-5.1394,-5.1394,-5.1394,-5.1394,-5.1394,-5.1394,-5.1394,-5.1394,-5.1394,-5.1394,-5.1396,-5.1372,-5.1282,-5.1202,-5.1198,-5.1119,-5.1055,-5.1005,-5.0986,-5.0956,-5.0898,-5.0898,-5.0898,-5.0898,-5.0898,-5.0898,-5.0898,-5.0898,-5.0898,-5.0898,-5.0898,-5.0898,-5.0898,-5.0898,-5.0531,-4.9707,-4.8875,-4.8024,-4.7192,-4.631,-4.5807,-4.5807,-4.5807,-4.5807,-4.5807,-4.5807,-4.5807,-4.5807,-4.5807,-4.5807,-4.5807,-4.5807,-4.5807,-4.5807,-4.58,-4.5715,-4.55,-4.5304,-4.5118,-4.4856,-4.4648,-4.4537,-4.4519,-4.451,-4.4482,-4.4482,-4.4482,-4.4482,-4.4482,-4.4482,-4.4482,-4.4482,-4.4482,-4.4482,-4.4482,-4.4482,-4.4482,-4.4482,-4.4482,-4.4482,-4.4482,-4.4482,-4.4482,-4.4482,-4.4482,-4.4482,-4.4482,-4.4482,-4.4482,-4.4482,-4.4482,-4.4482,-4.4482,-4.4482,-4.4482,-4.4454,-4.4321,-4.4262,-4.4155,-4.4002,-4.3679,-4.3303,-4.2939,-4.265,-4.229,-4.1998,-4.1719,-4.1675,-4.1653,-4.1604,-5.1394,-5.1394,-5.1394,-5.1394,-5.1394,-5.1394,-5.1394,-5.1394,-5.1394,-5.1394,-5.1394,-5.1394,-5.1394,-5.1394,-5.1394,-5.1394,-5.14,-5.1348,-5.1288,-5.1193,-5.118,-5.1125,-5.1081,-5.102,-5.0963,-5.0906,-5.0898,-5.0898,-5.0898,-5.0898,-5.0898,-5.0898,-5.0898,-5.0898,-5.0898,-5.0898,-5.0898,-5.0898,-5.0898,-5.0763,-5.0395,-4.9126,-4.8256,-4.7869,-4.6573,-4.5807,-4.5807,-4.5807,-4.5807,-4.5807,-4.5807,-4.5807,-4.5807,-4.5807,-4.5807,-4.5807,-4.5807,-4.5807,-4.5807,-4.58,-4.5715,-4.5533,-4.5436,-4.5304,-4.5077,-4.4831,-4.4701,-4.4675,-4.46,-4.4482,-4.4482,-4.4482,-4.4482,-4.4482,-4.4482,-4.4482,-4.4482,-4.4482,-4.4482,-4.4482,-4.4482,-4.4482,-4.4482,-4.4482,-4.4482,-4.4482,-4.4482,-4.4482,-4.4482,-4.4482,-4.4482,-4.4482,-4.4482,-4.4482,-4.4482,-4.4482,-4.4482,-4.4482,-4.4482,-4.4482,-4.4454,-4.4426,-4.4368,-4.4262,-4.4094,-4.3841,-4.3441,-4.3087,-4.2787,-4.2532,-4.2269,-4.204,-4.1849,-4.174,-4.1675,-5.1394,-5.1394,-5.1394,-5.1394,-5.1394,-5.1394,-5.1394,-5.1394,-5.1394,-5.1394,-5.1394,-5.1394,-5.1394,-5.1394,-5.1394,-5.1394,-5.1396,-5.1397,-5.1348,-5.1267,-5.1209,-5.1176,-5.1132,-5.1081,-5.1005,-5.0956,-5.0941,-5.0933,-5.0898,-5.0898,-5.0898,-5.0898,-5.0898,-5.0898,-5.0898,-5.0898,-5.0898,-5.0898,-5.0898,-5.0898,-5.0569,-4.9262,-4.8411,-4.8159,-4.6709,-4.5884,-4.5807,-4.5807,-4.5807,-4.5807,-4.5807,-4.5807,-4.5807,-4.5807,-4.5807,-4.5807,-4.5807,-4.5807,-4.5807,-4.58,-4.5752,-4.5626,-4.5533,-4.5445,-4.5284,-4.5022,-4.48,-4.4782,-4.4621,-4.4482,-4.4482,-4.4482,-4.4482,-4.4482,-4.4482,-4.4482,-4.4482,-4.4482,-4.4482,-4.4482,-4.4482,-4.4482,-4.4482,-4.4482,-4.4482,-4.4482,-4.4482,-4.4482,-4.4482,-4.4482,-4.4482,-4.4482,-4.4482,-4.4482,-4.4482,-4.4482,-4.4482,-4.4482,-4.4482,-4.4482,-4.4468,-4.4468,-4.444,-4.435,-4.4199,-4.4064,-4.3693,-4.3284,-4.2958,-4.2731,-4.2534,-4.2207,-4.1934,-4.1827,-4.174,-5.1394,-5.1394,-5.1394,-5.1394,-5.1394,-5.1394,-5.1394,-5.1394,-5.1394,-5.1394,-5.1394,-5.1394,-5.1394,-5.1394,-5.1394,-5.1394,-5.1394,-5.1398,-5.1394,-5.1366,-5.1288,-5.123,-5.1186,-5.1133,-5.1067,-5.1032,-5.1005,-5.0963,-5.0933,-5.0906,-5.0898,-5.0898,-5.0898,-5.0898,-5.0898,-5.0898,-5.0898,-5.0898,-5.0898,-5.0898,-5.0801,-4.9262,-4.8411,-4.8314,-4.6748,-4.5807,-4.5807,-4.5807,-4.5807,-4.5807,-4.5807,-4.5807,-4.5807,-4.5807,-4.5807,-4.5807,-4.5807,-4.5807,-4.5807,-4.5807,-4.578,-4.5771,-4.5634,-4.5507,-4.5472,-4.5165,-4.4943,-4.4908,-4.4694,-4.4519,-4.4532,-4.4496,-4.4496,-4.4482,-4.4482,-4.4482,-4.4482,-4.4482,-4.4482,-4.4482,-4.4482,-4.4482,-4.4482,-4.4482,-4.4482,-4.4482,-4.4482,-4.4482,-4.4482,-4.4482,-4.4482,-4.4482,-4.4482,-4.4482,-4.4482,-4.4482,-4.4482,-4.4482,-4.4482,-4.4482,-4.4482,-4.4482,-4.4482,-4.4426,-4.435,-4.4185,-4.3968,-4.3559,-4.3284,-4.3123,-4.2789,-4.2333,-4.2107,-4.2086,-4.1934,-5.1394,-5.1394,-5.1394,-5.1394,-5.1394,-5.1394,-5.1394,-5.1394,-5.1394,-5.1394,-5.1394,-5.1394,-5.1394,-5.1394,-5.1394,-5.1394,-5.1394,-5.1394,-5.1398,-5.1393,-5.1386,-5.1301,-5.1202,-5.113,-5.1082,-5.1067,-5.1027,-5.0998,-5.0971,-5.0921,-5.0906,-5.0898,-5.0898,-5.0898,-5.0898,-5.0898,-5.0898,-5.0898,-5.0898,-5.0898,-5.0647,-4.9262,-4.843,-4.8237,-4.6709,-4.5865,-4.5807,-4.5807,-4.5807,-4.5807,-4.5807,-4.5807,-4.5807,-4.5807,-4.5807,-4.5807,-4.5807,-4.5807,-4.5807,-4.5807,-4.5807,-4.5807,-4.5737,-4.573,-4.5715,-4.5481,-4.5333,-4.5255,-4.4977,-4.4726,-4.4701,-4.4581,-4.4524,-4.4482,-4.4482,-4.4482,-4.4482,-4.4482,-4.4482,-4.4482,-4.4482,-4.4482,-4.4482,-4.4482,-4.4482,-4.4482,-4.4482,-4.4482,-4.4482,-4.4482,-4.4482,-4.4482,-4.4482,-4.4482,-4.4482,-4.4482,-4.4482,-4.4482,-4.4482,-4.4482,-4.4482,-4.4482,-4.4482,-4.4468,-4.444,-4.4321,-4.417,-4.3902,-4.3726,-4.3493,-4.316,-4.2751,-4.2634,-4.2518,-4.2292,-5.1394,-5.1394,-5.1394,-5.1394,-5.1394,-5.1394,-5.1394,-5.1394,-5.1394,-5.1394,-5.1394,-5.1394,-5.1394,-5.1394,-5.1394,-5.1394,-5.1394,-5.1394,-5.1394,-5.1402,-5.1385,-5.1327,-5.1222,-5.1159,-5.1121,-5.1089,-5.1069,-5.1048,-5.1046,-5.0971,-5.0948,-5.0941,-5.0906,-5.0898,-5.0898,-5.0898,-5.0898,-5.0898,-5.0898,-5.0898,-5.0782,-4.9262,-4.8527,-4.8063,-4.6748,-4.5807,-4.5807,-4.5807,-4.5807,-4.5807,-4.5807,-4.5807,-4.5807,-4.5807,-4.5807,-4.5807,-4.5807,-4.5807,-4.5807,-4.5807,-4.5807,-4.5807,-4.5807,-4.5807,-4.5752,-4.5618,-4.5498,-4.5445,-4.5152,-4.5,-4.4938,-4.4764,-4.4595,-4.451,-4.4482,-4.4482,-4.4482,-4.4482,-4.4482,-4.4482,-4.4482,-4.4482,-4.4482,-4.4482,-4.4482,-4.4482,-4.4482,-4.4482,-4.4482,-4.4482,-4.4482,-4.4482,-4.4482,-4.4482,-4.4482,-4.4482,-4.4482,-4.4482,-4.4482,-4.4482,-4.4482,-4.4482,-4.4482,-4.4482,-4.4482,-4.4454,-4.4321,-4.417,-4.3999,-4.3742,-4.3475,-4.3284,-4.3105,-4.2921,-4.2673,-5.1394,-5.1394,-5.1394,-5.1394,-5.1394,-5.1394,-5.1394,-5.1394,-5.1394,-5.1394,-5.1394,-5.1394,-5.1394,-5.1394,-5.1394,-5.1394,-5.1394,-5.1394,-5.1394,-5.1385,-5.1384,-5.1335,-5.1252,-5.1201,-5.1156,-5.1108,-5.1101,-5.1095,-5.1081,-5.1034,-5.1012,-5.1005,-5.0956,-5.0933,-5.0914,-5.0914,-5.0906,-5.0898,-5.0898,-5.0898,-5.0608,-4.9339,-4.845,-4.8159,-4.6728,-4.5884,-4.5807,-4.5807,-4.5807,-4.5807,-4.5807,-4.5807,-4.5807,-4.5807,-4.5807,-4.5807,-4.5807,-4.5807,-4.5807,-4.5807,-4.5807,-4.5807,-4.5807,-4.5807,-4.5778,-4.5669,-4.5558,-4.5577,-4.5343,-4.5223,-4.5148,-4.4954,-4.4758,-4.4621,-4.4546,-4.4537,-4.4496,-4.4482,-4.4482,-4.4482,-4.4482,-4.4482,-4.4482,-4.4482,-4.4482,-4.4482,-4.4482,-4.4482,-4.4482,-4.4482,-4.4482,-4.4482,-4.4482,-4.4482,-4.4482,-4.4482,-4.4482,-4.4482,-4.4482,-4.4482,-4.4482,-4.4482,-4.4482,-4.4482,-4.4482,-4.4501,-4.4454,-4.4321,-4.4185,-4.406,-4.3839,-4.3677,-4.351,-4.3302,-4.3069,-5.1394,-5.1394,-5.1394,-5.1394,-5.1394,-5.1394,-5.1394,-5.1394,-5.1394,-5.1394,-5.1394,-5.1394,-5.1394,-5.1394,-5.1394,-5.1394,-5.1394,-5.1394,-5.1394,-5.14,-5.1384,-5.1386,-5.1331,-5.1262,-5.1191,-5.1161,-5.1127,-5.1114,-5.1095,-5.1088,-5.1087,-5.1067,-5.1053,-5.1039,-5.0998,-5.0971,-5.0956,-5.0906,-5.0906,-5.0898,-5.0589,-4.9301,-4.8353,-4.8121,-4.667,-4.5904,-4.5807,-4.5807,-4.5807,-4.5807,-4.5807,-4.5807,-4.5807,-4.5807,-4.5807,-4.5807,-4.5807,-4.5807,-4.5807,-4.5807,-4.5807,-4.5807,-4.5807,-4.5807,-4.5807,-4.5778,-4.573,-4.5708,-4.5549,-4.5381,-4.5234,-4.515,-4.4996,-4.4826,-4.4726,-4.4668,-4.4551,-4.4496,-4.4482,-4.4482,-4.4482,-4.4482,-4.4482,-4.4482,-4.4482,-4.4482,-4.4482,-4.4482,-4.4482,-4.4482,-4.4482,-4.4482,-4.4482,-4.4482,-4.4482,-4.4482,-4.4482,-4.4482,-4.4482,-4.4482,-4.4482,-4.4482,-4.4482,-4.4482,-4.4482,-4.4501,-4.4501,-4.4482,-4.435,-4.4292,-4.4199,-4.4064,-4.3873,-4.3679,-4.3442,-5.1394,-5.1394,-5.1394,-5.1394,-5.1394,-5.1394,-5.1394,-5.1394,-5.1394,-5.1394,-5.1394,-5.1394,-5.1394,-5.1394,-5.1394,-5.1394,-5.1394,-5.1394,-5.1394,-5.1398,-5.1395,-5.1384,-5.1366,-5.1297,-5.1238,-5.1191,-5.115,-5.1139,-5.1146,-5.1128,-5.1089,-5.1082,-5.1088,-5.1087,-5.1053,-5.1034,-5.1032,-5.0963,-5.0929,-5.0921,-5.0654,-4.9301,-4.7811,-4.7289,-4.629,-4.5807,-4.5807,-4.5807,-4.5807,-4.5807,-4.5807,-4.5807,-4.5807,-4.5807,-4.5807,-4.5807,-4.5807,-4.5807,-4.5807,-4.5807,-4.5807,-4.5807,-4.5807,-4.5807,-4.5807,-4.5807,-4.5807,-4.5793,-4.57,-4.5569,-4.5371,-4.5352,-4.5223,-4.5011,-4.4861,-4.4745,-4.4674,-4.456,-4.4482,-4.4482,-4.4482,-4.4482,-4.4482,-4.4515,-4.4515,-4.4515,-4.4482,-4.4482,-4.4482,-4.4482,-4.4482,-4.4482,-4.4482,-4.4482,-4.4482,-4.4482,-4.4482,-4.4482,-4.4482,-4.4482,-4.4482,-4.4482,-4.4482,-4.4482,-4.4482,-4.4482,-4.4482,-4.4482,-4.4482,-4.4426,-4.435,-4.4306,-4.4188,-4.3908,-4.3695,-5.1394,-5.1394,-5.1394,-5.1394,-5.1394,-5.1394,-5.1394,-5.1394,-5.1394,-5.1394,-5.1394,-5.1394,-5.1394,-5.1394,-5.1394,-5.1394,-5.1394,-5.1394,-5.1394,-5.1396,-5.1398,-5.1393,-5.1367,-5.134,-5.1284,-5.1218,-5.1205,-5.1208,-5.1171,-5.1159,-5.1127,-5.1121,-5.1115,-5.1101,-5.1088,-5.1088,-5.1067,-5.102,-5.1012,-5.0811,-5.0472,-4.9149,-4.7698,-4.6324,-4.5942,-4.5807,-4.5807,-4.5807,-4.5807,-4.5807,-4.5807,-4.5807,-4.5807,-4.5807,-4.5807,-4.5807,-4.5807,-4.5807,-4.5807,-4.5807,-4.5807,-4.5807,-4.5807,-4.5807,-4.5807,-4.5807,-4.5807,-4.5807,-4.5771,-4.5715,-4.5577,-4.5552,-4.5418,-4.5223,-4.4977,-4.4872,-4.4758,-4.4635,-4.4592,-4.4482,-4.4515,-4.4515,-4.4528,-4.4542,-4.4528,-4.4528,-4.4528,-4.4496,-4.451,-4.4496,-4.4496,-4.4496,-4.4482,-4.4482,-4.4482,-4.4482,-4.4482,-4.4482,-4.4482,-4.4482,-4.4482,-4.4482,-4.4482,-4.4482,-4.4482,-4.4482,-4.4482,-4.4482,-4.4482,-4.4482,-4.4468,-4.4411,-4.4277,-4.4113,-4.3868,-5.1394,-5.1394,-5.1394,-5.1394,-5.1394,-5.1394,-5.1394,-5.1394,-5.1394,-5.1394,-5.1394,-5.1394,-5.1394,-5.1394,-5.1394,-5.1394,-5.1394,-5.1394,-5.1394,-5.1394,-5.1394,-5.1384,-5.1393,-5.1367,-5.1338,-5.1291,-5.1228,-5.1211,-5.1202,-5.1196,-5.119,-5.119,-5.1184,-5.1166,-5.1108,-5.1089,-5.1108,-5.1074,-5.1055,-5.077,-4.9988,-4.8915,-4.7591,-4.6061,-4.5847,-4.5814,-4.5807,-4.5807,-4.5807,-4.5807,-4.5807,-4.5807,-4.5807,-4.5807,-4.5807,-4.5807,-4.5807,-4.5807,-4.5807,-4.5807,-4.5807,-4.5807,-4.5807,-4.5807,-4.5807,-4.5807,-4.5807,-4.5807,-4.5807,-4.5786,-4.5752,-4.5723,-4.5569,-4.5343,-4.5222,-4.5126,-4.4869,-4.477,-4.4706,-4.4592,-4.4551,-4.457,-4.4605,-4.4632,-4.4632,-4.4632,-4.4619,-4.4605,-4.4592,-4.4565,-4.4537,-4.451,-4.4482,-4.4482,-4.4482,-4.4482,-4.4482,-4.4482,-4.4482,-4.4482,-4.4482,-4.4482,-4.4482,-4.4482,-4.4482,-4.4482,-4.4482,-4.4482,-4.4482,-4.4482,-4.4482,-4.4482,-4.4195,-4.3897,-4.3713,-5.1394,-5.1394,-5.1394,-5.1394,-5.1394,-5.1394,-5.1394,-5.1394,-5.1394,-5.1394,-5.1394,-5.1394,-5.1394,-5.1394,-5.1394,-5.1394,-5.1394,-5.1394,-5.1394,-5.1394,-5.1394,-5.1394,-5.1398,-5.1384,-5.1367,-5.1333,-5.1277,-5.1225,-5.1214,-5.1202,-5.1208,-5.1202,-5.1202,-5.119,-5.1165,-5.1159,-5.114,-5.1115,-5.105,-5.0675,-4.9731,-4.8561,-4.7114,-4.6268,-4.5874,-4.5848,-4.5835,-4.5814,-4.5814,-4.5827,-4.5814,-4.5807,-4.5807,-4.5807,-4.5807,-4.5807,-4.5807,-4.5807,-4.5807,-4.5807,-4.5807,-4.5807,-4.5807,-4.5807,-4.5807,-4.5807,-4.5807,-4.5807,-4.5807,-4.5807,-4.58,-4.5807,-4.5715,-4.5605,-4.5484,-4.5293,-4.5115,-4.4976,-4.4852,-4.4745,-4.4757,-4.477,-4.4757,-4.477,-4.4776,-4.4751,-4.4719,-4.4693,-4.4685,-4.4672,-4.4646,-4.4578,-4.4551,-4.4524,-4.4524,-4.4524,-4.4524,-4.4524,-4.451,-4.451,-4.4482,-4.4482,-4.4482,-4.4482,-4.4482,-4.4482,-4.4482,-4.4482,-4.4482,-4.4482,-4.4439,-4.4313,-4.3966,-4.3694,-4.3405,-5.1392,-5.1392,-5.1394,-5.1394,-5.1394,-5.1394,-5.1394,-5.1394,-5.1394,-5.1394,-5.1394,-5.1394,-5.1394,-5.1394,-5.1394,-5.1394,-5.1394,-5.1394,-5.1394,-5.1394,-5.1394,-5.1394,-5.1384,-5.1397,-5.1386,-5.1386,-5.1357,-5.1283,-5.1243,-5.121,-5.1203,-5.1217,-5.1206,-5.1202,-5.1196,-5.1196,-5.1165,-5.1133,-5.1108,-5.0642,-4.9401,-4.7895,-4.6654,-4.6014,-4.5912,-4.5899,-4.5893,-4.5861,-4.5848,-4.5854,-4.5848,-4.5827,-4.5821,-4.5814,-4.5814,-4.5807,-4.5807,-4.5807,-4.5807,-4.5807,-4.5807,-4.5807,-4.5807,-4.5807,-4.5807,-4.5807,-4.5807,-4.5807,-4.5807,-4.5807,-4.5807,-4.5814,-4.58,-4.5749,-4.5596,-4.5437,-4.5371,-4.5263,-4.5156,-4.5068,-4.5038,-4.4991,-4.4967,-4.487,-4.4833,-4.4889,-4.4877,-4.4808,-4.4796,-4.4808,-4.4783,-4.4667,-4.4632,-4.4578,-4.4565,-4.4578,-4.4578,-4.4611,-4.4597,-4.4565,-4.4524,-4.4482,-4.4496,-4.451,-4.4482,-4.4482,-4.4482,-4.4496,-4.4482,-4.4444,-4.4364,-4.4106,-4.3699,-4.3137,-4.2674,-5.139,-5.1401,-5.139,-5.1394,-5.1394,-5.1394,-5.1394,-5.1394,-5.1394,-5.1394,-5.1394,-5.1394,-5.1394,-5.1394,-5.1394,-5.1394,-5.1394,-5.1394,-5.1394,-5.1394,-5.1394,-5.1394,-5.1394,-5.1396,-5.1398,-5.1386,-5.1387,-5.1358,-5.1299,-5.1245,-5.1206,-5.1213,-5.1205,-5.1208,-5.1206,-5.1208,-5.1202,-5.1196,-5.1138,-5.0316,-4.8738,-4.707,-4.6263,-4.6019,-4.5943,-4.5911,-4.5917,-4.5899,-4.5893,-4.588,-4.5899,-4.588,-4.588,-4.5893,-4.5854,-4.5814,-4.5807,-4.5807,-4.5807,-4.5807,-4.5807,-4.5807,-4.5807,-4.5807,-4.5807,-4.5807,-4.5807,-4.5807,-4.5807,-4.5814,-4.5821,-4.5854,-4.5805,-4.5783,-4.5727,-4.5621,-4.5552,-4.5491,-4.54,-4.5371,-4.5312,-4.5227,-4.514,-4.5026,-4.4919,-4.4986,-4.4998,-4.4943,-4.4919,-4.4943,-4.4919,-4.4821,-4.4732,-4.4699,-4.4685,-4.4667,-4.4685,-4.4685,-4.4672,-4.4659,-4.4632,-4.4605,-4.4556,-4.457,-4.4524,-4.4524,-4.4537,-4.4524,-4.4496,-4.4289,-4.3989,-4.3688,-4.3369,-4.2739,-4.1945,-5.1396,-5.1399,-5.139,-5.1394,-5.1394,-5.1394,-5.1394,-5.1394,-5.1394,-5.1394,-5.1394,-5.1394,-5.1394,-5.1394,-5.1394,-5.1394,-5.1394,-5.1394,-5.1394,-5.1394,-5.1394,-5.1394,-5.1394,-5.1394,-5.1389,-5.1394,-5.1396,-5.1398,-5.1347,-5.1285,-5.1263,-5.1255,-5.1215,-5.1205,-5.1211,-5.1211,-5.1208,-5.093,-5.025,-4.9124,-4.7875,-4.6724,-4.598,-4.598,-4.5972,-4.5947,-4.5953,-4.5923,-4.5923,-4.5923,-4.5923,-4.5905,-4.5893,-4.5906,-4.588,-4.5854,-4.5848,-4.5848,-4.5814,-4.5807,-4.5807,-4.5807,-4.5807,-4.5807,-4.5807,-4.5807,-4.5821,-4.5854,-4.5854,-4.586,-4.5861,-4.588,-4.5867,-4.5848,-4.5814,-4.5793,-4.5723,-4.5661,-4.5624,-4.5616,-4.5582,-4.5457,-4.5351,-4.5248,-4.514,-4.5125,-4.5148,-4.5136,-4.5103,-4.508,-4.5045,-4.4986,-4.4902,-4.4827,-4.4808,-4.4808,-4.4808,-4.4827,-4.4827,-4.4815,-4.477,-4.4732,-4.4699,-4.4672,-4.4672,-4.4659,-4.4619,-4.4438,-4.4289,-4.3933,-4.3538,-4.3013,-4.2468,-4.1849,-4.1095,-5.1378,-5.1369,-5.1386,-5.139,-5.139,-5.1392,-5.1394,-5.1394,-5.1394,-5.1394,-5.1394,-5.1394,-5.1394,-5.1394,-5.1394,-5.1394,-5.1394,-5.1394,-5.1394,-5.1394,-5.1394,-5.1394,-5.1394,-5.1394,-5.1394,-5.1394,-5.14,-5.1402,-5.1374,-5.1347,-5.134,-5.1309,-5.1263,-5.1236,-5.1211,-5.1176,-5.1111,-5.0658,-4.9454,-4.8347,-4.7356,-4.6502,-4.6094,-4.5991,-4.5986,-4.6,-4.5991,-4.5944,-4.5953,-4.5978,-4.5953,-4.5935,-4.5943,-4.5943,-4.5911,-4.5905,-4.588,-4.5867,-4.5835,-4.5822,-4.5815,-4.5815,-4.5834,-4.5841,-4.5841,-4.5815,-4.5841,-4.5887,-4.5893,-4.5906,-4.5905,-4.5917,-4.5943,-4.5931,-4.5918,-4.5912,-4.5899,-4.5834,-4.5778,-4.5761,-4.5731,-4.5657,-4.5547,-4.5467,-4.537,-4.5298,-4.5277,-4.5288,-4.5265,-4.52,-4.5136,-4.508,-4.5022,-4.4962,-4.4943,-4.4943,-4.4943,-4.4943,-4.4962,-4.4926,-4.487,-4.4858,-4.4821,-4.4808,-4.4808,-4.477,-4.4732,-4.4393,-4.4013,-4.352,-4.2956,-4.2074,-4.1398,-4.0854,-4.0459,-5.1294,-5.1317,-5.1369,-5.1399,-5.1401,-5.139,-5.1394,-5.1394,-5.1394,-5.1394,-5.1394,-5.1394,-5.1394,-5.1394,-5.1394,-5.1394,-5.1394,-5.1394,-5.1394,-5.1394,-5.1394,-5.1394,-5.1394,-5.1394,-5.1394,-5.1394,-5.1394,-5.1394,-5.1396,-5.1387,-5.1384,-5.1386,-5.1304,-5.1295,-5.1266,-5.1199,-5.067,-5.0079,-4.8988,-4.8133,-4.724,-4.6463,-4.6021,-4.5982,-4.5997,-4.6002,-4.5982,-4.5972,-4.5966,-4.5991,-4.5986,-4.5975,-4.5978,-4.5972,-4.596,-4.5929,-4.591,-4.5898,-4.5886,-4.5873,-4.588,-4.5899,-4.5899,-4.5873,-4.5867,-4.588,-4.5905,-4.5905,-4.5925,-4.5911,-4.5923,-4.5935,-4.5997,-4.5978,-4.5953,-4.5958,-4.5958,-4.5964,-4.5917,-4.5906,-4.5866,-4.5786,-4.5746,-4.5632,-4.554,-4.5448,-4.535,-4.535,-4.5288,-4.5254,-4.5211,-4.5148,-4.5125,-4.5091,-4.5091,-4.5091,-4.5091,-4.5091,-4.5091,-4.5033,-4.4955,-4.4943,-4.4979,-4.4943,-4.4931,-4.4907,-4.4675,-4.4039,-4.3452,-4.3015,-4.2369,-4.1493,-4.081,-4.0328,-4.0021,-5.1292,-5.1296,-5.1323,-5.1361,-5.1399,-5.139,-5.1394,-5.1394,-5.1394,-5.1394,-5.1394,-5.1394,-5.1394,-5.1394,-5.1394,-5.1394,-5.1394,-5.1394,-5.1394,-5.1394,-5.1394,-5.1394,-5.1394,-5.1394,-5.1394,-5.1394,-5.1394,-5.1394,-5.1394,-5.1394,-5.14,-5.1382,-5.1342,-5.1304,-5.1274,-5.1094,-5.0374,-4.9384,-4.8677,-4.7978,-4.6676,-4.6268,-4.5982,-4.5982,-4.5982,-4.5982,-4.5982,-4.5982,-4.5982,-4.5982,-4.5982,-4.5991,-4.5986,-4.6,-4.5975,-4.5964,-4.5939,-4.5939,-4.5933,-4.5916,-4.5892,-4.5892,-4.5892,-4.5892,-4.5898,-4.5892,-4.5923,-4.5949,-4.596,-4.596,-4.5969,-4.5975,-4.5986,-4.5986,-4.5991,-4.5997,-4.5982,-4.5982,-4.5991,-4.5949,-4.5943,-4.5905,-4.5874,-4.5812,-4.5708,-4.5601,-4.5495,-4.5409,-4.535,-4.5298,-4.5267,-4.5224,-4.5192,-4.5192,-4.5192,-4.5203,-4.5233,-4.5222,-4.5203,-4.5148,-4.5091,-4.5148,-4.517,-4.5117,-4.5061,-4.5045,-4.4588,-4.3558,-4.295,-4.2637,-4.187,-4.0917,-4.0315,-3.9865,-3.9721,-5.13,-5.1304,-5.1303,-5.1349,-5.1391,-5.1386,-5.1392,-5.1394,-5.1394,-5.1394,-5.1394,-5.1394,-5.1394,-5.1394,-5.1394,-5.1394,-5.1394,-5.1394,-5.1394,-5.1394,-5.1394,-5.1394,-5.1394,-5.1394,-5.1394,-5.1394,-5.1394,-5.1394,-5.1394,-5.1394,-5.1396,-5.1374,-5.1367,-5.1339,-5.126,-5.0876,-5.0075,-4.8955,-4.8191,-4.757,-4.6196,-4.6002,-4.5982,-4.5982,-4.5982,-4.5982,-4.5982,-4.5982,-4.5982,-4.5982,-4.5982,-4.5982,-4.6002,-4.5982,-4.5982,-4.5982,-4.5982,-4.5982,-4.5972,-4.595,-4.5922,-4.5927,-4.5947,-4.5941,-4.5935,-4.5922,-4.5958,-4.5964,-4.5989,-4.6,-4.5982,-4.5997,-4.5997,-4.5997,-4.5997,-4.5982,-4.5982,-4.5982,-4.5982,-4.5986,-4.598,-4.5969,-4.5947,-4.5893,-4.5793,-4.5696,-4.5599,-4.5513,-4.541,-4.539,-4.535,-4.5298,-4.5256,-4.5267,-4.5277,-4.5275,-4.5265,-4.5265,-4.5246,-4.5256,-4.5246,-4.5277,-4.5277,-4.5224,-4.5181,-4.5178,-4.4611,-4.3726,-4.2985,-4.2363,-4.1397,-4.0337,-4.0119,-3.9726,-3.9677,-5.13,-5.1304,-5.1303,-5.134,-5.1378,-5.1391,-5.1384,-5.1392,-5.1394,-5.1394,-5.1394,-5.1394,-5.1394,-5.1394,-5.1394,-5.1394,-5.1394,-5.1394,-5.1394,-5.1394,-5.1394,-5.1394,-5.1394,-5.1394,-5.1394,-5.1394,-5.1394,-5.1394,-5.1394,-5.1394,-5.1394,-5.1327,-5.1248,-5.1189,-5.1268,-5.043,-4.9502,-4.8596,-4.7764,-4.6968,-4.6235,-4.5982,-4.5982,-4.5982,-4.5982,-4.5982,-4.5982,-4.5982,-4.5982,-4.5982,-4.5982,-4.5982,-4.5982,-4.5982,-4.5982,-4.5982,-4.5982,-4.5982,-4.5982,-4.5997,-4.5991,-4.5966,-4.598,-4.598,-4.5972,-4.5997,-4.5991,-4.5991,-4.5991,-4.5997,-4.5982,-4.5982,-4.5982,-4.5982,-4.5982,-4.5982,-4.5982,-4.5982,-4.5982,-4.5982,-4.5982,-4.5997,-4.5997,-4.595,-4.5867,-4.578,-4.5719,-4.5616,-4.5512,-4.5438,-4.5419,-4.537,-4.5319,-4.5277,-4.5277,-4.5277,-4.5297,-4.5277,-4.5277,-4.5277,-4.5277,-4.5277,-4.5277,-4.5277,-4.5256,-4.5243,-4.4654,-4.3939,-4.2936,-4.1843,-4.0749,-3.9875,-3.9727,-3.9661,-3.9631,-5.13,-5.13,-5.1308,-5.1303,-5.1343,-5.1389,-5.1401,-5.1386,-5.139,-5.1394,-5.1394,-5.1394,-5.1394,-5.1394,-5.1394,-5.1394,-5.1394,-5.1394,-5.1394,-5.1394,-5.1394,-5.1394,-5.1394,-5.1394,-5.1394,-5.1394,-5.1394,-5.1394,-5.1394,-5.1394,-5.1394,-5.1325,-5.0856,-5.0501,-5.0379,-4.9874,-4.9268,-4.7983,-4.7376,-4.689,-4.6099,-4.5982,-4.5982,-4.5982,-4.5982,-4.5982,-4.5982,-4.5982,-4.5982,-4.5982,-4.5982,-4.5982,-4.5982,-4.5982,-4.5982,-4.5982,-4.5982,-4.5982,-4.5982,-4.6002,-4.6002,-4.5982,-4.5982,-4.5982,-4.5982,-4.5982,-4.5982,-4.5982,-4.5982,-4.5982,-4.5982,-4.5982,-4.5982,-4.5982,-4.5982,-4.5982,-4.5982,-4.5982,-4.5982,-4.5982,-4.5982,-4.5982,-4.5982,-4.5982,-4.5922,-4.588,-4.5841,-4.5761,-4.5668,-4.5549,-4.5467,-4.5419,-4.5361,-4.5319,-4.5288,-4.5329,-4.5329,-4.5348,-4.5328,-4.5277,-4.5277,-4.5277,-4.5277,-4.5277,-4.5277,-4.522,-4.459,-4.3806,-4.2401,-4.1223,-4.0393,-3.9864,-3.9758,-3.9731,-3.9661,-5.1272,-5.1296,-5.13,-5.1308,-5.1307,-5.1352,-5.1369,-5.1399,-5.139,-5.1394,-5.1394,-5.1394,-5.1394,-5.1394,-5.1394,-5.1394,-5.1394,-5.1394,-5.1394,-5.1394,-5.1394,-5.1394,-5.1394,-5.1394,-5.1394,-5.1394,-5.1394,-5.1394,-5.1394,-5.1394,-5.118,-5.0798,-5.0348,-4.9724,-4.9335,-4.876,-4.8472,-4.7451,-4.7034,-4.6586,-4.6148,-4.6013,-4.6002,-4.5982,-4.5982,-4.5982,-4.5982,-4.5982,-4.5982,-4.5982,-4.5982,-4.5982,-4.5982,-4.5982,-4.5982,-4.5982,-4.5982,-4.5982,-4.5982,-4.5982,-4.5982,-4.5982,-4.5982,-4.5982,-4.5982,-4.5982,-4.5982,-4.5982,-4.5982,-4.5982,-4.5982,-4.5982,-4.5982,-4.5982,-4.5982,-4.5982,-4.5982,-4.5982,-4.5982,-4.5982,-4.5982,-4.5982,-4.5982,-4.5982,-4.5961,-4.5964,-4.5947,-4.588,-4.5791,-4.5692,-4.5593,-4.554,-4.5513,-4.5485,-4.5438,-4.5429,-4.5419,-4.5399,-4.535,-4.5329,-4.5277,-4.5277,-4.5277,-4.5277,-4.5277,-4.5125,-4.4571,-4.3663,-4.2449,-4.1408,-4.0557,-4.014,-3.9878,-3.9792,-3.9754,-5.1171,-5.1292,-5.13,-5.13,-5.1304,-5.1307,-5.1352,-5.1399,-5.1388,-5.1394,-5.1394,-5.1394,-5.1394,-5.1394,-5.1394,-5.1394,-5.1394,-5.1394,-5.1394,-5.1394,-5.1394,-5.1394,-5.1394,-5.1394,-5.1394,-5.1394,-5.1394,-5.1394,-5.1375,-5.1141,-5.0748,-5.017,-4.9759,-4.8984,-4.8201,-4.7684,-4.7465,-4.7014,-4.6632,-4.632,-4.6098,-4.605,-4.6022,-4.6013,-4.6017,-4.6002,-4.5982,-4.5982,-4.5982,-4.5982,-4.5982,-4.5982,-4.5982,-4.5982,-4.5982,-4.5982,-4.5982,-4.5982,-4.5982,-4.5982,-4.5982,-4.5982,-4.5982,-4.5982,-4.5982,-4.5982,-4.5982,-4.5982,-4.5982,-4.5982,-4.5982,-4.5982,-4.5982,-4.5982,-4.5982,-4.5982,-4.5982,-4.5982,-4.5982,-4.5982,-4.5982,-4.5982,-4.5982,-4.5982,-4.5982,-4.5991,-4.5975,-4.5947,-4.5874,-4.5866,-4.5769,-4.57,-4.5684,-4.5657,-4.5616,-4.5549,-4.5531,-4.5504,-4.5458,-4.5419,-4.536,-4.5329,-4.535,-4.536,-4.5309,-4.5001,-4.4399,-4.3634,-4.2698,-4.1733,-4.0864,-4.0375,-4.0119,-3.9951,-3.9878,-5.1171,-5.1296,-5.13,-5.13,-5.1304,-5.1303,-5.1333,-5.1396,-5.1401,-5.1386,-5.1394,-5.1394,-5.1394,-5.1394,-5.1394,-5.1394,-5.1394,-5.1394,-5.1394,-5.1394,-5.1394,-5.1394,-5.1394,-5.1394,-5.1394,-5.1355,-5.1355,-5.1238,-5.1141,-5.0867,-5.0028,-4.927,-4.8792,-4.8054,-4.7529,-4.6946,-4.6757,-4.6566,-4.6314,-4.6228,-4.6153,-4.6105,-4.608,-4.606,-4.6042,-4.6008,-4.5998,-4.5988,-4.5982,-4.5982,-4.5982,-4.5982,-4.5982,-4.5982,-4.5982,-4.5982,-4.5982,-4.5982,-4.5982,-4.5982,-4.5982,-4.5982,-4.5982,-4.5982,-4.5982,-4.5982,-4.5982,-4.5982,-4.5982,-4.5982,-4.5982,-4.5982,-4.5982,-4.5982,-4.5982,-4.5982,-4.5982,-4.5982,-4.5982,-4.5982,-4.5982,-4.5982,-4.5982,-4.5982,-4.5982,-4.5982,-4.5997,-4.598,-4.5958,-4.5931,-4.5899,-4.584,-4.5805,-4.5771,-4.5719,-4.5648,-4.564,-4.5624,-4.5575,-4.5531,-4.5531,-4.5504,-4.5457,-4.5409,-4.5329,-4.4848,-4.4159,-4.3501,-4.3061,-4.2106,-4.1265,-4.0768,-4.0365,-4.02,-4.0024,-5.1086,-5.1225,-5.1269,-5.13,-5.13,-5.1296,-5.1317,-5.1361,-5.1394,-5.1403,-5.1388,-5.1392,-5.1394,-5.1394,-5.1394,-5.1394,-5.1394,-5.1394,-5.1394,-5.1394,-5.1394,-5.1394,-5.1394,-5.1316,-5.1121,-5.1063,-5.0809,-5.0555,-5.0379,-4.9911,-4.915,-4.8369,-4.7723,-4.743,-4.7043,-4.6601,-4.6378,-4.6289,-4.6226,-4.6202,-4.6191,-4.615,-4.6147,-4.6128,-4.6088,-4.605,-4.6032,-4.6022,-4.6007,-4.6002,-4.5982,-4.5982,-4.5982,-4.5982,-4.5982,-4.5982,-4.5982,-4.5982,-4.5982,-4.5982,-4.5982,-4.5982,-4.5982,-4.5982,-4.5982,-4.5982,-4.5982,-4.5982,-4.5982,-4.5982,-4.5982,-4.5982,-4.5982,-4.5982,-4.5982,-4.5982,-4.5982,-4.5982,-4.5982,-4.5982,-4.5982,-4.5982,-4.5982,-4.5982,-4.5982,-4.5982,-4.5982,-4.5997,-4.5986,-4.5964,-4.5966,-4.5943,-4.5886,-4.5841,-4.5794,-4.5771,-4.5764,-4.5734,-4.5673,-4.5648,-4.5665,-4.5582,-4.5485,-4.5409,-4.5359,-4.4888,-4.4494,-4.4083,-4.3567,-4.2679,-4.1858,-4.1294,-4.0826,-4.0444,-4.0241,-5.0925,-5.1117,-5.1243,-5.13,-5.13,-5.13,-5.1292,-5.1314,-5.1361,-5.1396,-5.1399,-5.1388,-5.1388,-5.1386,-5.1386,-5.1388,-5.1386,-5.1386,-5.1388,-5.1373,-5.139,-5.1334,-5.116,-5.1219,-5.0633,-5.0221,-4.9909,-4.9657,-4.8974,-4.8642,-4.833,-4.7547,-4.743,-4.71,-4.6534,-4.6417,-4.629,-4.6277,-4.6248,-4.623,-4.6211,-4.6204,-4.6206,-4.6181,-4.6131,-4.6105,-4.6087,-4.6063,-4.6032,-4.6017,-4.6002,-4.6002,-4.5982,-4.5982,-4.5982,-4.5982,-4.5982,-4.5982,-4.5982,-4.5982,-4.5982,-4.5982,-4.5982,-4.5982,-4.5982,-4.5982,-4.5982,-4.5982,-4.5982,-4.5982,-4.5982,-4.5982,-4.5982,-4.5982,-4.5982,-4.5982,-4.5982,-4.5982,-4.5982,-4.5982,-4.5982,-4.5982,-4.5982,-4.5982,-4.5982,-4.5982,-4.5982,-4.5982,-4.5997,-4.5991,-4.5986,-4.598,-4.5958,-4.591,-4.5929,-4.5899,-4.5893,-4.586,-4.5786,-4.5778,-4.5787,-4.5645,-4.5476,-4.54,-4.5328,-4.5317,-4.501,-4.4628,-4.4197,-4.3586,-4.2775,-4.1915,-4.1332,-4.0883,-4.0454,-5.0925,-5.1092,-5.1243,-5.13,-5.13,-5.13,-5.13,-5.1312,-5.1294,-5.1352,-5.14,-5.1383,-5.1386,-5.1389,-5.1389,-5.1389,-5.1389,-5.1391,-5.1394,-5.1321,-5.1303,-5.082,-5.0512,-5.0375,-4.9889,-4.9384,-4.8993,-4.864,-4.8057,-4.7783,-4.749,-4.6749,-4.669,-4.6515,-4.6339,-4.6302,-4.6302,-4.6302,-4.629,-4.6258,-4.6261,-4.623,-4.6209,-4.6186,-4.6173,-4.6171,-4.6153,-4.6115,-4.6103,-4.6088,-4.6037,-4.6012,-4.5982,-4.5982,-4.5982,-4.5982,-4.5982,-4.5982,-4.5982,-4.5982,-4.5982,-4.5982,-4.5982,-4.5982,-4.5982,-4.5982,-4.5982,-4.5982,-4.5982,-4.5982,-4.5982,-4.5982,-4.5982,-4.5982,-4.5982,-4.5982,-4.5982,-4.5982,-4.5982,-4.5982,-4.5982,-4.5982,-4.5982,-4.5982,-4.5982,-4.5982,-4.5982,-4.5982,-4.5982,-4.5997,-4.5997,-4.5991,-4.5997,-4.5986,-4.5991,-4.598,-4.5966,-4.5966,-4.5898,-4.5898,-4.5892,-4.573,-4.5558,-4.54,-4.5307,-4.5277,-4.5277,-4.5201,-4.4762,-4.4246,-4.3643,-4.2794,-4.1953,-4.1409,-4.0883,-5.0801,-5.0998,-5.1205,-5.13,-5.13,-5.13,-5.13,-5.13,-5.1292,-5.1323,-5.1356,-5.1385,-5.1394,-5.1394,-5.1394,-5.1333,-5.1355,-5.1394,-5.1068,-5.0918,-5.0728,-5.0206,-4.984,-4.9491,-4.8925,-4.84,-4.7836,-4.7387,-4.7137,-4.6983,-4.6671,-4.6341,-4.6302,-4.6302,-4.6302,-4.6302,-4.6302,-4.6302,-4.6302,-4.6302,-4.6302,-4.6258,-4.6245,-4.6248,-4.621,-4.6205,-4.6194,-4.6173,-4.6172,-4.6128,-4.608,-4.6063,-4.6041,-4.6008,-4.5988,-4.5982,-4.5982,-4.5982,-4.5982,-4.5982,-4.5982,-4.5982,-4.5982,-4.5982,-4.5982,-4.5982,-4.5982,-4.5982,-4.5982,-4.5982,-4.5982,-4.5982,-4.5982,-4.5982,-4.5982,-4.5982,-4.5982,-4.5982,-4.5982,-4.5982,-4.5982,-4.5982,-4.5982,-4.5982,-4.5982,-4.5982,-4.5982,-4.5982,-4.5982,-4.5982,-4.5982,-4.5982,-4.5982,-4.5982,-4.5997,-4.5997,-4.5991,-4.5997,-4.5982,-4.5904,-4.5848,-4.5757,-4.5624,-4.5448,-4.5319,-4.5277,-4.5277,-4.5307,-4.525,-4.4819,-4.4265,-4.3643,-4.2813,-4.1972,-4.138,-5.0678,-5.0855,-5.1146,-5.1261,-5.1288,-5.1296,-5.13,-5.13,-5.13,-5.13,-5.1308,-5.1356,-5.1385,-5.1388,-5.1213,-5.1213,-5.1054,-5.068,-5.0371,-5.0104,-4.9931,-4.9354,-4.8908,-4.8577,-4.8033,-4.7431,-4.6848,-4.6642,-4.6472,-4.6433,-4.6454,-4.6319,-4.6302,-4.6302,-4.6302,-4.6302,-4.6302,-4.6302,-4.6302,-4.6302,-4.6302,-4.6302,-4.6305,-4.6274,-4.6244,-4.621,-4.6211,-4.6206,-4.6212,-4.6175,-4.6131,-4.6125,-4.6111,-4.6072,-4.6032,-4.6022,-4.6012,-4.6007,-4.5982,-4.5982,-4.5982,-4.5982,-4.5982,-4.5982,-4.5982,-4.5982,-4.5982,-4.5982,-4.5982,-4.5982,-4.5982,-4.5982,-4.5982,-4.5982,-4.5982,-4.5982,-4.5982,-4.5982,-4.5982,-4.5982,-4.5982,-4.5982,-4.5982,-4.5982,-4.5982,-4.5982,-4.5982,-4.5982,-4.5982,-4.5982,-4.5982,-4.5982,-4.5982,-4.5982,-4.5982,-4.5982,-4.5982,-4.5982,-4.5966,-4.5867,-4.58,-4.5791,-4.57,-4.5495,-4.539,-4.537,-4.5319,-4.5338,-4.527,-4.5203,-4.4857,-4.4284,-4.351,-4.2679,-4.1915,-5.0689,-5.0813,-5.1042,-5.1139,-5.115,-5.1248,-5.13,-5.13,-5.1296,-5.13,-5.1219,-5.1285,-5.1312,-5.1234,-5.0513,-5.0263,-5.0212,-4.9838,-4.9396,-4.9052,-4.9036,-4.846,-4.7961,-4.7708,-4.7184,-4.6718,-4.635,-4.6297,-4.6267,-4.6288,-4.6292,-4.63,-4.63,-4.63,-4.63,-4.63,-4.63,-4.63,-4.63,-4.6302,-4.6302,-4.6302,-4.6302,-4.6285,-4.6287,-4.629,-4.6278,-4.623,-4.6211,-4.6187,-4.6174,-4.6177,-4.6155,-4.6122,-4.6084,-4.6063,-4.6036,-4.6017,-4.6012,-4.6002,-4.5982,-4.5982,-4.5982,-4.5982,-4.5982,-4.5982,-4.5982,-4.5982,-4.5982,-4.5982,-4.5982,-4.5982,-4.5982,-4.5982,-4.5982,-4.5982,-4.5982,-4.5982,-4.5982,-4.5982,-4.5982,-4.5982,-4.5982,-4.5982,-4.5982,-4.5982,-4.5982,-4.5982,-4.5982,-4.5982,-4.5982,-4.5982,-4.5982,-4.5982,-4.5982,-4.5982,-4.5982,-4.5982,-4.5986,-4.5917,-4.5887,-4.5886,-4.5761,-4.5584,-4.5504,-4.5476,-4.5448,-4.5409,-4.5339,-4.5291,-4.5279,-4.4876,-4.4131,-4.3376,-4.2584]},{"header":{"parameterUnit":"m.s-1","parameterCategory":1,"la1":31.0,"la2":29.5877,"lo1":-88.7671,"lo2":-86.6584,"dy":0.0162,"dx":0.0185,"nx":115,"ny":88,"refTime":"2023-04-29T12:00:00:Z","depth":0,"parameterNumber":3,"parameterNumberName":"V-component_of_WINDS"},"data":[0.0,0.0,0.0,0.0,0.0,0.0,0.0,0.0,0.0,0.0,0.0,0.0,0.0,0.0,0.0,0.0,0.0,0.0,0.0,0.0,0.0,0.0,0.0,0.0,0.0,0.0,0.0,0.0,0.0,0.0,0.0,0.0,0.0,0.0,0.0,0.0,0.0,0.0,0.0,0.0,0.0,0.0,0.0,0.0,0.0,0.0,0.0,0.0,0.0,0.0,0.0,0.0,0.0,0.0,0.0,0.0,0.0,0.0,0.0,0.0,0.0,0.0,0.0,0.0,0.0,0.0,0.0,0.0,0.0,0.0,0.0,0.0,0.0,0.0,0.0,0.0,0.0,0.0,0.0,0.0,0.0,0.0,0.0,0.0,0.0,0.0,0.0,0.0,0.0,0.0,0.0,0.0,0.0,0.0,0.0,0.0,0.0,0.0,0.0,0.0,0.0,0.0,0.0,0.0,0.0,0.0,0.0,0.0,0.0,0.0,0.0,0.0,0.0,0.0,0.0,0.0,0.0,0.0,0.0,0.0,0.0,0.0,0.0,0.0,0.0,0.0,0.0,0.0,0.0,0.0,0.0,0.0,0.0,0.0,0.0,0.0,0.0,0.0,0.0,0.0,0.0,0.0,0.0,0.0,0.0,0.0,0.0,0.0,0.0,0.0,0.0,0.0,0.0,0.0,0.0,0.0,0.0,0.0,0.0,0.0,0.0,0.0,0.0,0.0,0.0,0.0,0.0,0.0,0.0,0.0,0.0,0.0,0.0,0.0,0.0,0.0,0.0,0.0,0.0,0.0,0.0,0.0,0.0,0.0,0.0,0.0,0.0,0.0,0.0,0.0,0.0,0.0,0.0,0.0,0.0,0.0,0.0,0.0,0.0,0.0,0.0,0.0,0.0,0.0,0.0,0.0,0.0,0.0,0.0,0.0,0.0,0.0,0.0,0.0,0.0,0.0,0.0,0.0,0.0,0.0,0.0,0.0,0.0,0.0,0.0,0.0,0.0,0.0,0.0,0.0,0.0,0.0,0.0,0.0,0.0,0.0,0.0,0.0,0.0,0.0,0.0,0.0,0.0,0.0,0.0,0.0,0.0,0.0,0.0,0.0,0.0,0.0,0.0,0.0,0.0,0.0,0.0,0.0,0.0,0.0,0.0,0.0,0.0,0.0,0.0,0.0,0.0,0.0,0.0,0.0,0.0,0.0,0.0,0.0,0.0,0.0,0.0,0.0,0.0,0.0,0.0,0.0,0.0,0.0,0.0,0.0,0.0,0.0,0.0,0.0,0.0,0.0,0.0,0.0,0.0,0.0,0.0,0.0,0.0,0.0,0.0,0.0,0.0,0.0,0.0,0.0,0.0,0.0,0.0,0.0,0.0,0.0,0.0,0.0,0.0,0.0,0.0,0.0,0.0,0.0,0.0,0.0,0.0,0.0,0.0,0.0,0.0,0.0,0.0,0.0,0.0,0.0,0.0,0.0,0.0,0.0,0.0,0.0,0.0,0.0,0.0,0.0,0.0,0.0,0.0,0.0,0.0,0.0,0.0,0.0,0.0,0.0,0.0,0.0,0.0,0.0,0.0,0.0,0.0,0.0,0.0,0.0,0.0,0.0,0.0,0.0,0.0,0.0,0.0,0.0,0.0,0.0,0.0,0.0,0.0,0.0,0.0,0.0,0.0,0.0,0.0,0.0,0.0,0.0,0.0,0.0,0.0,0.0,0.0,0.0,0.0,0.0,0.0,0.0,0.0,0.0,0.0,0.0,0.0,0.0,0.0,0.0,0.0,0.0,0.0,0.0,0.0,0.0,0.0,0.0,0.0,0.0,0.0,0.0,0.0,0.0,0.0,0.0,0.0,0.0,0.0,0.0,0.0,0.0,0.0,0.0,0.0,0.0,0.0,0.0,0.0,0.0,0.0,0.0,0.0,0.0,0.0,0.0,0.0,0.0,0.0,0.0,0.0,0.0,0.0,0.0,0.0,0.0,0.0,0.0,0.0,0.0,0.0,0.0,0.0,0.0,0.0,0.0,0.0,0.0,0.0,0.0,0.0,0.0,0.0,0.0,0.0,0.0,0.0,0.0,0.0,0.0,0.0,0.0,0.0,0.0,0.0,0.0,0.0,0.0,0.0,0.0,0.0,0.0,0.0,0.0,0.0,0.0,0.0,0.0,0.0,0.0,0.0,0.0,0.0,0.0,0.0,0.0,0.0,0.0,0.0,0.0,0.0,0.0,0.0,0.0,0.0,0.0,0.0,0.0,0.0,0.0,0.0,0.0,0.0,0.0,0.0,0.0,0.0,0.0,0.0,0.0,0.0,0.0,0.0,0.0,0.0,0.0,0.0,0.0,0.0,0.0,0.0,0.0,0.0,0.0,0.0,0.0,0.0,0.0,0.0,0.0,0.0,0.0,0.0,0.0,0.0,0.0,0.0,0.0,0.0,0.0,0.0,0.0,0.0,0.0,0.0,0.0,0.0,0.0,0.0,0.0,0.0,0.0,0.0,0.0,0.0,0.0,0.0,0.0,0.0,0.0,0.0,0.0,0.0,0.0,0.0,0.0,0.0,0.0,0.0,0.0,0.0,0.0,0.0,0.0,0.0,0.0,0.0,0.0,0.0,0.0,0.0,0.0,0.0,0.0,0.0,0.0,0.0,0.0,0.0,0.0,0.0,0.0,0.0,0.0,0.0,0.0,0.0,0.0,0.0,0.0,0.0,0.0,0.0,0.0,0.0,0.0,0.0,0.0,0.0,0.0,0.0,0.0,0.0,0.0,0.0,0.0,0.0,0.0,0.0,0.0,0.0,0.0,0.0,0.0,0.0,0.0,0.0,0.0,0.0,0.0,0.0,0.0,0.0,0.0,0.0,0.0,0.0,0.0,0.0,0.0,0.0,0.0,0.0,0.0,0.0,0.0,0.0,0.0,0.0,0.0,0.0,0.0,0.0,0.0,0.0,0.0,0.0,0.0,0.0,0.0,0.0,0.0,0.0,0.0,0.0,0.0,0.0,0.0,0.0,0.0,0.0,0.0,0.0,0.0,0.0,0.0,0.0,0.0,0.0,0.0,0.0,0.0,0.0,0.0,0.0,0.0,0.0,0.0,0.0,0.0,0.0,0.0,0.0,0.0,0.0,0.0,0.0,0.0,0.0,0.0,0.0,0.0,0.0,0.0,0.0,0.0,0.0,0.0,0.0,0.0,0.0,0.0,0.0,0.0,0.0,0.0,0.0,0.0,0.0,0.0,0.0,0.0,0.0,0.0,0.0,0.0,0.0,0.0,0.0,0.0,0.0,0.0,0.0,0.0,0.0,0.0,0.0,0.0,0.0,0.0,0.0,0.0,0.0,0.0,0.0,0.0,0.0,0.0,0.0,0.0,0.0,0.0,0.0,0.0,0.0,0.0,0.0,0.0,0.0,0.0,0.0,0.0,0.0,0.0,0.0,0.0,0.0,0.0,0.0,0.0,0.0,0.0,0.0,0.0,0.0,0.0,0.0,0.0,0.0,0.0,0.0,0.0,0.0,0.0,0.0,0.0,0.0,0.0,0.0,0.0,0.0,0.0,0.0,0.0,0.0,0.0,0.0,0.0,0.0,0.0,0.0,0.0,0.0,0.0,0.0,0.0,0.0,0.0,0.0,0.0,0.0,0.0,0.0,0.0,0.0,0.0,0.0,0.0,0.0,0.0,0.0,0.0,0.0,0.0,0.0,0.0,0.0,0.0,0.0,0.0,0.0,0.0,0.0,0.0,0.0,0.0,0.0,0.0,0.0,0.0,0.0,0.0,0.0,0.0,0.0,0.0,0.0,0.0,0.0,0.0,0.0,0.0,0.0,0.0,0.0,0.0,0.0,0.0,0.0,0.0,0.0,0.0,0.0,0.0,0.0,0.0,0.0,0.0,0.0,0.0,0.0,0.0,0.0,0.0,0.0,0.0,0.0,0.0,0.0,0.0,0.0,0.0,0.0,0.0,0.0,0.0,0.0,0.0,0.0,0.0,0.0,0.0,0.0,0.0,0.0,0.0,0.0,0.0,0.0,0.0,0.0,0.0,0.0,0.0,0.0,0.0,0.0,0.0,0.0,0.0,0.0,0.0,0.0,0.0,0.0,0.0,0.0,0.0,0.0,0.0,0.0,0.0,0.0,0.0,0.0,0.0,0.0,0.0,0.0,0.0,0.0,0.0,0.0,0.0,0.0,0.0,0.0,0.0,0.0,0.0,0.0,0.0,0.0,0.0,0.0,0.0,0.0,0.0,0.0,0.0,0.0,0.0,0.0,0.0,-0.8829,0.0,0.0,0.0,0.0,0.0,0.0,0.0,0.0,0.0,0.0,0.0,0.0,0.0,0.0,0.0,0.0,0.0,0.0,0.0,0.0,0.0,0.0,0.0,0.0,0.0,0.0,0.0,0.0,0.0,0.0,0.0,0.0,0.0,0.0,0.0,0.0,0.0,0.0,0.0,0.0,0.0,0.0,0.0,0.0,0.0,0.0,0.0,0.0,0.0,0.0,0.0,0.0,0.0,0.0,0.0,0.0,0.0,0.0,0.0,0.0,0.0,0.0,0.0,0.0,0.0,0.0,0.0,0.0,0.0,0.0,0.0,0.0,0.0,0.0,0.0,0.0,0.0,0.0,0.0,0.0,0.0,0.0,0.0,0.0,0.0,0.0,0.0,0.0,0.0,0.0,0.0,0.0,0.0,0.0,0.0,0.0,0.0,0.0,0.0,0.0,0.0,0.0,0.0,0.0,0.0,0.0,0.0,0.0,0.0,0.0,-0.7988,-0.7988,-0.8283,-0.8531,-0.8775,0.0,0.0,0.0,0.0,0.0,0.0,0.0,0.0,0.0,0.0,0.0,0.0,0.0,0.0,0.0,0.0,0.0,0.0,0.0,0.0,0.0,0.0,0.0,0.0,0.0,0.0,0.0,0.0,0.0,0.0,0.0,0.0,0.0,0.0,0.0,0.0,0.0,0.0,0.0,0.0,0.0,0.0,0.0,0.0,0.0,0.0,0.0,0.0,0.0,0.0,0.0,0.0,0.0,0.0,0.0,0.0,0.0,0.0,0.0,0.0,0.0,0.0,0.0,0.0,0.0,0.0,0.0,0.0,0.0,0.0,0.0,0.0,0.0,0.0,0.0,0.0,0.0,0.0,0.0,0.0,0.0,0.0,0.0,0.0,0.0,0.0,0.0,0.0,0.0,0.0,0.0,0.0,0.0,0.0,0.0,0.0,0.0,0.0,0.0,0.0,0.0,0.0,0.0,0.0,0.0,0.0,0.0,0.0,0.0,0.0,0.0,0.0,-0.8184,-0.8478,-0.8825,0.0,0.0,0.0,0.0,0.0,0.0,0.0,0.0,0.0,0.0,0.0,0.0,0.0,0.0,0.0,0.0,0.0,0.0,0.0,0.0,0.0,0.0,0.0,0.0,0.0,0.0,0.0,0.0,0.0,0.0,0.0,0.0,0.0,0.0,0.0,0.0,0.0,0.0,0.0,0.0,0.0,0.0,0.0,0.0,0.0,0.0,0.0,0.0,0.0,0.0,0.0,0.0,0.0,0.0,0.0,0.0,0.0,0.0,0.0,0.0,0.0,0.0,0.0,0.0,0.0,0.0,0.0,0.0,0.0,0.0,0.0,0.0,0.0,0.0,0.0,0.0,0.0,0.0,0.0,0.0,0.0,0.0,0.0,0.0,0.0,0.0,0.0,0.0,0.0,0.0,0.0,0.0,0.0,0.0,0.0,0.0,0.0,0.0,0.0,0.0,0.0,0.0,0.0,0.0,0.0,0.0,0.0,0.0,0.0,0.0,-0.7988,-0.7988,-0.8038,0.0,-0.8775,0.0,0.0,0.0,0.0,0.0,0.0,0.0,0.0,0.0,0.0,0.0,0.0,0.0,0.0,0.0,0.0,0.0,0.0,0.0,0.0,0.0,0.0,0.0,0.0,0.0,0.0,0.0,0.0,0.0,0.0,0.0,0.0,0.0,0.0,0.0,0.0,0.0,0.0,0.0,0.0,0.0,0.0,0.0,0.0,0.0,0.0,0.0,0.0,0.0,0.0,0.0,0.0,0.0,0.0,0.0,0.0,0.0,0.0,0.0,0.0,0.0,0.0,0.0,0.0,0.0,0.0,0.0,0.0,0.0,0.0,0.0,0.0,0.0,0.0,0.0,0.0,0.0,0.0,0.0,0.0,0.0,0.0,0.0,0.0,0.0,0.0,0.0,0.0,0.0,0.0,0.0,0.0,0.0,0.0,0.0,0.0,0.0,0.0,0.0,0.0,0.0,0.0,0.0,0.0,0.0,0.0,0.0,0.0,0.0,0.0,-0.7988,-0.7988,-0.8137,-0.8382,0.0,0.0,0.0,0.0,0.0,0.0,0.0,0.0,0.0,0.0,0.0,0.0,0.0,0.0,0.0,0.0,0.0,0.0,0.0,0.0,0.0,0.0,0.0,0.0,0.0,0.0,0.0,0.0,0.0,0.0,0.0,0.0,0.0,0.0,0.0,0.0,0.0,0.0,0.0,0.0,0.0,0.0,0.0,0.0,0.0,0.0,0.0,0.0,0.0,0.0,0.0,0.0,0.0,0.0,0.0,0.0,0.0,0.0,0.0,0.0,0.0,0.0,0.0,0.0,0.0,0.0,0.0,0.0,0.0,0.0,0.0,0.0,0.0,0.0,0.0,0.0,0.0,0.0,0.0,0.0,0.0,0.0,0.0,0.0,0.0,0.0,0.0,0.0,0.0,0.0,0.0,0.0,0.0,0.0,0.0,0.0,0.0,0.0,0.0,0.0,0.0,0.0,0.0,0.0,0.0,0.0,0.0,0.0,0.0,0.0,-0.7988,-0.7988,-0.7988,-0.8187,-0.8432,-0.8775,0.0,0.0,0.0,0.0,0.0,0.0,0.0,0.0,0.0,0.0,0.0,0.0,0.0,0.0,0.0,0.0,0.0,0.0,0.0,0.0,0.0,0.0,0.0,0.0,0.0,0.0,0.0,0.0,0.0,0.0,0.0,0.0,0.0,0.0,0.0,0.0,0.0,0.0,0.0,0.0,0.0,0.0,0.0,0.0,0.0,0.0,0.0,0.0,0.0,0.0,0.0,0.0,0.0,0.0,0.0,0.0,0.0,0.0,0.0,0.0,0.0,0.0,0.0,0.0,0.0,0.0,0.0,0.0,0.0,0.0,0.0,0.0,0.0,0.0,0.0,0.0,0.0,0.0,0.0,0.0,0.0,0.0,0.0,0.0,0.0,0.0,0.0,0.0,0.0,0.0,0.0,0.0,0.0,0.0,0.0,0.0,0.0,0.0,0.0,0.0,0.0,0.0,0.0,0.0,0.0,0.0,0.0,0.0,-0.7988,-0.7988,-0.7988,-0.7988,-0.8038,-0.8283,0.0,0.0,0.0,0.0,0.0,0.0,0.0,0.0,0.0,0.0,0.0,0.0,0.0,0.0,0.0,0.0,0.0,0.0,0.0,0.0,0.0,0.0,0.0,0.0,0.0,0.0,0.0,0.0,0.0,0.0,0.0,0.0,0.0,0.0,0.0,0.0,0.0,0.0,0.0,0.0,0.0,0.0,0.0,0.0,0.0,0.0,0.0,0.0,0.0,0.0,0.0,0.0,0.0,0.0,0.0,0.0,0.0,0.0,0.0,0.0,0.0,0.0,0.0,0.0,0.0,0.0,0.0,0.0,0.0,0.0,0.0,0.0,0.0,0.0,0.0,0.0,0.0,0.0,0.0,0.0,0.0,0.0,0.0,0.0,0.0,0.0,0.0,0.0,0.0,0.0,0.0,0.0,0.0,0.0,0.0,0.0,0.0,0.0,0.0,0.0,0.0,0.0,0.0,0.0,0.0,0.0,0.0,0.0,0.0,-0.7988,-0.7988,-0.7988,-0.7988,-0.7988,-0.8233,0.0,0.0,0.0,0.0,0.0,0.0,0.0,0.0,0.0,0.0,0.0,0.0,0.0,0.0,0.0,0.0,0.0,0.0,0.0,0.0,0.0,0.0,0.0,0.0,0.0,0.0,0.0,0.0,0.0,0.0,0.0,0.0,0.0,0.0,0.0,0.0,0.0,0.0,0.0,0.0,0.0,0.0,0.0,0.0,0.0,0.0,0.0,0.0,0.0,0.0,0.0,0.0,0.0,0.0,0.0,0.0,0.0,0.0,0.0,0.0,0.0,0.0,0.0,0.0,0.0,0.0,0.0,0.0,0.0,0.0,0.0,0.0,0.0,0.0,0.0,0.0,0.0,0.0,0.0,0.0,0.0,0.0,0.0,0.0,0.0,0.0,0.0,0.0,0.0,0.0,0.0,0.0,0.0,0.0,0.0,0.0,0.0,0.0,0.0,0.0,0.0,0.0,0.0,0.0,0.0,0.0,0.0,0.0,0.0,-0.7988,0.0,-0.7988,-0.7988,-0.7988,-0.8233,0.0,0.0,0.0,0.0,0.0,0.0,0.0,0.0,0.0,0.0,0.0,0.0,0.0,0.0,0.0,0.0,0.0,0.0,0.0,0.0,0.0,0.0,0.0,0.0,0.0,0.0,0.0,0.0,0.0,0.0,0.0,0.0,0.0,0.0,0.0,0.0,0.0,0.0,0.0,0.0,0.0,0.0,0.0,0.0,0.0,0.0,0.0,0.0,0.0,0.0,0.0,0.0,0.0,0.0,0.0,0.0,0.0,0.0,0.0,0.0,0.0,0.0,0.0,0.0,0.0,0.0,0.0,0.0,0.0,0.0,0.0,0.0,0.0,0.0,0.0,0.0,0.0,0.0,0.0,0.0,0.0,0.0,0.0,0.0,0.0,0.0,0.0,0.0,0.0,0.0,0.0,0.0,0.0,0.0,0.0,0.0,0.0,0.0,0.0,0.0,0.0,0.0,0.0,0.0,0.0,0.0,0.0,0.0,-0.7988,-0.7988,-0.7988,-0.7988,-0.7988,-0.7988,-0.8233,0.0,0.0,0.0,0.0,0.0,0.0,0.0,0.0,0.0,0.0,0.0,0.0,0.0,0.0,0.0,0.0,0.0,0.0,0.0,0.0,0.0,0.0,0.0,0.0,0.0,0.0,0.0,0.0,0.0,0.0,0.0,0.0,0.0,0.0,0.0,0.0,0.0,0.0,0.0,0.0,0.0,0.0,0.0,0.0,0.0,0.0,0.0,0.0,0.0,0.0,0.0,0.0,0.0,0.0,0.0,0.0,0.0,0.0,0.0,0.0,0.0,0.0,0.0,0.0,0.0,0.0,0.0,0.0,0.0,0.0,0.0,0.0,0.0,0.0,0.0,0.0,0.0,0.0,0.0,0.0,0.0,0.0,0.0,0.0,0.0,0.0,0.0,0.0,0.0,0.0,0.0,0.0,0.0,0.0,0.0,0.0,0.0,0.0,0.0,0.0,0.0,0.0,0.0,0.0,0.0,0.0,0.0,0.0,0.0,-0.7988,-0.7988,-0.7988,-0.7988,-0.7988,-0.8137,0.0,0.0,0.0,0.0,0.0,0.0,0.0,0.0,0.0,0.0,0.0,0.0,0.0,0.0,0.0,0.0,0.0,0.0,0.0,0.0,0.0,0.0,0.0,0.0,0.0,0.0,0.0,0.0,0.0,0.0,0.0,0.0,0.0,0.0,0.0,0.0,0.0,0.0,0.0,0.0,0.0,0.0,0.0,0.0,0.0,0.0,0.0,0.0,0.0,0.0,0.0,0.0,0.0,0.0,0.0,0.0,0.0,0.0,0.0,0.0,0.0,0.0,0.0,0.0,0.0,0.0,0.0,0.0,0.0,0.0,0.0,0.0,0.0,0.0,0.0,0.0,0.0,0.0,0.0,0.0,0.0,0.0,0.0,0.0,0.0,0.0,0.0,0.0,0.0,0.0,0.0,0.0,0.0,0.0,0.0,0.0,0.0,0.0,0.0,0.0,0.0,0.0,0.0,0.0,0.0,0.0,0.0,0.0,0.0,-0.7988,-0.7988,-0.7988,-0.7988,-0.7988,-0.8137,-0.8382,0.0,0.0,0.0,0.0,0.0,0.0,0.0,0.0,0.0,0.0,0.0,0.0,0.0,0.0,0.0,0.0,0.0,0.0,0.0,0.0,0.0,0.0,0.0,0.0,0.0,0.0,0.0,0.0,0.0,0.0,0.0,0.0,0.0,0.0,0.0,0.0,0.0,0.0,0.0,0.0,0.0,0.0,0.0,0.0,0.0,0.0,0.0,0.0,0.0,0.0,0.0,0.0,0.0,0.0,0.0,0.0,0.0,0.0,0.0,0.0,0.0,0.0,0.0,0.0,0.0,0.0,0.0,0.0,0.0,0.0,0.0,0.0,0.0,0.0,0.0,0.0,0.0,0.0,0.0,0.0,0.0,0.0,0.0,0.0,0.0,0.0,0.0,0.0,0.0,0.0,0.0,0.0,0.0,0.0,0.0,0.0,0.0,0.0,0.0,0.0,0.0,0.0,0.0,0.0,0.0,0.0,0.0,0.0,-0.7988,-0.7988,-0.7988,-0.7988,-0.7988,-0.8137,0.0,0.0,0.0,0.0,0.0,0.0,0.0,0.0,0.0,0.0,0.0,0.0,0.0,0.0,0.0,0.0,0.0,0.0,0.0,0.0,0.0,0.0,0.0,0.0,0.0,0.0,0.0,0.0,0.0,0.0,0.0,0.0,0.0,0.0,0.0,0.0,0.0,0.0,0.0,0.0,0.0,0.0,0.0,0.0,0.0,0.0,0.0,0.0,0.0,0.0,0.0,0.0,0.0,0.0,0.0,0.0,0.0,0.0,0.0,0.0,0.0,0.0,0.0,0.0,0.0,0.0,0.0,0.0,0.0,0.0,0.0,0.0,0.0,0.0,0.0,0.0,0.0,0.0,0.0,0.0,0.0,0.0,0.0,0.0,0.0,0.0,0.0,0.0,0.0,0.0,0.0,0.0,0.0,0.0,0.0,0.0,0.0,0.0,0.0,0.0,0.0,0.0,0.0,0.0,0.0,0.0,0.0,0.0,0.0,-0.7988,-0.7988,-0.7988,-0.7988,-0.7988,-0.8038,0.0,0.0,0.0,0.0,0.0,0.0,0.0,0.0,0.0,0.0,0.0,0.0,0.0,0.0,0.0,0.0,0.0,0.0,0.0,0.0,0.0,0.0,0.0,0.0,0.0,0.0,0.0,0.0,0.0,0.0,0.0,0.0,0.0,0.0,0.0,0.0,0.0,0.0,0.0,0.0,0.0,0.0,0.0,0.0,0.0,0.0,0.0,0.0,0.0,0.0,0.0,0.0,0.0,0.0,0.0,0.0,0.0,0.0,0.0,0.0,0.0,0.0,0.0,0.0,0.0,0.0,0.0,0.0,0.0,0.0,0.0,0.0,0.0,0.0,0.0,0.0,0.0,0.0,0.0,0.0,0.0,0.0,0.0,0.0,0.0,0.0,0.0,0.0,0.0,0.0,0.0,0.0,0.0,0.0,0.0,0.0,0.0,0.0,0.0,0.0,0.0,0.0,0.0,0.0,0.0,0.0,0.0,0.0,-0.7988,-0.7988,-0.7988,-0.7988,-0.7988,-0.7988,-0.8041,0.0,0.0,0.0,0.0,0.0,0.0,0.0,0.0,0.0,0.0,0.0,0.0,0.0,0.0,0.0,0.0,0.0,0.0,0.0,0.0,0.0,0.0,0.0,0.0,0.0,0.0,0.0,0.0,0.0,0.0,0.0,0.0,0.0,0.0,0.0,0.0,0.0,0.0,0.0,0.0,0.0,0.0,0.0,0.0,0.0,0.0,0.0,0.0,0.0,0.0,0.0,0.0,0.0,0.0,0.0,0.0,0.0,0.0,0.0,0.0,0.0,0.0,0.0,0.0,0.0,0.0,0.0,0.0,0.0,0.0,0.0,0.0,0.0,0.0,0.0,0.0,0.0,0.0,0.0,0.0,0.0,0.0,0.0,0.0,0.0,0.0,0.0,0.0,0.0,0.0,0.0,0.0,0.0,0.0,0.0,0.0,0.0,0.0,0.0,0.0,0.0,0.0,0.0,0.0,0.0,0.0,0.0,0.0,-0.7988,-0.7988,-0.7988,-0.7988,-0.7988,-0.7988,-0.8137,0.0,0.0,0.0,0.0,0.0,0.0,0.0,0.0,0.0,0.0,0.0,0.0,0.0,0.0,0.0,0.0,0.0,0.0,0.0,0.0,0.0,0.0,0.0,0.0,0.0,0.0,0.0,0.0,0.0,0.0,0.0,0.0,0.0,0.0,0.0,0.0,0.0,0.0,0.0,0.0,0.0,0.0,0.0,0.0,0.0,0.0,0.0,0.0,0.0,0.0,0.0,0.0,0.0,0.0,0.0,0.0,0.0,0.0,0.0,0.0,0.0,0.0,0.0,0.0,0.0,0.0,0.0,0.0,0.0,0.0,0.0,0.0,0.0,0.0,0.0,0.0,0.0,0.0,0.0,0.0,0.0,0.0,0.0,0.0,0.0,0.0,0.0,0.0,0.0,0.0,0.0,0.0,0.0,0.0,0.0,0.0,0.0,0.0,0.0,0.0,0.0,0.0,0.0,0.0,0.0,0.0,0.0,0.0,-0.7988,-0.7988,-0.7988,-0.7988,-0.7988,-0.7988,-0.8137,0.0,0.0,0.0,0.0,0.0,0.0,0.0,0.0,0.0,0.0,0.0,0.0,0.0,0.0,0.0,0.0,0.0,0.0,0.0,0.0,0.0,0.0,0.0,0.0,0.0,0.0,0.0,0.0,0.0,0.0,0.0,0.0,0.0,0.0,0.0,0.0,0.0,0.0,0.0,0.0,0.0,0.0,0.0,0.0,0.0,0.0,0.0,0.0,-1.4088,0.0,0.0,0.0,0.0,0.0,0.0,0.0,0.0,0.0,0.0,0.0,0.0,0.0,0.0,0.0,0.0,0.0,0.0,0.0,0.0,0.0,0.0,0.0,0.0,0.0,0.0,0.0,0.0,0.0,0.0,0.0,0.0,0.0,0.0,0.0,0.0,0.0,0.0,0.0,0.0,0.0,0.0,0.0,0.0,0.0,0.0,0.0,0.0,0.0,0.0,0.0,0.0,0.0,0.0,0.0,0.0,0.0,0.0,0.0,-0.7988,-0.7988,-0.7988,-0.7988,-0.7988,-0.7988,-0.8137,0.0,0.0,0.0,0.0,0.0,0.0,0.0,0.0,0.0,0.0,0.0,0.0,0.0,0.0,0.0,0.0,0.0,0.0,0.0,0.0,0.0,0.0,0.0,0.0,0.0,0.0,0.0,0.0,0.0,0.0,0.0,0.0,0.0,0.0,0.0,0.0,0.0,0.0,0.0,0.0,0.0,0.0,0.0,0.0,0.0,0.0,0.0,0.0,0.0,0.0,0.0,0.0,0.0,0.0,0.0,0.0,0.0,0.0,0.0,0.0,0.0,0.0,0.0,0.0,0.0,0.0,0.0,0.0,0.0,0.0,0.0,0.0,0.0,0.0,0.0,0.0,0.0,0.0,0.0,0.0,0.0,0.0,0.0,0.0,0.0,0.0,0.0,0.0,0.0,0.0,0.0,0.0,0.0,0.0,0.0,0.0,0.0,0.0,0.0,0.0,0.0,0.0,0.0,0.0,0.0,0.0,0.0,-0.7988,-0.7988,-0.7988,-0.7988,-0.7988,-0.7988,-0.7988,-0.8137,-0.8333,0.0,0.0,0.0,0.0,0.0,0.0,0.0,0.0,0.0,0.0,0.0,0.0,0.0,0.0,0.0,0.0,0.0,0.0,0.0,0.0,0.0,0.0,0.0,0.0,0.0,0.0,0.0,0.0,0.0,0.0,0.0,0.0,0.0,0.0,0.0,0.0,0.0,0.0,-1.3052,-1.3058,0.0,0.0,0.0,0.0,0.0,0.0,0.0,0.0,-1.3695,0.0,0.0,0.0,0.0,0.0,0.0,0.0,0.0,0.0,0.0,0.0,0.0,0.0,0.0,0.0,0.0,0.0,0.0,0.0,0.0,0.0,0.0,0.0,0.0,0.0,0.0,0.0,0.0,0.0,0.0,0.0,0.0,0.0,0.0,0.0,0.0,0.0,0.0,0.0,0.0,0.0,0.0,0.0,0.0,0.0,0.0,0.0,0.0,0.0,0.0,0.0,0.0,0.0,0.0,0.0,0.0,-0.7988,-0.7988,-0.7988,-0.7988,-0.7988,-0.7988,-0.7988,-0.7988,-0.8038,-0.8088,0.0,0.0,0.0,0.0,0.0,0.0,0.0,0.0,0.0,0.0,0.0,0.0,0.0,0.0,0.0,0.0,0.0,0.0,0.0,0.0,0.0,0.0,0.0,0.0,0.0,0.0,0.0,0.0,0.0,0.0,0.0,0.0,0.0,0.0,0.0,0.0,0.0,0.0,0.0,-1.2747,-1.2833,0.0,0.0,0.0,0.0,0.0,0.0,0.0,0.0,-1.3688,0.0,0.0,0.0,0.0,0.0,0.0,0.0,0.0,0.0,0.0,0.0,0.0,0.0,0.0,0.0,0.0,0.0,0.0,0.0,0.0,0.0,0.0,0.0,0.0,0.0,0.0,0.0,0.0,0.0,0.0,0.0,0.0,0.0,0.0,0.0,0.0,0.0,0.0,0.0,0.0,0.0,0.0,0.0,0.0,0.0,0.0,0.0,0.0,0.0,0.0,0.0,0.0,0.0,0.0,0.0,-0.7988,-0.7988,-0.7988,-0.7988,-0.7988,-0.7988,-0.7988,-0.7988,-0.7988,0.0,0.0,0.0,0.0,0.0,0.0,0.0,0.0,0.0,0.0,0.0,0.0,0.0,0.0,0.0,0.0,0.0,0.0,0.0,0.0,0.0,0.0,0.0,0.0,0.0,0.0,0.0,0.0,0.0,0.0,0.0,0.0,0.0,0.0,0.0,0.0,0.0,0.0,0.0,0.0,-1.2705,-1.279,-1.3052,0.0,0.0,0.0,0.0,0.0,0.0,-1.3398,-1.3525,0.0,0.0,0.0,0.0,0.0,0.0,0.0,0.0,0.0,0.0,0.0,0.0,0.0,0.0,0.0,0.0,0.0,0.0,0.0,0.0,0.0,0.0,0.0,0.0,0.0,0.0,0.0,0.0,0.0,0.0,0.0,0.0,0.0,0.0,0.0,0.0,0.0,0.0,0.0,0.0,0.0,0.0,0.0,0.0,0.0,0.0,0.0,0.0,0.0,0.0,0.0,0.0,0.0,0.0,0.0,-0.7988,-0.7988,-0.7988,-0.7988,-0.7988,-0.7988,-0.7988,-0.7988,-0.7988,0.0,0.0,0.0,0.0,0.0,0.0,0.0,0.0,0.0,0.0,0.0,0.0,0.0,0.0,0.0,0.0,0.0,0.0,0.0,0.0,0.0,0.0,0.0,0.0,0.0,0.0,0.0,0.0,0.0,0.0,0.0,0.0,0.0,0.0,0.0,0.0,0.0,0.0,0.0,0.0,0.0,-1.2796,-1.2966,-1.3058,0.0,0.0,0.0,0.0,-1.3021,-1.3179,0.0,0.0,0.0,0.0,0.0,0.0,0.0,0.0,0.0,0.0,0.0,0.0,0.0,0.0,0.0,0.0,0.0,0.0,0.0,0.0,0.0,0.0,0.0,0.0,0.0,0.0,0.0,0.0,0.0,0.0,0.0,0.0,0.0,0.0,0.0,0.0,0.0,0.0,0.0,0.0,0.0,0.0,0.0,0.0,0.0,0.0,0.0,0.0,0.0,0.0,0.0,0.0,0.0,0.0,0.0,0.0,-0.7988,-0.7988,-0.7988,-0.7988,-0.7988,-0.7988,-0.7988,-0.7988,-0.7988,0.0,0.0,0.0,0.0,0.0,0.0,0.0,0.0,0.0,0.0,0.0,0.0,0.0,0.0,0.0,0.0,0.0,0.0,0.0,0.0,0.0,0.0,0.0,0.0,0.0,0.0,0.0,0.0,0.0,0.0,0.0,0.0,0.0,0.0,0.0,0.0,0.0,0.0,0.0,0.0,0.0,-1.2705,-1.2747,-1.2965,-1.3032,0.0,0.0,-1.2988,-1.279,-1.296,0.0,0.0,0.0,0.0,0.0,0.0,0.0,0.0,0.0,0.0,0.0,0.0,0.0,0.0,0.0,0.0,0.0,0.0,0.0,0.0,0.0,0.0,0.0,0.0,0.0,0.0,0.0,0.0,0.0,0.0,0.0,0.0,0.0,0.0,0.0,0.0,0.0,0.0,0.0,0.0,0.0,0.0,0.0,0.0,0.0,0.0,0.0,0.0,0.0,0.0,0.0,0.0,0.0,0.0,0.0,-0.7988,-0.7988,-0.7988,-0.7988,-0.7988,-0.7988,-0.7988,-0.7988,-0.7988,-0.7988,0.0,0.0,0.0,0.0,0.0,0.0,0.0,0.0,0.0,0.0,0.0,0.0,0.0,0.0,0.0,0.0,0.0,0.0,0.0,0.0,0.0,0.0,0.0,0.0,0.0,0.0,0.0,0.0,0.0,0.0,0.0,0.0,0.0,0.0,0.0,0.0,0.0,0.0,0.0,0.0,0.0,0.0,-1.2705,-1.294,0.0,0.0,0.0,-1.2981,-1.2747,0.0,0.0,0.0,0.0,0.0,0.0,0.0,0.0,0.0,0.0,0.0,0.0,0.0,0.0,0.0,0.0,0.0,0.0,0.0,0.0,0.0,0.0,0.0,0.0,0.0,0.0,0.0,0.0,0.0,0.0,0.0,0.0,0.0,0.0,0.0,0.0,0.0,0.0,0.0,0.0,0.0,0.0,0.0,0.0,0.0,0.0,0.0,0.0,0.0,0.0,0.0,0.0,0.0,0.0,0.0,0.0,0.0,-0.7988,-0.7988,-0.7988,-0.7988,-0.7988,-0.7988,-0.7988,-0.7988,0.0,0.0,0.0,0.0,0.0,0.0,0.0,0.0,0.0,0.0,0.0,0.0,0.0,0.0,0.0,0.0,0.0,0.0,0.0,0.0,0.0,0.0,0.0,0.0,0.0,0.0,0.0,-1.2924,0.0,0.0,0.0,0.0,0.0,0.0,0.0,0.0,0.0,0.0,0.0,0.0,0.0,0.0,-1.2705,-1.2705,-1.2946,-1.3025,0.0,0.0,-1.2987,-1.2747,-1.2881,-1.3009,0.0,0.0,0.0,0.0,0.0,0.0,0.0,0.0,0.0,0.0,0.0,0.0,0.0,0.0,0.0,0.0,0.0,0.0,0.0,0.0,0.0,0.0,0.0,0.0,0.0,0.0,0.0,0.0,0.0,0.0,0.0,0.0,0.0,0.0,0.0,0.0,0.0,0.0,0.0,0.0,0.0,0.0,0.0,0.0,0.0,0.0,0.0,0.0,0.0,0.0,0.0,0.0,0.0,0.0,0.0,-0.7988,-0.7988,-0.7988,-0.7988,-0.7988,-0.7988,-0.7988,-0.7988,-0.7988,0.0,0.0,0.0,0.0,0.0,0.0,0.0,0.0,0.0,0.0,0.0,0.0,0.0,0.0,0.0,0.0,0.0,0.0,0.0,0.0,0.0,0.0,0.0,0.0,0.0,0.0,0.0,0.0,0.0,0.0,0.0,0.0,0.0,0.0,0.0,0.0,0.0,0.0,0.0,0.0,0.0,-1.2705,-1.2705,-1.2946,-1.3025,0.0,0.0,-1.3025,-1.2747,-1.2705,-1.2747,-1.2747,0.0,0.0,0.0,0.0,0.0,0.0,0.0,0.0,0.0,0.0,0.0,0.0,0.0,0.0,0.0,0.0,0.0,0.0,0.0,0.0,0.0,0.0,0.0,0.0,0.0,0.0,0.0,0.0,0.0,0.0,0.0,0.0,0.0,0.0,0.0,0.0,0.0,0.0,0.0,0.0,0.0,0.0,0.0,0.0,0.0,0.0,0.0,0.0,0.0,0.0,0.0,0.0,0.0,-0.7988,-0.7988,-0.7988,-0.7988,-0.7988,-0.7988,-0.7988,-0.7988,-0.7988,-0.7944,0.0,0.0,0.0,0.0,0.0,0.0,0.0,0.0,0.0,0.0,0.0,0.0,0.0,0.0,0.0,0.0,0.0,0.0,0.0,0.0,0.0,0.0,0.0,0.0,0.0,0.0,0.0,0.0,-1.2705,-1.2705,-1.2705,0.0,0.0,0.0,0.0,0.0,0.0,0.0,0.0,0.0,0.0,-1.2705,-1.2705,-1.2946,0.0,0.0,-1.2946,-1.3025,-1.2747,-1.2705,-1.2705,-1.2705,-1.2796,0.0,0.0,0.0,0.0,0.0,0.0,0.0,0.0,0.0,0.0,0.0,0.0,0.0,0.0,0.0,0.0,0.0,0.0,0.0,0.0,0.0,0.0,0.0,0.0,0.0,0.0,0.0,0.0,0.0,0.0,0.0,0.0,0.0,0.0,0.0,0.0,0.0,0.0,0.0,0.0,0.0,0.0,0.0,0.0,0.0,0.0,0.0,0.0,0.0,0.0,0.0,0.0,-0.7939,-0.7892,-0.7942,-0.7942,-0.7892,-0.7942,-0.7988,-0.7988,-0.7944,-0.7923,0.0,0.0,0.0,0.0,0.0,0.0,0.0,0.0,0.0,0.0,0.0,0.0,0.0,0.0,0.0,0.0,0.0,0.0,0.0,0.0,0.0,0.0,0.0,0.0,0.0,0.0,0.0,0.0,-1.2705,-1.2705,-1.2705,0.0,0.0,0.0,0.0,0.0,0.0,0.0,0.0,0.0,0.0,-1.2705,-1.2705,-1.294,-1.3055,-1.2856,-1.3061,-1.3169,-1.2976,-1.288,-1.2825,-1.2831,0.0,0.0,0.0,0.0,0.0,0.0,0.0,0.0,0.0,0.0,0.0,0.0,0.0,0.0,0.0,0.0,0.0,0.0,0.0,0.0,0.0,0.0,0.0,0.0,0.0,0.0,0.0,0.0,0.0,0.0,0.0,0.0,0.0,0.0,0.0,0.0,0.0,0.0,0.0,0.0,0.0,0.0,0.0,0.0,0.0,0.0,0.0,0.0,0.0,0.0,0.0,0.0,0.0,-0.7889,-0.7646,-0.7839,-0.7892,-0.7646,-0.7892,-0.7988,-0.7985,-0.7896,-0.7811,-0.7804,0.0,0.0,0.0,0.0,0.0,0.0,0.0,0.0,0.0,0.0,0.0,0.0,0.0,0.0,0.0,0.0,0.0,0.0,0.0,0.0,0.0,0.0,0.0,0.0,0.0,0.0,-1.2705,-1.2705,-1.2705,0.0,0.0,0.0,0.0,0.0,0.0,0.0,0.0,0.0,0.0,-1.2705,-1.2705,-1.2705,-1.2946,-1.3071,-1.3103,-1.332,-1.3489,-1.3465,-1.3221,-1.3071,0.0,0.0,0.0,0.0,0.0,0.0,0.0,0.0,0.0,0.0,0.0,0.0,0.0,0.0,0.0,0.0,0.0,0.0,0.0,0.0,0.0,0.0,0.0,0.0,0.0,0.0,0.0,0.0,0.0,0.0,0.0,0.0,0.0,0.0,0.0,0.0,0.0,0.0,0.0,0.0,-0.6387,-0.6387,0.0,0.0,0.0,0.0,0.0,0.0,0.0,0.0,0.0,0.0,0.0,0.0,-0.7892,-0.7646,-0.7839,-0.7842,-0.7593,-0.7839,-0.7988,-0.7988,-0.7892,-0.7719,-0.7522,0.0,0.0,0.0,0.0,0.0,0.0,0.0,0.0,0.0,0.0,0.0,0.0,0.0,0.0,0.0,0.0,0.0,0.0,0.0,0.0,0.0,0.0,0.0,0.0,0.0,-1.2705,0.0,0.0,0.0,0.0,0.0,0.0,0.0,0.0,0.0,0.0,0.0,-1.2705,-1.2705,-1.2862,-1.2916,-1.2735,-1.2946,-1.3055,0.0,0.0,0.0,0.0,0.0,0.0,0.0,0.0,0.0,0.0,0.0,0.0,0.0,0.0,-1.8322,-1.866,-1.874,-1.8812,-1.8812,0.0,0.0,0.0,0.0,0.0,0.0,0.0,0.0,0.0,0.0,0.0,0.0,0.0,0.0,0.0,0.0,-0.2066,0.0,0.0,0.0,0.0,0.0,0.0,0.0,0.0,-0.6387,-0.6387,-0.6387,-0.6387,-0.6387,0.0,-0.6387,-0.6489,0.0,0.0,0.0,0.0,0.0,0.0,0.0,0.0,-0.7693,-0.7344,-0.7693,-0.7743,-0.749,-0.7793,-0.7988,-0.7985,-0.7845,-0.7597,-0.7302,-0.7149,-0.7095,0.0,0.0,0.0,0.0,0.0,0.0,0.0,0.0,0.0,0.0,0.0,0.0,0.0,0.0,0.0,0.0,0.0,0.0,0.0,0.0,0.0,0.0,0.0,-1.2571,0.0,0.0,0.0,0.0,0.0,0.0,0.0,0.0,0.0,-1.2705,-1.2705,-1.2705,-1.2705,-1.2862,-1.291,-1.2729,0.0,0.0,0.0,0.0,0.0,0.0,0.0,-1.3639,-1.4361,-1.4787,-1.5598,-1.7271,-1.8045,-1.8475,-1.864,0.0,0.0,-1.8455,-1.8531,-1.8571,-1.862,-1.8967,-1.9255,-1.9227,-1.953,-1.9807,0.0,0.0,0.0,0.0,0.0,0.0,0.0,0.0,-0.1059,-0.1462,0.0,-0.3626,0.0,0.0,0.0,0.0,0.0,0.0,0.0,0.0,-0.6387,-0.6387,-0.6387,-0.6387,-0.6387,-0.6387,-0.6387,-0.6387,-0.6437,-0.6692,0.0,0.0,0.0,0.0,0.0,0.0,-0.7294,-0.6845,-0.7297,-0.7444,-0.7238,-0.769,-0.7985,-0.7971,-0.775,-0.7465,-0.7125,-0.7102,-0.7095,-0.7095,-0.7095,0.0,0.0,0.0,0.0,0.0,0.0,0.0,0.0,0.0,0.0,0.0,0.0,0.0,0.0,0.0,0.0,0.0,0.0,0.0,0.0,-1.24,0.0,0.0,0.0,0.0,0.0,0.0,0.0,0.0,0.0,0.0,-1.2662,-1.2705,-1.2705,-1.2717,0.0,0.0,0.0,0.0,-1.3525,-1.3507,-1.3936,-1.425,-1.4244,-1.4051,-1.4207,-1.5199,0.0,0.0,-1.8853,-1.917,-1.9144,-1.9213,-1.9179,-1.8939,-1.822,-1.8328,-1.8472,-1.8472,-1.8637,-1.8918,-1.9466,-1.9624,-1.9815,0.077,0.0,0.0,0.0,0.0,0.0,0.0,0.0,-0.0303,-0.0454,-0.0555,-0.1915,0.0,0.0,0.0,0.0,0.0,0.0,-0.6387,-0.6387,-0.6387,-0.6387,-0.6387,-0.6387,-0.6387,-0.6387,-0.6387,-0.6387,-0.6387,-0.6489,-0.6689,-0.6995,0.0,0.0,0.0,0.0,-0.7141,-0.6842,-0.7141,-0.7188,-0.6892,-0.7238,-0.7493,-0.7593,-0.76,-0.7416,-0.7044,-0.7067,-0.7054,-0.6877,-0.701,0.0,0.0,0.0,0.0,0.0,0.0,0.0,0.0,0.0,0.0,0.0,0.0,0.0,0.0,0.0,0.0,0.0,0.0,0.0,-1.2619,-1.2491,-1.24,0.0,0.0,0.0,0.0,0.0,0.0,0.0,0.0,0.0,-1.2209,-1.2497,-1.2777,0.0,0.0,-1.3284,-1.3284,-1.358,-1.3725,-1.3498,0.0,0.0,0.0,-1.3833,-1.4164,-1.487,-1.6271,-1.7747,-1.899,-1.9179,-1.9179,-1.9179,-1.9179,-1.9093,-1.8922,-1.8929,-1.8971,-1.8971,-1.9139,-1.9375,-1.9658,-1.9895,-2.0141,0.1227,0.0717,0.0639,0.0418,0.0156,0.0153,0.0101,-0.005,-0.0454,-0.0606,-0.0757,-0.2217,-0.3224,-0.3877,-0.4983,0.0,0.0,0.0,-0.6387,-0.6387,-0.6387,-0.6387,-0.6387,-0.6387,-0.6387,-0.6387,-0.6387,-0.6387,-0.6387,-0.6387,-0.6489,-0.6642,0.0,0.0,-0.7042,-0.7042,-0.6892,-0.6642,-0.6889,-0.6939,-0.6795,-0.7039,-0.7223,-0.724,-0.7244,-0.7153,-0.6874,-0.6818,-0.6741,-0.6656,-0.6741,-0.6827,0.0,0.0,0.0,0.0,0.0,0.0,0.0,0.0,0.0,0.0,0.0,-1.2448,0.0,0.0,0.0,0.0,-1.2289,-1.2283,-1.2289,-1.2203,0.0,0.0,0.0,0.0,0.0,0.0,0.0,-1.2118,-1.2048,-1.1991,-1.2001,-1.2354,-1.2673,-1.2927,-1.3165,-1.3377,-1.3468,0.0,-1.3851,-1.3688,-1.3761,-1.3821,-1.3827,-1.3954,-1.4465,-1.5625,-1.7086,-1.8435,-1.944,-1.9615,-1.9615,-1.9615,-1.9615,-1.9659,-1.9615,-1.9659,-1.9504,-1.9282,-1.9299,-1.9504,-1.9842,-2.0127,-2.0429,0.1627,0.1287,0.1083,0.0741,0.0469,0.0409,0.0254,-0.0051,-0.1013,-0.1468,-0.1618,-0.3533,-0.4487,-0.4734,-0.5884,0.0,0.0,-0.6387,-0.6387,-0.6387,-0.6387,-0.6387,-0.6387,-0.6387,-0.6387,-0.6387,-0.6387,-0.6387,-0.6387,-0.6387,-0.6387,-0.6387,-0.6642,-0.6745,-0.6795,-0.6745,-0.6642,-0.6437,-0.6642,-0.6795,-0.6745,-0.7039,-0.7131,-0.7015,-0.6882,-0.6745,-0.6609,-0.6475,-0.6396,-0.6387,-0.6384,-0.6428,-0.6428,0.0,0.0,0.0,0.0,0.0,0.0,0.0,0.0,0.0,0.0,0.0,0.0,0.0,0.0,0.0,-1.1785,0.0,-1.1699,-1.1699,0.0,0.0,0.0,-1.2,-1.1952,-1.1952,-1.192,-1.1727,0.0,0.0,0.0,0.0,-1.2477,-1.2788,-1.2982,-1.3231,-1.3483,-1.3797,-1.3936,-1.3936,-1.4135,-1.4292,-1.4244,-1.4358,-1.5108,-1.6818,-1.8133,-1.9077,-2.0005,-2.0249,-2.0275,-2.024,-2.0283,-2.0266,-2.0283,-2.0232,-2.0078,-1.941,-1.9333,-1.9479,-2.0009,-2.036,-2.0668,0.1739,0.1679,0.159,0.1301,0.0755,0.053,0.0369,0.0263,-0.0158,-0.0366,-0.0413,-0.0928,-0.2043,-0.3676,-0.5582,-0.6387,-0.6387,-0.6387,-0.6387,-0.6387,-0.6387,-0.6387,-0.6387,-0.6387,-0.6387,-0.6387,-0.6387,-0.6387,-0.6387,-0.6387,-0.6387,-0.6387,-0.6439,-0.6489,-0.6489,-0.6489,-0.6439,-0.6387,-0.6439,-0.6489,-0.6489,-0.6739,-0.688,-0.6851,-0.6921,-0.6789,-0.6511,-0.652,-0.6448,-0.6174,-0.6299,-0.6428,-0.6428,-0.6428,0.0,0.0,0.0,0.0,0.0,0.0,0.0,0.0,0.0,-1.1952,-1.2075,0.0,-1.1866,0.0,-1.1527,-1.1527,-1.1866,-1.1785,0.0,0.0,-1.1871,-1.1871,-1.1527,-1.165,-1.1766,-1.1728,-1.175,-1.1837,-1.2026,-1.2262,-1.2475,-1.2759,-1.317,-1.3514,-1.3755,-1.4023,-1.4208,-1.4201,-1.425,-1.4298,-1.4346,-1.4956,-1.5846,-1.7102,-1.8133,-1.9117,-2.0102,-2.0292,-2.0292,-2.0292,-2.0292,-2.0292,-2.0292,-2.0292,-2.024,-2.0069,-2.0026,-2.0133,-2.0506,-2.0604,-2.0819,0.1807,0.1793,0.1777,0.1604,0.127,0.0969,0.064,0.0373,0.0267,0.0106,-0.0053,-0.1102,-0.2448,-0.4077,-0.5826,-0.6597,-0.66,-0.6597,-0.66,-0.66,-0.66,-0.66,-0.66,-0.66,-0.66,-0.66,-0.6597,-0.657,-0.6521,-0.6518,-0.6491,-0.6387,-0.6387,-0.6387,-0.6387,-0.6387,-0.6387,-0.6387,-0.6387,-0.6387,-0.6387,-0.6539,-0.6592,-0.6639,-0.6672,-0.6623,-0.6404,-0.6322,-0.6193,-0.6034,-0.6067,-0.608,-0.6083,-0.608,-0.6124,0.0,0.0,0.0,0.0,0.0,0.0,0.0,0.0,0.0,0.0,0.0,-1.1699,0.0,-1.1478,0.0,-1.165,-1.1613,-1.1527,-1.1527,-1.1607,-1.1608,-1.1494,-1.1598,-1.1728,-1.1873,-1.19,-1.1991,-1.2229,-1.2328,-1.2499,-1.2793,-1.309,-1.3421,-1.3698,-1.3823,-1.3968,-1.3968,-1.4016,-1.416,-1.4304,-1.514,-1.6123,-1.7156,-1.8133,-1.9117,-2.011,-2.0292,-2.0292,-2.0292,-2.0292,-2.0292,-2.0292,-2.0292,-2.0292,-2.0292,-2.0292,-2.0382,-2.0518,-2.0609,-2.0789,0.1825,0.1801,0.1797,0.1795,0.1791,0.1466,0.1019,0.0537,0.0483,0.0322,-0.0107,-0.2234,-0.377,-0.4831,-0.6054,-0.6643,-0.6801,-0.6804,-0.6804,-0.6804,-0.6804,-0.6804,-0.6804,-0.6804,-0.6804,-0.6804,-0.6804,-0.6747,-0.6643,-0.6643,-0.6586,-0.6438,-0.6433,-0.6422,-0.6411,-0.6408,-0.6403,-0.6387,-0.6387,-0.6387,-0.6387,-0.6387,-0.6387,-0.6431,-0.6342,-0.6333,-0.6265,-0.6064,-0.5934,-0.5901,-0.5809,-0.5704,-0.5688,-0.5688,-0.5777,0.0,-0.7705,0.0,0.0,0.0,0.0,0.0,0.0,0.0,0.0,-1.1661,-1.1661,-1.1656,-1.1435,-1.1311,-1.1311,-1.1311,-1.1316,-1.1354,-1.1354,-1.1439,-1.1715,-1.1741,-1.1878,-1.211,-1.2137,-1.2229,-1.242,-1.2457,-1.2544,-1.2759,-1.2937,-1.313,-1.3346,-1.3491,-1.3539,-1.3497,-1.369,-1.3925,-1.4298,-1.5235,-1.6264,-1.7196,-1.8319,-1.9263,-2.0147,-2.0292,-2.0292,-2.0292,-2.0292,-2.0292,-2.0292,-2.0292,-2.0292,-2.0292,-2.0292,-2.0292,-2.0337,-2.0473,-2.0654,0.178,0.1772,0.1806,0.1795,0.1794,0.1727,0.15,0.1111,0.0889,0.0607,0.0218,-0.1286,-0.2606,-0.3769,-0.4831,-0.5898,-0.6801,-0.6804,-0.6804,-0.6804,-0.6804,-0.6804,-0.6804,-0.6804,-0.6804,-0.6804,-0.6804,-0.679,-0.6766,-0.6766,-0.6755,-0.6733,-0.6733,-0.6681,-0.6589,0.0,0.0,0.0,-0.6387,-0.6387,-0.6387,-0.6387,-0.6387,-0.6387,-0.6365,0.0,-0.6322,-0.6273,-0.6108,-0.5915,-0.5882,0.0,0.0,0.0,0.0,0.0,0.0,0.0,0.0,0.0,0.0,0.0,-1.0954,-1.1397,-1.1397,-1.1354,-1.1397,-1.1354,-1.1305,-1.1311,-1.1311,-1.1311,-1.1386,-1.1607,-1.1634,-1.1725,-1.1991,-1.2029,-1.2121,-1.2318,-1.235,-1.2436,-1.2641,-1.2748,-1.2759,-1.2797,-1.2813,-1.2861,-1.291,-1.3249,-1.3497,-1.3491,-1.3545,-1.3684,-1.3931,-1.546,-1.6767,-1.7429,-1.8842,-1.9965,-2.0246,-2.0292,-2.0292,-2.0292,-2.0292,-2.0292,-2.0292,-2.0292,-2.0292,-2.0292,-2.0292,-2.0292,-2.0292,-2.0337,-2.0428,0.1854,0.0,0.1808,0.1795,0.0,0.1795,0.1683,0.1514,0.1234,0.0949,0.0554,-0.0823,-0.2127,-0.3325,-0.4577,-0.5832,-0.6978,-0.7032,-0.6975,-0.6978,-0.6978,-0.6978,-0.6975,-0.6975,-0.7032,-0.6975,-0.6975,-0.6945,-0.6893,-0.6893,-0.6861,-0.6804,-0.6804,-0.6771,-0.6709,-0.6649,-0.6508,-0.6387,-0.6387,-0.6387,-0.6387,-0.6387,-0.6387,-0.6387,0.0,0.0,0.0,0.0,0.0,0.0,0.0,0.0,0.0,0.0,0.0,-0.5733,-0.6615,-0.7095,-0.7139,-0.8408,-0.9423,-0.9859,-1.0781,-1.1311,-1.1311,-1.1311,-1.1311,-1.1311,-1.1413,-1.1482,-1.1482,-1.1623,-1.1741,-1.1855,-1.1916,-1.2008,-1.2224,-1.2231,-1.237,-1.2538,-1.2587,-1.2641,-1.2797,-1.2807,-1.2807,-1.2807,-1.2807,-1.2807,-1.2813,-1.3007,-1.3201,-1.3298,-1.3298,-1.3394,-1.3823,-1.5507,-1.6947,-1.7328,-1.888,-2.0102,-2.0292,-2.0292,-2.0292,-2.0292,-2.0292,-2.0292,-2.0292,-2.0292,-2.0292,-2.0292,-2.0292,-2.0292,-2.0292,-2.0292,-2.0337,0.1871,0.1845,0.181,0.1795,0.1795,0.1795,0.1795,0.1795,0.0,0.0,0.0,-0.0336,-0.1735,-0.3188,-0.4419,-0.5817,-0.7154,-0.721,-0.721,-0.721,-0.721,-0.721,-0.721,-0.721,-0.721,-0.721,-0.721,-0.7161,-0.7018,-0.7016,-0.6964,-0.6872,-0.6866,-0.6853,-0.6828,-0.6714,-0.6592,-0.6425,-0.6398,-0.6387,-0.6387,-0.6387,-0.6387,-0.6387,-0.6387,-0.6387,-0.6387,-0.6347,-0.6339,-0.6265,-0.6075,-0.5956,-0.5934,-0.5802,-0.5742,-0.5765,-0.6471,-0.6859,-0.6881,-0.7738,-0.8781,-0.9923,-1.0899,-1.1413,-1.1375,-1.137,-1.1386,-1.1423,-1.165,-1.1763,-1.1763,-1.197,-1.211,-1.2148,-1.2159,-1.2256,-1.2431,-1.2474,-1.2549,-1.2775,-1.2797,-1.2807,-1.2807,-1.2807,-1.2807,-1.2807,-1.2807,-1.2807,-1.2807,-1.2807,-1.291,-1.3001,-1.305,-1.3152,-1.3624,-1.5032,-1.6479,-1.6767,-1.8365,-1.9729,-2.0102,-2.0102,-2.0102,-2.0292,-2.0292,-2.0292,-2.0292,-2.0292,-2.0292,-2.0292,-2.0292,-2.0292,-2.0292,-2.0292,-2.0292,0.1883,0.1874,0.1819,0.1795,0.1795,0.1795,0.1795,0.1795,0.1458,0.129,0.1234,0.0785,-0.0784,-0.3132,-0.3354,-0.4806,-0.7154,-0.721,-0.721,0.0,-0.721,-0.721,-0.721,-0.721,-0.721,-0.721,-0.721,-0.7202,-0.7188,-0.7185,-0.7122,-0.7158,-0.7161,-0.7054,-0.6959,-0.6836,-0.6714,-0.6594,-0.6488,-0.6387,-0.6387,-0.6387,-0.6387,-0.6387,-0.6387,-0.6387,-0.6387,-0.6371,-0.6366,-0.6322,-0.6284,-0.617,-0.6067,-0.6043,-0.5991,-0.589,-0.5968,-0.6017,-0.5966,-0.685,-0.8329,-1.0228,-1.14,-1.191,-1.1671,-1.165,-1.1731,-1.197,-1.2019,-1.2046,-1.2046,-1.2089,-1.2202,-1.2328,-1.2361,-1.2457,-1.2673,-1.2753,-1.2759,-1.2802,-1.2807,-1.2807,-1.2807,-1.2807,-1.2807,-1.2807,-1.2807,-1.2807,-1.2807,-1.2807,-1.2813,-1.2861,-1.2861,-1.2958,-1.3244,-1.4088,-1.527,-1.6183,-1.6915,-1.8072,-1.9309,-1.9163,-1.9263,-2.011,-2.0147,-2.0246,-2.0292,-2.0292,-2.0292,-2.0292,-2.0292,-2.0292,-2.0292,-2.0292,-2.0292,0.1885,0.1878,0.182,0.1795,0.1795,0.1795,0.1795,0.1795,0.1627,0.157,0.1514,0.1234,0.0,-0.1902,-0.274,-0.425,-0.6262,-0.6932,-0.721,-0.721,-0.721,-0.721,-0.721,-0.721,-0.721,-0.721,-0.721,-0.721,-0.721,-0.721,-0.721,-0.721,-0.721,-0.7182,-0.7128,-0.6961,-0.6874,-0.6815,-0.6632,-0.6454,-0.6389,-0.6387,-0.6387,-0.6387,-0.6387,-0.6387,-0.6387,-0.6387,-0.636,-0.6361,-0.6301,-0.6292,-0.6235,-0.6121,-0.6059,-0.6007,-0.6002,-0.5977,-0.5928,-0.7395,-0.871,-0.9672,-1.1211,-1.211,-1.2086,-1.1962,-1.1975,-1.2083,-1.2208,-1.2248,-1.23,-1.2408,-1.2532,-1.2592,-1.2651,-1.2694,-1.2786,-1.2807,-1.2807,-1.2807,-1.2807,-1.2807,-1.2807,-1.2807,-1.2807,-1.2807,-1.2807,-1.2807,-1.2807,-1.2807,-1.2807,-1.2807,-1.2807,-1.2861,-1.2953,-1.3848,-1.4698,-1.5276,-1.6069,-1.6908,-1.7809,-1.7716,-1.8087,-1.901,-1.9301,-1.9583,-2.0102,-2.0292,-2.0292,-2.0292,-2.0292,-2.0292,-2.0292,-2.0292,-2.0292,0.1885,0.188,0.1821,0.1795,0.1795,0.1795,0.1795,0.1795,0.1795,0.1795,0.1739,0.1514,0.0616,-0.0839,-0.2237,-0.3747,-0.5314,-0.6541,-0.7099,-0.721,-0.721,-0.721,-0.721,-0.721,-0.721,-0.721,-0.721,-0.721,-0.721,-0.721,-0.721,-0.721,-0.721,-0.721,-0.7207,-0.7122,-0.7013,-0.6975,-0.6771,-0.66,-0.6433,-0.64,-0.6387,-0.6387,-0.6387,-0.6387,-0.6387,-0.6387,-0.6387,-0.6434,-0.6352,-0.6306,-0.6304,-0.6217,-0.6154,-0.6132,-0.6127,-0.6174,-0.6269,-0.8056,-0.92,-0.9288,-1.1123,-1.2337,-1.2447,-1.2364,-1.2251,-1.2278,-1.244,-1.2495,-1.2511,-1.2689,-1.2807,-1.2807,-1.2807,-1.2802,-1.2807,-1.2807,-1.2807,-1.2807,-1.2807,-1.2807,-1.2807,-1.2807,-1.2807,-1.2807,-1.2807,-1.2807,-1.2807,-1.2807,-1.2807,-1.2807,-1.2807,-1.2807,-1.2856,-1.3516,-1.4184,-1.437,-1.5073,-1.5785,-1.6217,-1.6452,-1.6915,-1.8033,-1.8588,-1.9109,-1.9957,-2.0246,-2.0292,-2.0292,-2.0292,-2.0292,-2.0292,-2.0292,-2.0292,0.1885,0.1877,0.182,0.1795,0.1795,0.1795,0.1795,0.1795,0.1795,0.1795,0.1795,0.1739,0.0953,-0.0504,-0.1677,-0.3186,-0.492,-0.6209,-0.6879,-0.7154,-0.721,-0.721,-0.721,-0.721,-0.721,-0.721,-0.721,-0.721,-0.721,-0.721,-0.721,-0.721,-0.721,-0.721,-0.7207,-0.7196,-0.7144,-0.6986,-0.6853,-0.6728,-0.6605,-0.6443,-0.6387,-0.6387,-0.6387,-0.6387,-0.6387,-0.6387,-0.6387,-0.6387,-0.6376,-0.6368,-0.6365,-0.6407,-0.6358,-0.6309,-0.63,-0.6252,-0.6395,-0.8213,-0.938,-0.9681,-1.1448,-1.2684,-1.2716,-1.27,-1.2743,-1.2732,-1.2753,-1.2759,-1.2775,-1.2797,-1.2807,-1.2807,-1.2807,-1.2807,-1.2807,-1.2807,-1.2807,-1.2807,-1.2807,-1.2807,-1.2807,-1.2807,-1.2807,-1.2807,-1.2807,-1.2807,-1.2807,-1.2807,-1.2807,-1.2807,-1.2807,-1.2807,-1.2807,-1.2856,-1.3335,-1.3806,-1.3613,-1.4232,-1.5181,-1.5893,-1.656,-1.7296,-1.8511,-1.9171,-1.9592,-1.9973,-2.0246,-2.0201,-2.0246,-2.0292,-2.0292,-2.0292,-2.0292,0.1885,0.188,0.1821,0.1795,0.1795,0.1795,0.1795,0.1795,0.1795,0.1795,0.1795,0.1795,0.1346,0.0504,-0.0615,-0.2069,-0.3634,-0.4975,-0.6096,-0.6879,-0.7102,-0.721,-0.721,-0.721,-0.721,-0.721,-0.721,-0.721,-0.721,-0.721,-0.721,-0.721,-0.721,-0.721,-0.721,-0.721,-0.7185,-0.7084,-0.697,-0.685,-0.6719,-0.6484,-0.6387,-0.6387,-0.6387,-0.6387,-0.6387,-0.6387,-0.6387,-0.6387,-0.6387,-0.6387,-0.6387,-0.6387,-0.6365,-0.6372,-0.6369,-0.6369,-0.6369,-0.7736,-0.8886,-0.9554,-1.0979,-1.2116,-1.2716,-1.2807,-1.2807,-1.2807,-1.2807,-1.2807,-1.2807,-1.2807,-1.2807,-1.2807,-1.2807,-1.2807,-1.2807,-1.2807,-1.2807,-1.2807,-1.2807,-1.2807,-1.2807,-1.2807,-1.2807,-1.2807,-1.2807,-1.2807,-1.2807,-1.2807,-1.2807,-1.2807,-1.2807,-1.2807,-1.2807,-1.2807,-1.2953,-1.3093,-1.3098,-1.3431,-1.3854,-1.4519,-1.5188,-1.6412,-1.7537,-1.8481,-1.9004,-1.9509,-1.9882,-1.992,-2.0155,-2.0292,-2.0292,-2.0292,-2.0292,0.1881,0.1866,0.1817,0.1795,0.1795,0.1795,0.1795,0.1795,0.1795,0.1795,0.1795,0.1795,0.1683,0.129,0.0224,-0.1119,-0.2627,-0.4137,-0.5479,-0.6657,-0.7043,-0.721,-0.721,-0.721,-0.721,-0.721,-0.721,-0.721,-0.721,-0.721,-0.721,-0.721,-0.721,-0.721,-0.721,-0.721,-0.721,-0.7199,-0.7043,-0.6926,-0.679,-0.6594,-0.6419,-0.6392,-0.6387,-0.6387,-0.6387,-0.6387,-0.6387,-0.6387,-0.6387,-0.6387,-0.6387,-0.6387,-0.6387,-0.6387,-0.6387,-0.6387,-0.6437,-0.7378,-0.8467,-0.9509,-1.0583,-1.1663,-1.2565,-1.2807,-1.2807,-1.2807,-1.2807,-1.2807,-1.2807,-1.2807,-1.2807,-1.2807,-1.2807,-1.2807,-1.2807,-1.2807,-1.2807,-1.2807,-1.2807,-1.2807,-1.2807,-1.2807,-1.2807,-1.2807,-1.2807,-1.2807,-1.2807,-1.2807,-1.2807,-1.2807,-1.2807,-1.2807,-1.2807,-1.2807,-1.2807,-1.2807,-1.2813,-1.2813,-1.2905,-1.3576,-1.4286,-1.5852,-1.656,-1.7412,-1.8404,-1.9004,-1.9509,-1.9637,-1.992,-2.0246,-2.0292,-2.0292,-2.0292,0.1869,0.1782,0.1808,0.1795,0.1795,0.1795,0.1795,0.1795,0.1795,0.1795,0.1795,0.1795,0.1795,0.1683,0.0561,-0.0784,-0.2235,-0.3744,-0.5198,-0.649,-0.6988,-0.721,-0.721,-0.721,-0.721,-0.721,-0.721,-0.721,-0.721,-0.721,-0.721,-0.721,-0.721,-0.721,-0.721,-0.721,-0.721,-0.7199,-0.7051,-0.6931,-0.6809,-0.6681,-0.6556,-0.6408,-0.6387,-0.6387,-0.6387,-0.6387,-0.6387,-0.6387,-0.6387,-0.6387,-0.6387,-0.6387,-0.6387,-0.6387,-0.6387,-0.6387,-0.6537,-0.7329,-0.8418,-0.9505,-1.0489,-1.1619,-1.2662,-1.2807,-1.2807,-1.2807,-1.2807,-1.2807,-1.2807,-1.2807,-1.2807,-1.2807,-1.2807,-1.2807,-1.2807,-1.2807,-1.2807,-1.2807,-1.2807,-1.2807,-1.2807,-1.2807,-1.2807,-1.2807,-1.2807,-1.2807,-1.2807,-1.2807,-1.2807,-1.2807,-1.2807,-1.2807,-1.2807,-1.2807,-1.2807,-1.2807,-1.2807,-1.2807,-1.3286,-1.3865,-1.458,-1.5432,-1.6615,-1.7466,-1.8032,-1.855,-1.905,-1.9409,-1.9874,-2.0147,-2.0246,-2.0292,-2.0292,0.1839,0.181,0.18,0.1795,0.1795,0.1795,0.1795,0.1795,0.1795,0.1795,0.1795,0.1795,0.1795,0.1739,0.1346,0.0448,-0.0895,-0.2348,-0.3855,-0.531,-0.6374,-0.699,-0.721,-0.721,-0.721,-0.721,-0.721,-0.721,-0.721,-0.721,-0.721,-0.721,-0.721,-0.721,-0.721,-0.721,-0.721,-0.7207,-0.7163,-0.7037,-0.6918,-0.6801,-0.6676,-0.6559,-0.6427,-0.6387,-0.6387,-0.6387,-0.6387,-0.6387,-0.6387,-0.6387,-0.6387,-0.6387,-0.6387,-0.6387,-0.6387,-0.6387,-0.6437,-0.6734,-0.7776,-0.9406,-0.9953,-1.0984,-1.2365,-1.2807,-1.2807,-1.2807,-1.2807,-1.2807,-1.2807,-1.2807,-1.2807,-1.2807,-1.2807,-1.2807,-1.2807,-1.2807,-1.2807,-1.2807,-1.2807,-1.2807,-1.2807,-1.2807,-1.2807,-1.2807,-1.2807,-1.2807,-1.2807,-1.2807,-1.2807,-1.2807,-1.2807,-1.2807,-1.2807,-1.2807,-1.2807,-1.2807,-1.2807,-1.2807,-1.3098,-1.3667,-1.4334,-1.4621,-1.5994,-1.6897,-1.7185,-1.8079,-1.8581,-1.9371,-1.9828,-2.0147,-2.0246,-2.0292,-2.0292,0.1814,0.1797,0.1795,0.1795,0.1795,0.1795,0.1795,0.1795,0.1795,0.1795,0.1795,0.1795,0.1795,0.1795,0.1795,0.1402,0.0392,-0.1342,-0.2962,-0.4416,-0.5873,-0.6715,-0.699,-0.7046,-0.7102,-0.721,-0.721,-0.721,-0.721,-0.721,-0.721,-0.721,-0.721,-0.721,-0.721,-0.721,-0.721,-0.721,-0.721,-0.7152,-0.6986,-0.6864,-0.6744,-0.6622,-0.6449,-0.6387,-0.6387,-0.6387,-0.6387,-0.6387,-0.6387,-0.6387,-0.6387,-0.6387,-0.6387,-0.6387,-0.6387,-0.6387,-0.6387,-0.6387,-0.7182,-0.8913,-0.946,-1.0395,-1.2068,-1.2565,-1.2759,-1.2807,-1.2807,-1.2807,-1.2807,-1.2807,-1.2807,-1.2807,-1.2807,-1.2807,-1.2807,-1.2807,-1.2807,-1.2807,-1.2807,-1.2807,-1.2807,-1.2807,-1.2807,-1.2807,-1.2807,-1.2807,-1.2807,-1.2807,-1.2807,-1.2807,-1.2807,-1.2807,-1.2807,-1.2807,-1.2807,-1.2807,-1.2807,-1.2807,-1.2905,-1.348,-1.3859,-1.4094,-1.4717,-1.5575,-1.652,-1.7466,-1.835,-1.9142,-1.9783,-2.0155,-2.0246,-2.0292,-2.0292,0.1796,0.1795,0.1795,0.1795,0.1795,0.1795,0.1795,0.1795,0.1795,0.1795,0.1795,0.1795,0.1795,0.1795,0.1795,0.1739,0.1233,-0.0839,-0.2627,-0.3917,-0.5429,-0.6325,-0.6715,-0.6712,-0.6935,-0.721,-0.721,-0.721,-0.721,-0.721,-0.721,-0.721,-0.721,-0.721,-0.721,-0.721,-0.721,-0.721,-0.721,-0.7158,-0.6986,-0.6869,-0.6749,-0.6632,-0.6457,-0.6387,-0.6387,-0.6387,-0.6387,-0.6387,-0.6387,-0.6387,-0.6387,-0.6387,-0.6387,-0.6387,-0.6387,-0.6387,-0.6387,-0.6437,-0.6883,-0.8074,-0.9011,-0.9899,-1.1028,-1.2068,-1.2613,-1.2608,-1.271,-1.2807,-1.2807,-1.2807,-1.2807,-1.2807,-1.2807,-1.2807,-1.2807,-1.2807,-1.2807,-1.2807,-1.2807,-1.2807,-1.2807,-1.2807,-1.2807,-1.2807,-1.2807,-1.2807,-1.2807,-1.2807,-1.2807,-1.2807,-1.2807,-1.2807,-1.2807,-1.2807,-1.2807,-1.2807,-1.2807,-1.2807,-1.2905,-1.3286,-1.348,-1.3763,-1.4244,-1.5146,-1.619,-1.7131,-1.7939,-1.8773,-1.9417,-2.0011,-2.0102,-2.0147,-2.0292,0.1795,0.1795,0.1795,0.1795,0.1795,0.1795,0.1795,0.1795,0.1795,0.1795,0.1795,0.1795,0.1795,0.1795,0.1795,0.1795,0.1627,0.0056,-0.1455,-0.2795,-0.414,-0.5373,-0.6272,-0.6604,-0.6879,-0.7154,-0.721,-0.721,-0.721,-0.721,-0.721,-0.721,-0.721,-0.721,-0.721,-0.721,-0.721,-0.721,-0.721,-0.7191,-0.7139,-0.6904,-0.6782,-0.6728,-0.6545,-0.6387,-0.6387,-0.6387,-0.6387,-0.6387,-0.6387,-0.6387,-0.6387,-0.6387,-0.6387,-0.6387,-0.6387,-0.6387,-0.6387,-0.6437,-0.6883,-0.7773,-0.8319,-0.9011,-0.9993,-1.1126,-1.1717,-1.1814,-1.2316,-1.2807,-1.2807,-1.2807,-1.2807,-1.2807,-1.2807,-1.2807,-1.2807,-1.2807,-1.2807,-1.2807,-1.2807,-1.2807,-1.2807,-1.2807,-1.2807,-1.2807,-1.2807,-1.2807,-1.2807,-1.2807,-1.2807,-1.2807,-1.2807,-1.2807,-1.2807,-1.2807,-1.2807,-1.2807,-1.2807,-1.2807,-1.2905,-1.3001,-1.3195,-1.348,-1.3956,-1.4669,-1.5758,-1.6756,-1.7559,-1.8218,-1.8819,-1.9325,-1.9737,-1.9965,-2.0102,0.1795,0.1795,0.1795,0.1795,0.1795,0.1795,0.1795,0.1795,0.1795,0.1795,0.1795,0.1795,0.1795,0.1795,0.1795,0.1795,0.1739,0.0953,-0.0056,-0.151,-0.3188,-0.4421,-0.5487,-0.6272,-0.6715,-0.6935,-0.7046,-0.7102,-0.721,-0.721,-0.721,-0.721,-0.721,-0.721,-0.721,-0.721,-0.721,-0.721,-0.721,-0.721,-0.7163,-0.6923,-0.6804,-0.6768,-0.6564,-0.6398,-0.6387,-0.6387,-0.6387,-0.6387,-0.6387,-0.6387,-0.6387,-0.6387,-0.6387,-0.6387,-0.6387,-0.6387,-0.6387,-0.6437,-0.6634,-0.7329,-0.7773,-0.8269,-0.911,-1.0239,-1.117,-1.1321,-1.2165,-1.2807,-1.2807,-1.2807,-1.2807,-1.2807,-1.2807,-1.2807,-1.2807,-1.2807,-1.2807,-1.2807,-1.2807,-1.2807,-1.2807,-1.2807,-1.2807,-1.2807,-1.2807,-1.2807,-1.2807,-1.2807,-1.2807,-1.2807,-1.2807,-1.2807,-1.2807,-1.2807,-1.2807,-1.2807,-1.2807,-1.2807,-1.2856,-1.2856,-1.2953,-1.319,-1.3619,-1.4052,-1.5045,-1.6183,-1.7084,-1.7645,-1.8164,-1.8958,-1.9554,-1.9783,-1.9965,0.1795,0.1795,0.1795,0.1795,0.1795,0.1795,0.1795,0.1795,0.1795,0.1795,0.1795,0.1795,0.1795,0.1795,0.1795,0.1795,0.1795,0.1683,0.1121,-0.028,-0.2015,-0.347,-0.4309,-0.5656,-0.6383,-0.6662,-0.6715,-0.6879,-0.7102,-0.7154,-0.721,-0.721,-0.721,-0.721,-0.721,-0.721,-0.721,-0.721,-0.721,-0.721,-0.7196,-0.6923,-0.6804,-0.679,-0.657,-0.6387,-0.6387,-0.6387,-0.6387,-0.6387,-0.6387,-0.6387,-0.6387,-0.6387,-0.6387,-0.6387,-0.6387,-0.6387,-0.6387,-0.6387,-0.6434,-0.6637,-0.7279,-0.7922,-0.812,-0.9497,-1.0583,-1.073,-1.1819,-1.2608,-1.2559,-1.2759,-1.2759,-1.2807,-1.2807,-1.2807,-1.2807,-1.2807,-1.2807,-1.2807,-1.2807,-1.2807,-1.2807,-1.2807,-1.2807,-1.2807,-1.2807,-1.2807,-1.2807,-1.2807,-1.2807,-1.2807,-1.2807,-1.2807,-1.2807,-1.2807,-1.2807,-1.2807,-1.2807,-1.2807,-1.2807,-1.2807,-1.2807,-1.3001,-1.319,-1.3667,-1.4286,-1.5371,-1.6183,-1.6608,-1.7451,-1.8627,-1.9134,-1.918,-1.9554,0.1795,0.1795,0.1795,0.1795,0.1795,0.1795,0.1795,0.1795,0.1795,0.1795,0.1795,0.1795,0.1795,0.1795,0.1795,0.1795,0.1795,0.1795,0.1683,0.1177,-0.0168,-0.2184,-0.3861,-0.5318,-0.6102,-0.6383,-0.6548,-0.6771,-0.6824,-0.7043,-0.7154,-0.721,-0.721,-0.721,-0.721,-0.721,-0.721,-0.721,-0.721,-0.721,-0.7174,-0.6923,-0.6806,-0.6779,-0.6564,-0.6395,-0.6387,-0.6387,-0.6387,-0.6387,-0.6387,-0.6387,-0.6387,-0.6387,-0.6387,-0.6387,-0.6387,-0.6387,-0.6387,-0.6387,-0.6387,-0.6387,-0.6734,-0.6783,-0.6883,-0.8071,-0.8761,-0.9156,-1.0435,-1.1619,-1.1717,-1.2311,-1.2662,-1.2807,-1.2807,-1.2807,-1.2807,-1.2807,-1.2807,-1.2807,-1.2807,-1.2807,-1.2807,-1.2807,-1.2807,-1.2807,-1.2807,-1.2807,-1.2807,-1.2807,-1.2807,-1.2807,-1.2807,-1.2807,-1.2807,-1.2807,-1.2807,-1.2807,-1.2807,-1.2807,-1.2807,-1.2807,-1.2807,-1.2856,-1.2953,-1.3286,-1.3715,-1.4424,-1.4949,-1.5615,-1.6513,-1.7544,-1.7878,-1.8102,-1.8719,0.1795,0.1795,0.1795,0.1795,0.1795,0.1795,0.1795,0.1795,0.1795,0.1795,0.1795,0.1795,0.1795,0.1795,0.1795,0.1795,0.1795,0.1795,0.1795,0.157,0.0448,-0.1456,-0.3582,-0.5039,-0.5768,-0.6047,-0.6214,-0.6381,-0.655,-0.6824,-0.699,-0.7046,-0.7154,-0.721,-0.721,-0.721,-0.721,-0.721,-0.721,-0.721,-0.7193,-0.6923,-0.682,-0.6755,-0.657,-0.6387,-0.6387,-0.6387,-0.6387,-0.6387,-0.6387,-0.6387,-0.6387,-0.6387,-0.6387,-0.6387,-0.6387,-0.6387,-0.6387,-0.6387,-0.6387,-0.6387,-0.6387,-0.6387,-0.6634,-0.7378,-0.7971,-0.8269,-0.9649,-1.0337,-1.0685,-1.1473,-1.2262,-1.271,-1.2807,-1.2807,-1.2807,-1.2807,-1.2807,-1.2807,-1.2807,-1.2807,-1.2807,-1.2807,-1.2807,-1.2807,-1.2807,-1.2807,-1.2807,-1.2807,-1.2807,-1.2807,-1.2807,-1.2807,-1.2807,-1.2807,-1.2807,-1.2807,-1.2807,-1.2807,-1.2807,-1.2807,-1.2807,-1.2807,-1.2807,-1.2905,-1.3286,-1.3715,-1.419,-1.4902,-1.5663,-1.6183,-1.6601,-1.7124,-1.7785,0.1795,0.1795,0.1795,0.1795,0.1795,0.1795,0.1795,0.1795,0.1795,0.1795,0.1795,0.1795,0.1795,0.1795,0.1795,0.1795,0.1795,0.1795,0.1795,0.1458,0.0504,-0.112,-0.2798,-0.4367,-0.5264,-0.571,-0.5766,-0.5991,-0.6272,-0.6492,-0.6659,-0.6715,-0.6935,-0.7102,-0.7099,-0.7099,-0.7154,-0.721,-0.721,-0.721,-0.7169,-0.6934,-0.6809,-0.6768,-0.6567,-0.6398,-0.6387,-0.6387,-0.6387,-0.6387,-0.6387,-0.6387,-0.6387,-0.6387,-0.6387,-0.6387,-0.6387,-0.6387,-0.6387,-0.6387,-0.6387,-0.6387,-0.6387,-0.6387,-0.6587,-0.7182,-0.7624,-0.7627,-0.8814,-0.9406,-0.9854,-1.0534,-1.1419,-1.2165,-1.2511,-1.2613,-1.2759,-1.2807,-1.2807,-1.2807,-1.2807,-1.2807,-1.2807,-1.2807,-1.2807,-1.2807,-1.2807,-1.2807,-1.2807,-1.2807,-1.2807,-1.2807,-1.2807,-1.2807,-1.2807,-1.2807,-1.2807,-1.2807,-1.2807,-1.2807,-1.2807,-1.2807,-1.2807,-1.2807,-1.2807,-1.2813,-1.2905,-1.3286,-1.3667,-1.3998,-1.4615,-1.5092,-1.5568,-1.6136,-1.6749,0.1795,0.1795,0.1795,0.1795,0.1795,0.1795,0.1795,0.1795,0.1795,0.1795,0.1795,0.1795,0.1795,0.1795,0.1795,0.1795,0.1795,0.1795,0.1795,0.1627,0.0561,-0.0112,-0.1288,-0.2967,-0.4479,-0.5208,-0.5712,-0.5824,-0.5991,-0.6216,-0.6386,-0.6383,-0.6495,-0.6606,-0.6771,-0.6824,-0.6935,-0.7154,-0.7154,-0.721,-0.7166,-0.6929,-0.6796,-0.6763,-0.6559,-0.64,-0.6387,-0.6387,-0.6387,-0.6387,-0.6387,-0.6387,-0.6387,-0.6387,-0.6387,-0.6387,-0.6387,-0.6387,-0.6387,-0.6387,-0.6387,-0.6387,-0.6387,-0.6387,-0.6387,-0.6587,-0.6783,-0.6933,-0.7673,-0.8616,-0.9357,-0.9752,-1.044,-1.1228,-1.1619,-1.1917,-1.2565,-1.2759,-1.2807,-1.2807,-1.2807,-1.2807,-1.2807,-1.2807,-1.2807,-1.2807,-1.2807,-1.2807,-1.2807,-1.2807,-1.2807,-1.2807,-1.2807,-1.2807,-1.2807,-1.2807,-1.2807,-1.2807,-1.2807,-1.2807,-1.2807,-1.2807,-1.2807,-1.2807,-1.2807,-1.2813,-1.2813,-1.2807,-1.319,-1.3383,-1.3619,-1.4052,-1.4573,-1.5146,-1.5812,0.1795,0.1795,0.1795,0.1795,0.1795,0.1795,0.1795,0.1795,0.1795,0.1795,0.1795,0.1795,0.1795,0.1795,0.1795,0.1795,0.1795,0.1795,0.1795,0.1683,0.1065,0.0561,-0.028,-0.1791,-0.3358,-0.4479,-0.532,-0.5601,-0.5714,-0.5882,-0.6047,-0.6102,-0.6216,-0.6386,-0.6495,-0.6492,-0.6662,-0.6879,-0.6988,-0.7043,-0.7119,-0.6929,-0.6719,-0.6646,-0.6454,-0.6387,-0.6387,-0.6387,-0.6387,-0.6387,-0.6387,-0.6387,-0.6387,-0.6387,-0.6387,-0.6387,-0.6387,-0.6387,-0.6387,-0.6387,-0.6387,-0.6387,-0.6387,-0.6387,-0.6387,-0.6387,-0.6387,-0.6487,-0.6983,-0.7677,-0.8665,-0.8867,-0.9406,-1.0288,-1.0925,-1.1468,-1.197,-1.2462,-1.2807,-1.2807,-1.2807,-1.2807,-1.2807,-1.2764,-1.2764,-1.2764,-1.2807,-1.2807,-1.2807,-1.2807,-1.2807,-1.2807,-1.2807,-1.2807,-1.2807,-1.2807,-1.2807,-1.2807,-1.2807,-1.2807,-1.2807,-1.2807,-1.2807,-1.2807,-1.2807,-1.2807,-1.2807,-1.2807,-1.2807,-1.3001,-1.319,-1.3335,-1.3721,-1.4532,-1.5099,0.1795,0.1795,0.1795,0.1795,0.1795,0.1795,0.1795,0.1795,0.1795,0.1795,0.1795,0.1795,0.1795,0.1795,0.1795,0.1795,0.1795,0.1795,0.1795,0.1739,0.1683,0.1177,0.0224,-0.0896,-0.2127,-0.3357,-0.4761,-0.5326,-0.5491,-0.5603,-0.5712,-0.5768,-0.5993,-0.6105,-0.6216,-0.6216,-0.6383,-0.6604,-0.6659,-0.6689,-0.6869,-0.6743,-0.6544,-0.6356,-0.6406,-0.6387,-0.6387,-0.6387,-0.6387,-0.6387,-0.6387,-0.6387,-0.6387,-0.6387,-0.6387,-0.6387,-0.6387,-0.6387,-0.6387,-0.6387,-0.6387,-0.6387,-0.6387,-0.6387,-0.6387,-0.6387,-0.6387,-0.6387,-0.6637,-0.6883,-0.7627,-0.7776,-0.8418,-0.9406,-1.0435,-1.0877,-1.1419,-1.2116,-1.2419,-1.2807,-1.2764,-1.2764,-1.2716,-1.2667,-1.2716,-1.2716,-1.2716,-1.2759,-1.271,-1.2759,-1.2759,-1.2759,-1.2807,-1.2807,-1.2807,-1.2807,-1.2807,-1.2807,-1.2807,-1.2807,-1.2807,-1.2807,-1.2807,-1.2807,-1.2807,-1.2807,-1.2807,-1.2807,-1.2807,-1.2807,-1.2856,-1.305,-1.3431,-1.3962,-1.4465,0.1795,0.1795,0.1795,0.1795,0.1795,0.1795,0.1795,0.1795,0.1795,0.1795,0.1795,0.1795,0.1795,0.1795,0.1795,0.1795,0.1795,0.1795,0.1795,0.1795,0.1795,0.1514,0.1177,0.0056,-0.1008,-0.2408,-0.4032,-0.51,-0.5382,-0.5437,-0.5493,-0.5493,-0.5549,-0.5717,-0.588,-0.5877,-0.6049,-0.6328,-0.6325,-0.6402,-0.6359,-0.6277,-0.616,-0.6115,-0.6239,-0.6337,-0.6387,-0.6387,-0.6387,-0.6387,-0.6387,-0.6387,-0.6387,-0.6387,-0.6387,-0.6387,-0.6387,-0.6387,-0.6387,-0.6387,-0.6387,-0.6387,-0.6387,-0.6387,-0.6387,-0.6387,-0.6387,-0.6387,-0.6387,-0.6537,-0.6634,-0.6833,-0.7677,-0.8814,-0.9509,-0.9953,-1.1135,-1.1683,-1.1927,-1.2419,-1.2565,-1.257,-1.237,-1.2273,-1.2273,-1.2273,-1.2322,-1.237,-1.2419,-1.2516,-1.2613,-1.271,-1.2807,-1.2807,-1.2807,-1.2807,-1.2807,-1.2807,-1.2807,-1.2807,-1.2807,-1.2807,-1.2807,-1.2807,-1.2807,-1.2807,-1.2807,-1.2807,-1.2807,-1.2807,-1.2807,-1.2807,-1.3091,-1.3473,-1.3993,0.1795,0.1795,0.1795,0.1795,0.1795,0.1795,0.1795,0.1795,0.1795,0.1795,0.1795,0.1795,0.1795,0.1795,0.1795,0.1795,0.1795,0.1795,0.1795,0.1795,0.1795,0.1795,0.1683,0.0561,-0.0168,-0.1232,-0.2687,-0.4313,-0.527,-0.5382,-0.5326,-0.5382,-0.5382,-0.5493,-0.5547,-0.5603,-0.577,-0.5993,-0.6042,-0.6054,-0.6051,-0.5963,-0.5889,-0.5886,-0.6039,-0.6087,-0.6034,-0.6337,-0.6337,-0.6237,-0.6337,-0.6387,-0.6387,-0.6387,-0.6387,-0.6387,-0.6387,-0.6387,-0.6387,-0.6387,-0.6387,-0.6387,-0.6387,-0.6387,-0.6387,-0.6387,-0.6387,-0.6387,-0.6387,-0.6387,-0.6437,-0.6387,-0.6883,-0.758,-0.8276,-0.9164,-1.0002,-1.0694,-1.1287,-1.178,-1.1731,-1.1683,-1.1731,-1.1683,-1.1736,-1.1834,-1.1878,-1.1975,-1.2078,-1.2127,-1.2224,-1.2467,-1.2565,-1.2662,-1.2662,-1.2662,-1.2662,-1.2662,-1.271,-1.271,-1.2807,-1.2807,-1.2807,-1.2807,-1.2807,-1.2807,-1.2807,-1.2807,-1.2807,-1.2807,-1.2743,-1.2759,-1.2763,-1.2995,-1.3478,0.1851,0.1851,0.1795,0.1795,0.1795,0.1795,0.1795,0.1795,0.1795,0.1795,0.1795,0.1795,0.1795,0.1795,0.1795,0.1795,0.1795,0.1795,0.1795,0.1795,0.1795,0.1795,0.1514,0.0953,0.0224,-0.0336,-0.1009,-0.2575,-0.4089,-0.4706,-0.4987,-0.5044,-0.5156,-0.5382,-0.5437,-0.5437,-0.5547,-0.5656,-0.571,-0.5826,-0.5847,-0.5775,-0.5625,-0.5548,-0.5739,-0.5839,-0.5737,-0.5987,-0.6087,-0.6037,-0.6087,-0.6237,-0.6287,-0.6337,-0.6337,-0.6387,-0.6387,-0.6387,-0.6387,-0.6387,-0.6387,-0.6387,-0.6387,-0.6387,-0.6387,-0.6387,-0.6387,-0.6387,-0.6387,-0.6387,-0.6387,-0.6337,-0.6437,-0.6786,-0.763,-0.8421,-0.8768,-0.9312,-0.9908,-1.0301,-1.0605,-1.0801,-1.09,-1.1292,-1.1438,-1.1296,-1.1345,-1.1536,-1.1585,-1.1536,-1.1634,-1.2073,-1.2273,-1.2467,-1.2516,-1.2467,-1.2467,-1.2424,-1.2473,-1.2516,-1.2662,-1.2807,-1.2759,-1.271,-1.2807,-1.2807,-1.2807,-1.2759,-1.2807,-1.2797,-1.2721,-1.2699,-1.2634,-1.2675,-1.2996,0.1907,0.2132,0.1907,0.1795,0.1795,0.1795,0.1795,0.1795,0.1795,0.1795,0.1795,0.1795,0.1795,0.1795,0.1795,0.1795,0.1795,0.1795,0.1795,0.1795,0.1795,0.1795,0.1795,0.1739,0.0897,0.0336,-0.0056,-0.0953,-0.224,-0.3246,-0.3805,-0.3974,-0.4761,-0.5326,-0.5156,-0.5326,-0.5382,-0.5437,-0.5431,-0.5399,-0.5284,-0.5259,-0.5271,-0.5345,-0.5489,-0.5586,-0.5536,-0.5687,-0.5737,-0.5684,-0.5687,-0.5837,-0.5989,-0.6042,-0.6189,-0.6337,-0.6387,-0.6387,-0.6387,-0.6387,-0.6387,-0.6387,-0.6387,-0.6387,-0.6387,-0.6387,-0.6387,-0.6387,-0.6387,-0.6337,-0.6287,-0.6189,-0.6539,-0.6689,-0.6936,-0.7481,-0.7776,-0.8124,-0.8722,-0.8871,-0.9167,-0.9768,-1.0162,-1.0654,-1.1096,-1.0904,-1.0855,-1.0998,-1.1096,-1.0998,-1.1096,-1.1487,-1.1829,-1.2029,-1.2078,-1.2073,-1.2078,-1.2078,-1.2127,-1.2175,-1.2273,-1.237,-1.2619,-1.257,-1.2662,-1.2662,-1.2613,-1.2662,-1.2759,-1.27,-1.2614,-1.2527,-1.2436,-1.2508,-1.2574,0.2244,0.2188,0.1907,0.1795,0.1795,0.1795,0.1795,0.1795,0.1795,0.1795,0.1795,0.1795,0.1795,0.1795,0.1795,0.1795,0.1795,0.1795,0.1795,0.1795,0.1795,0.1795,0.1795,0.1795,0.1346,0.1121,0.1009,0.0897,-0.0224,-0.1567,-0.2574,-0.2742,-0.3694,-0.4311,-0.448,-0.51,-0.5326,-0.5353,-0.5282,-0.5163,-0.5085,-0.5014,-0.4985,-0.4985,-0.5238,-0.5286,-0.5236,-0.5486,-0.5486,-0.5486,-0.5486,-0.5636,-0.5737,-0.5789,-0.5837,-0.5884,-0.5934,-0.6087,-0.6337,-0.6387,-0.6387,-0.6387,-0.6387,-0.6387,-0.6387,-0.6387,-0.6287,-0.6189,-0.6189,-0.6139,-0.5987,-0.5837,-0.5937,-0.6087,-0.6337,-0.6487,-0.6833,-0.7232,-0.7584,-0.7633,-0.7832,-0.8528,-0.9175,-0.9669,-1.0162,-1.0314,-1.0216,-1.0265,-1.0413,-1.0511,-1.0659,-1.0904,-1.1247,-1.1541,-1.1536,-1.1536,-1.1536,-1.1541,-1.1541,-1.159,-1.1683,-1.1829,-1.2029,-1.2127,-1.2127,-1.2175,-1.2322,-1.2533,-1.27,-1.2597,-1.2484,-1.2334,-1.2178,-1.2,-1.2075,0.2636,0.2411,0.2019,0.1907,0.1907,0.1851,0.1795,0.1795,0.1795,0.1795,0.1795,0.1795,0.1795,0.1795,0.1795,0.1795,0.1795,0.1795,0.1795,0.1795,0.1795,0.1795,0.1795,0.1795,0.1795,0.1795,0.1627,0.157,0.1121,0.0168,-0.0896,-0.14,-0.2574,-0.3078,-0.3469,-0.4196,-0.4921,-0.5324,-0.5198,-0.5081,-0.4977,-0.4888,-0.4845,-0.4885,-0.4935,-0.4987,-0.4885,-0.5133,-0.5236,-0.5188,-0.5236,-0.5386,-0.5489,-0.5489,-0.5586,-0.5636,-0.5684,-0.5784,-0.6034,-0.6134,-0.6184,-0.6184,-0.6187,-0.6137,-0.6137,-0.6184,-0.6137,-0.5939,-0.5889,-0.5789,-0.5636,-0.5536,-0.5489,-0.5589,-0.5689,-0.5739,-0.5839,-0.6187,-0.6587,-0.6839,-0.7039,-0.7385,-0.8031,-0.8581,-0.9076,-0.9525,-0.9624,-0.9575,-0.9776,-1.0072,-1.0265,-1.0511,-1.0757,-1.1002,-1.0998,-1.0998,-1.0998,-1.0998,-1.1002,-1.1149,-1.1292,-1.134,-1.1487,-1.1536,-1.1536,-1.1683,-1.1829,-1.2259,-1.2672,-1.2479,-1.2318,-1.2064,-1.1871,-1.1715,-1.1602,0.3081,0.3026,0.2411,0.2188,0.2132,0.1907,0.1795,0.1795,0.1795,0.1795,0.1795,0.1795,0.1795,0.1795,0.1795,0.1795,0.1795,0.1795,0.1795,0.1795,0.1795,0.1795,0.1795,0.1795,0.1795,0.1795,0.1795,0.1795,0.1739,0.1402,0.0561,-0.0168,-0.1567,-0.1847,-0.2519,-0.3636,-0.46,-0.5043,-0.5149,-0.5059,-0.4965,-0.4883,-0.4786,-0.4782,-0.4834,-0.4784,-0.4782,-0.4883,-0.4933,-0.4885,-0.4935,-0.5035,-0.5188,-0.5238,-0.5338,-0.5436,-0.5434,-0.5534,-0.5634,-0.5734,-0.5684,-0.5687,-0.5687,-0.5734,-0.5784,-0.5684,-0.5636,-0.5636,-0.5639,-0.5586,-0.5486,-0.5386,-0.519,-0.5188,-0.5236,-0.5186,-0.5186,-0.5135,-0.5536,-0.5942,-0.6242,-0.6537,-0.6939,-0.7534,-0.8184,-0.868,-0.9278,-0.9278,-0.9575,-0.9826,-1.0023,-1.0216,-1.0314,-1.0462,-1.0462,-1.0462,-1.0462,-1.0462,-1.0462,-1.0708,-1.0949,-1.0998,-1.085,-1.0998,-1.1047,-1.1145,-1.1346,-1.1697,-1.1999,-1.2182,-1.2099,-1.1751,-1.1654,-1.1564,-1.1429,0.3418,0.3362,0.2914,0.2579,0.2188,0.1907,0.1795,0.1795,0.1795,0.1795,0.1795,0.1795,0.1795,0.1795,0.1795,0.1795,0.1795,0.1795,0.1795,0.1795,0.1795,0.1795,0.1795,0.1795,0.1795,0.1795,0.1795,0.1795,0.1795,0.1795,0.1627,0.0673,-0.0784,-0.1567,-0.2351,-0.3461,-0.4629,-0.4918,-0.5116,-0.5043,-0.4906,-0.4863,-0.4782,-0.4782,-0.4782,-0.4782,-0.4782,-0.4782,-0.4782,-0.4782,-0.4782,-0.4885,-0.4935,-0.4987,-0.5035,-0.5135,-0.5183,-0.5183,-0.5233,-0.5384,-0.5584,-0.5584,-0.5584,-0.5584,-0.5534,-0.5584,-0.5486,-0.5438,-0.5338,-0.5338,-0.5085,-0.5035,-0.4935,-0.4935,-0.4885,-0.4834,-0.4782,-0.4782,-0.4885,-0.5438,-0.5489,-0.5636,-0.6039,-0.6489,-0.7188,-0.7836,-0.8432,-0.8981,-0.9278,-0.9525,-0.9673,-0.9871,-1.0019,-1.0019,-1.0019,-0.9969,-0.9924,-0.9974,-0.9969,-1.0216,-1.0462,-1.0216,-1.0117,-1.0261,-1.0507,-1.0659,-1.0807,-1.1062,-1.1308,-1.1574,-1.1562,-1.1347,-1.1323,-1.1337,-1.1343,0.3587,0.3531,0.325,0.2803,0.2356,0.2019,0.1851,0.1795,0.1795,0.1795,0.1795,0.1795,0.1795,0.1795,0.1795,0.1795,0.1795,0.1795,0.1795,0.1795,0.1795,0.1795,0.1795,0.1795,0.1795,0.1795,0.1795,0.1795,0.1795,0.1795,0.1739,0.1121,-0.0112,-0.0952,-0.1734,-0.3502,-0.4877,-0.5091,-0.5065,-0.5,-0.4804,-0.4784,-0.4782,-0.4782,-0.4782,-0.4782,-0.4782,-0.4782,-0.4782,-0.4782,-0.4782,-0.4782,-0.4784,-0.4782,-0.4782,-0.4782,-0.4782,-0.4782,-0.4883,-0.5083,-0.5334,-0.5284,-0.5286,-0.5336,-0.5386,-0.5334,-0.5186,-0.5135,-0.5087,-0.4987,-0.4782,-0.4834,-0.4834,-0.4834,-0.4834,-0.4782,-0.4782,-0.4782,-0.4782,-0.4935,-0.4985,-0.5085,-0.5286,-0.5737,-0.6487,-0.7135,-0.7733,-0.8333,-0.8878,-0.908,-0.9278,-0.9525,-0.9723,-0.9673,-0.9624,-0.9727,-0.9776,-0.9776,-0.9772,-0.9723,-0.9772,-0.9624,-0.9624,-0.9871,-1.0068,-1.0171,-1.0197,-1.0296,-1.0618,-1.1005,-1.0995,-1.095,-1.1079,-1.111,-1.1283,0.3587,0.3531,0.325,0.2971,0.2636,0.2356,0.2075,0.1851,0.1795,0.1795,0.1795,0.1795,0.1795,0.1795,0.1795,0.1795,0.1795,0.1795,0.1795,0.1795,0.1795,0.1795,0.1795,0.1795,0.1795,0.1795,0.1795,0.1795,0.1795,0.1795,0.1795,0.1456,0.0447,-0.0503,-0.0391,-0.2422,-0.4059,-0.4947,-0.502,-0.4937,-0.4808,-0.4782,-0.4782,-0.4782,-0.4782,-0.4782,-0.4782,-0.4782,-0.4782,-0.4782,-0.4782,-0.4782,-0.4782,-0.4782,-0.4782,-0.4782,-0.4782,-0.4782,-0.4782,-0.4834,-0.4885,-0.4933,-0.4985,-0.4985,-0.4883,-0.4834,-0.4885,-0.4885,-0.4885,-0.4834,-0.4782,-0.4782,-0.4782,-0.4782,-0.4782,-0.4782,-0.4782,-0.4782,-0.4782,-0.4782,-0.4782,-0.4834,-0.4834,-0.5083,-0.5784,-0.6434,-0.6986,-0.7633,-0.823,-0.873,-0.8931,-0.9179,-0.9426,-0.9624,-0.9624,-0.9624,-0.9628,-0.9624,-0.9624,-0.9624,-0.9624,-0.9624,-0.9624,-0.9624,-0.9723,-0.9875,-0.9644,-0.944,-0.9814,-1.0191,-1.0538,-1.0638,-1.0738,-1.0906,-1.1084,0.3587,0.3587,0.3475,0.325,0.2915,0.2412,0.2132,0.2019,0.1907,0.1795,0.1795,0.1795,0.1795,0.1795,0.1795,0.1795,0.1795,0.1795,0.1795,0.1795,0.1795,0.1795,0.1795,0.1795,0.1795,0.1795,0.1795,0.1795,0.1795,0.1795,0.1795,0.1512,0.0555,-0.0826,-0.2255,-0.3816,-0.4907,-0.499,-0.4979,-0.4928,-0.4794,-0.4782,-0.4782,-0.4782,-0.4782,-0.4782,-0.4782,-0.4782,-0.4782,-0.4782,-0.4782,-0.4782,-0.4782,-0.4782,-0.4782,-0.4782,-0.4782,-0.4782,-0.4782,-0.4784,-0.4784,-0.4782,-0.4782,-0.4782,-0.4782,-0.4782,-0.4782,-0.4782,-0.4782,-0.4782,-0.4782,-0.4782,-0.4782,-0.4782,-0.4782,-0.4782,-0.4782,-0.4782,-0.4782,-0.4782,-0.4782,-0.4782,-0.4782,-0.4782,-0.5334,-0.5684,-0.6137,-0.6839,-0.7437,-0.8134,-0.8581,-0.8829,-0.9126,-0.9426,-0.9575,-0.9377,-0.9377,-0.9381,-0.948,-0.9624,-0.9624,-0.9624,-0.9624,-0.9624,-0.9624,-0.9612,-0.9478,-0.9311,-0.9158,-0.9328,-0.9791,-1.0217,-1.0467,-1.0646,-1.0906,0.3979,0.3643,0.3587,0.3475,0.3194,0.2747,0.2411,0.2188,0.1907,0.1795,0.1795,0.1795,0.1795,0.1795,0.1795,0.1795,0.1795,0.1795,0.1795,0.1795,0.1795,0.1795,0.1795,0.1795,0.1795,0.1795,0.1795,0.1795,0.1795,0.1795,0.1787,0.1497,0.0604,-0.0488,-0.1992,-0.2929,-0.3708,-0.3734,-0.3805,-0.4229,-0.4291,-0.4481,-0.4784,-0.4782,-0.4782,-0.4782,-0.4782,-0.4782,-0.4782,-0.4782,-0.4782,-0.4782,-0.4782,-0.4782,-0.4782,-0.4782,-0.4782,-0.4782,-0.4782,-0.4782,-0.4782,-0.4782,-0.4782,-0.4782,-0.4782,-0.4782,-0.4782,-0.4782,-0.4782,-0.4782,-0.4782,-0.4782,-0.4782,-0.4782,-0.4782,-0.4782,-0.4782,-0.4782,-0.4782,-0.4782,-0.4782,-0.4782,-0.4782,-0.4782,-0.4983,-0.5135,-0.5286,-0.5989,-0.6639,-0.7288,-0.7885,-0.8184,-0.8333,-0.8482,-0.873,-0.8882,-0.8931,-0.9133,-0.9278,-0.9377,-0.9624,-0.9624,-0.9624,-0.9624,-0.9624,-0.9592,-0.9474,-0.9331,-0.912,-0.9038,-0.9177,-0.959,-1.0081,-1.0337,-1.0559,0.4702,0.3699,0.3587,0.3587,0.3531,0.3194,0.2747,0.2188,0.1963,0.1795,0.1795,0.1795,0.1795,0.1795,0.1795,0.1795,0.1795,0.1795,0.1795,0.1795,0.1795,0.1795,0.1795,0.1795,0.1795,0.1795,0.1795,0.1795,0.1794,0.1786,0.1828,0.1588,0.0814,0.016,-0.0473,-0.104,-0.1813,-0.231,-0.2852,-0.3137,-0.3224,-0.4079,-0.4381,-0.4481,-0.4634,-0.4784,-0.4782,-0.4782,-0.4782,-0.4782,-0.4782,-0.4782,-0.4782,-0.4782,-0.4782,-0.4782,-0.4782,-0.4782,-0.4782,-0.4782,-0.4782,-0.4782,-0.4782,-0.4782,-0.4782,-0.4782,-0.4782,-0.4782,-0.4782,-0.4782,-0.4782,-0.4782,-0.4782,-0.4782,-0.4782,-0.4782,-0.4782,-0.4782,-0.4782,-0.4782,-0.4782,-0.4782,-0.4782,-0.4782,-0.4782,-0.4885,-0.5035,-0.5286,-0.5887,-0.6242,-0.6789,-0.7238,-0.7338,-0.7385,-0.7633,-0.8134,-0.8233,-0.8382,-0.8733,-0.8931,-0.9229,-0.9377,-0.9278,-0.9229,-0.9476,-0.9514,-0.9437,-0.9275,-0.9076,-0.9013,-0.8966,-0.9182,-0.9678,-0.9868,-1.0081,0.4702,0.3643,0.3587,0.3587,0.3531,0.325,0.2746,0.2244,0.2132,0.2019,0.1795,0.1795,0.1795,0.1795,0.1795,0.1795,0.1795,0.1795,0.1795,0.1795,0.1795,0.1795,0.1795,0.1795,0.1795,0.1793,0.1793,0.1789,0.1786,0.1776,0.1747,0.1613,0.1278,0.1101,0.0985,0.0819,-0.0255,-0.1219,-0.1769,-0.1968,-0.2318,-0.3123,-0.3475,-0.3726,-0.4383,-0.4531,-0.4632,-0.4732,-0.4782,-0.4782,-0.4782,-0.4782,-0.4782,-0.4782,-0.4782,-0.4782,-0.4782,-0.4782,-0.4782,-0.4782,-0.4782,-0.4782,-0.4782,-0.4782,-0.4782,-0.4782,-0.4782,-0.4782,-0.4782,-0.4782,-0.4782,-0.4782,-0.4782,-0.4782,-0.4782,-0.4782,-0.4782,-0.4782,-0.4782,-0.4782,-0.4782,-0.4782,-0.4782,-0.4782,-0.4782,-0.4782,-0.4834,-0.4985,-0.5186,-0.5589,-0.5839,-0.6289,-0.6539,-0.6637,-0.6986,-0.7434,-0.7484,-0.7584,-0.7985,-0.8233,-0.8233,-0.8382,-0.863,-0.8981,-0.9377,-0.9482,-0.9437,-0.9246,-0.9153,-0.895,-0.8865,-0.9038,-0.9226,-0.942,-0.9655,0.5369,0.4313,0.3754,0.3587,0.3587,0.3362,0.3026,0.2579,0.23,0.2076,0.1963,0.1851,0.1795,0.1795,0.1795,0.1795,0.1795,0.1795,0.1795,0.1795,0.1795,0.1795,0.1795,0.1792,0.1785,0.1783,0.1774,0.1765,0.1759,0.1743,0.1716,0.1689,0.1719,0.1708,0.1591,0.1373,0.0911,0.0,-0.0656,-0.0907,-0.1361,-0.1964,-0.2418,-0.2771,-0.3627,-0.4079,-0.428,-0.4381,-0.4734,-0.4784,-0.4782,-0.4782,-0.4782,-0.4782,-0.4782,-0.4782,-0.4782,-0.4782,-0.4782,-0.4782,-0.4782,-0.4782,-0.4782,-0.4782,-0.4782,-0.4782,-0.4782,-0.4782,-0.4782,-0.4782,-0.4782,-0.4782,-0.4782,-0.4782,-0.4782,-0.4782,-0.4782,-0.4782,-0.4782,-0.4782,-0.4782,-0.4782,-0.4782,-0.4782,-0.4782,-0.4782,-0.4782,-0.4834,-0.4935,-0.5135,-0.5288,-0.5489,-0.5787,-0.5984,-0.6334,-0.6637,-0.6686,-0.6886,-0.7285,-0.7434,-0.7335,-0.7832,-0.8482,-0.8981,-0.9331,-0.9388,-0.9458,-0.942,-0.931,-0.9072,-0.8897,-0.8919,-0.8957,-0.8966,-0.9244,0.6422,0.526,0.4089,0.3587,0.3587,0.3587,0.3418,0.3082,0.2579,0.2244,0.2188,0.1963,0.1963,0.2019,0.2019,0.1963,0.2019,0.2019,0.1963,0.185,0.1907,0.1849,0.1787,0.1789,0.1768,0.1809,0.1797,0.1734,0.171,0.1699,0.1688,0.1712,0.1708,0.1645,0.1625,0.1621,0.1313,0.106,0.0454,0.0101,-0.0151,-0.0806,-0.1513,-0.1663,-0.2367,-0.3123,-0.3374,-0.3929,-0.4686,-0.4634,-0.4784,-0.4784,-0.4782,-0.4782,-0.4782,-0.4782,-0.4782,-0.4782,-0.4782,-0.4782,-0.4782,-0.4782,-0.4782,-0.4782,-0.4782,-0.4782,-0.4782,-0.4782,-0.4782,-0.4782,-0.4782,-0.4782,-0.4782,-0.4782,-0.4782,-0.4782,-0.4782,-0.4782,-0.4782,-0.4782,-0.4782,-0.4782,-0.4782,-0.4782,-0.4782,-0.4782,-0.4782,-0.4782,-0.4834,-0.4885,-0.4935,-0.4985,-0.5186,-0.5434,-0.5436,-0.5687,-0.5889,-0.6139,-0.6537,-0.6587,-0.6384,-0.7332,-0.8531,-0.9031,-0.948,-0.9529,-0.9567,-0.9486,-0.9445,-0.9314,-0.9092,-0.8909,-0.8833,-0.8783,-0.883,0.6422,0.5314,0.4089,0.3587,0.3587,0.3587,0.3587,0.3419,0.3081,0.2747,0.2581,0.2524,0.2468,0.2412,0.2412,0.2412,0.2412,0.2356,0.23,0.2185,0.2128,0.1997,0.1874,0.1869,0.1797,0.1725,0.1711,0.1752,0.1678,0.1669,0.1658,0.1633,0.163,0.1624,0.1618,0.1566,0.1566,0.1566,0.1313,0.1009,0.0908,0.0252,-0.0403,-0.0705,-0.131,-0.1915,-0.2318,-0.2972,-0.3426,-0.3627,-0.4433,-0.4684,-0.4782,-0.4782,-0.4782,-0.4782,-0.4782,-0.4782,-0.4782,-0.4782,-0.4782,-0.4782,-0.4782,-0.4782,-0.4782,-0.4782,-0.4782,-0.4782,-0.4782,-0.4782,-0.4782,-0.4782,-0.4782,-0.4782,-0.4782,-0.4782,-0.4782,-0.4782,-0.4782,-0.4782,-0.4782,-0.4782,-0.4782,-0.4782,-0.4782,-0.4782,-0.4782,-0.4782,-0.4782,-0.4834,-0.4834,-0.4885,-0.4834,-0.4935,-0.4885,-0.4985,-0.5288,-0.5288,-0.5534,-0.5534,-0.5584,-0.6783,-0.8084,-0.9031,-0.9579,-0.9624,-0.9624,-0.9608,-0.9514,-0.9405,-0.9326,-0.9096,-0.8917,-0.8849,-0.8783,0.7196,0.598,0.4311,0.3587,0.3587,0.3587,0.3587,0.3587,0.3418,0.3251,0.3029,0.2862,0.2693,0.2693,0.2693,0.2746,0.2691,0.2693,0.2565,0.2446,0.2326,0.2192,0.2067,0.1999,0.1976,0.1902,0.1827,0.181,0.1698,0.1641,0.163,0.1568,0.1566,0.1566,0.1566,0.1566,0.1566,0.1566,0.1566,0.1566,0.1566,0.1009,0.0706,0.0404,-0.0202,-0.0756,-0.126,-0.1865,-0.2319,-0.2771,-0.3475,-0.3929,-0.418,-0.4531,-0.4732,-0.4782,-0.4782,-0.4782,-0.4782,-0.4782,-0.4782,-0.4782,-0.4782,-0.4782,-0.4782,-0.4782,-0.4782,-0.4782,-0.4782,-0.4782,-0.4782,-0.4782,-0.4782,-0.4782,-0.4782,-0.4782,-0.4782,-0.4782,-0.4782,-0.4782,-0.4782,-0.4782,-0.4782,-0.4782,-0.4782,-0.4782,-0.4782,-0.4782,-0.4782,-0.4782,-0.4782,-0.4782,-0.4782,-0.4782,-0.4834,-0.4834,-0.4885,-0.4834,-0.4782,-0.5484,-0.6087,-0.6736,-0.7584,-0.868,-0.9426,-0.9624,-0.9624,-0.9579,-0.9567,-0.9527,-0.9409,-0.9326,-0.91,-0.8922,-0.8796,0.814,0.6808,0.4756,0.3866,0.3755,0.3643,0.3587,0.3587,0.3587,0.3587,0.3475,0.3029,0.2862,0.2806,0.2796,0.2796,0.2843,0.2878,0.2805,0.2681,0.2617,0.2425,0.2349,0.2333,0.2255,0.2175,0.2097,0.1884,0.1724,0.1723,0.1673,0.1618,0.1566,0.1566,0.1566,0.1566,0.1566,0.1566,0.1566,0.1566,0.1566,0.1566,0.1465,0.1161,0.0757,0.0252,-0.0101,-0.0655,-0.1311,-0.1814,-0.2367,-0.2821,-0.3325,-0.3828,-0.428,-0.4381,-0.4684,-0.4734,-0.4782,-0.4782,-0.4782,-0.4782,-0.4782,-0.4782,-0.4782,-0.4782,-0.4782,-0.4782,-0.4782,-0.4782,-0.4782,-0.4782,-0.4782,-0.4782,-0.4782,-0.4782,-0.4782,-0.4782,-0.4782,-0.4782,-0.4782,-0.4782,-0.4782,-0.4782,-0.4782,-0.4782,-0.4782,-0.4782,-0.4782,-0.4782,-0.4782,-0.4782,-0.4782,-0.4782,-0.4782,-0.4782,-0.4782,-0.4782,-0.4933,-0.5784,-0.6437,-0.6639,-0.7238,-0.8432,-0.908,-0.9179,-0.9426,-0.943,-0.9468,-0.9505,-0.9535,-0.9413,-0.9298,-0.9072,-0.8909,0.8198,0.6972,0.559,0.5037,0.4925,0.4033,0.3587,0.3587,0.3643,0.3587,0.3638,0.353,0.3419,0.3414,0.3366,0.3294,0.3181,0.3212,0.3075,0.2946,0.2892,0.2699,0.2514,0.25,0.2421,0.2346,0.2277,0.2173,0.1969,0.192,0.1819,0.1617,0.1617,0.1617,0.1617,0.1617,0.1617,0.1617,0.1617,0.1566,0.1566,0.1566,0.1566,0.1465,0.1414,0.1313,0.101,0.0252,-0.0151,-0.0655,-0.126,-0.1764,-0.2267,-0.2871,-0.3425,-0.3929,-0.423,-0.4634,-0.4684,-0.4784,-0.4782,-0.4782,-0.4782,-0.4782,-0.4782,-0.4782,-0.4782,-0.4782,-0.4782,-0.4782,-0.4782,-0.4782,-0.4782,-0.4782,-0.4782,-0.4782,-0.4782,-0.4782,-0.4782,-0.4782,-0.4782,-0.4782,-0.4782,-0.4782,-0.4782,-0.4782,-0.4782,-0.4782,-0.4782,-0.4782,-0.4782,-0.4782,-0.4782,-0.4782,-0.4782,-0.4782,-0.4782,-0.4782,-0.4935,-0.5536,-0.5939,-0.6092,-0.6839,-0.7935,-0.8382,-0.8531,-0.8783,-0.8981,-0.9327,-0.9369,-0.9521,-0.9539,-0.938,-0.9269,-0.9051]}]]